<?xml version="1.0" encoding="UTF-8" standalone="no" ?>
<gpx xmlns="http://www.topografix.com/GPX/1/1" xmlns:xsi="http://www.w3.org/2001/XMLSchema-instance" xsi:schemaLocation="http://www.topografix.com/GPX/1/1 http://www.topografix.com/GPX/1/1/gpx.xsd" version="1.1" creator="VisuGPX - https://www.visugpx.com">
  <metadata>
    <name>VTT au départ de Hondarribia</name>
    <desc><![CDATA[pour celui qui aime les possages / portages, mais avec de superbes points de vue]]></desc>
  </metadata>
  <trk>
    <name><![CDATA[Tracé actuel: 24 MAI 2015 09:23]]></name>
    <trkseg>
      <trkpt lat="43.39139" lon="-1.79287">
        <ele>26.57</ele>
        <time>2015-05-24T07:24:39Z</time>
      </trkpt>
      <trkpt lat="43.39139" lon="-1.79288">
        <ele>29.94</ele>
        <time>2015-05-24T07:24:44Z</time>
      </trkpt>
      <trkpt lat="43.3914" lon="-1.79289">
        <ele>32.82</ele>
        <time>2015-05-24T07:24:49Z</time>
      </trkpt>
      <trkpt lat="43.39143" lon="-1.79295">
        <ele>35.23</ele>
        <time>2015-05-24T07:24:54Z</time>
      </trkpt>
      <trkpt lat="43.39136" lon="-1.79307">
        <ele>37.63</ele>
        <time>2015-05-24T07:25:00Z</time>
      </trkpt>
      <trkpt lat="43.39126" lon="-1.79313">
        <ele>40.51</ele>
        <time>2015-05-24T07:25:05Z</time>
      </trkpt>
      <trkpt lat="43.39115" lon="-1.79326">
        <ele>43.4</ele>
        <time>2015-05-24T07:25:12Z</time>
      </trkpt>
      <trkpt lat="43.39114" lon="-1.79328">
        <ele>43.88</ele>
        <time>2015-05-24T07:25:13Z</time>
      </trkpt>
      <trkpt lat="43.39113" lon="-1.79332">
        <ele>44.84</ele>
        <time>2015-05-24T07:25:15Z</time>
      </trkpt>
      <trkpt lat="43.39111" lon="-1.79338">
        <ele>46.28</ele>
        <time>2015-05-24T07:25:18Z</time>
      </trkpt>
      <trkpt lat="43.39108" lon="-1.79345">
        <ele>48.68</ele>
        <time>2015-05-24T07:25:22Z</time>
      </trkpt>
      <trkpt lat="43.39101" lon="-1.79363">
        <ele>53.01</ele>
        <time>2015-05-24T07:25:31Z</time>
      </trkpt>
      <trkpt lat="43.391" lon="-1.79365">
        <ele>53.01</ele>
        <time>2015-05-24T07:25:32Z</time>
      </trkpt>
      <trkpt lat="43.39092" lon="-1.79387">
        <ele>55.89</ele>
        <time>2015-05-24T07:25:43Z</time>
      </trkpt>
      <trkpt lat="43.39083" lon="-1.79411">
        <ele>59.74</ele>
        <time>2015-05-24T07:25:54Z</time>
      </trkpt>
      <trkpt lat="43.39079" lon="-1.7944">
        <ele>60.22</ele>
        <time>2015-05-24T07:26:05Z</time>
      </trkpt>
      <trkpt lat="43.39078" lon="-1.79451">
        <ele>58.78</ele>
        <time>2015-05-24T07:26:07Z</time>
      </trkpt>
      <trkpt lat="43.39067" lon="-1.79478">
        <ele>57.34</ele>
        <time>2015-05-24T07:26:11Z</time>
      </trkpt>
      <trkpt lat="43.39034" lon="-1.7951">
        <ele>60.7</ele>
        <time>2015-05-24T07:26:24Z</time>
      </trkpt>
      <trkpt lat="43.39004" lon="-1.79507">
        <ele>63.58</ele>
        <time>2015-05-24T07:26:37Z</time>
      </trkpt>
      <trkpt lat="43.38975" lon="-1.79526">
        <ele>65.99</ele>
        <time>2015-05-24T07:26:51Z</time>
      </trkpt>
      <trkpt lat="43.38942" lon="-1.79542">
        <ele>67.43</ele>
        <time>2015-05-24T07:27:05Z</time>
      </trkpt>
      <trkpt lat="43.38907" lon="-1.7954">
        <ele>70.31</ele>
        <time>2015-05-24T07:27:19Z</time>
      </trkpt>
      <trkpt lat="43.38876" lon="-1.79556">
        <ele>73.68</ele>
        <time>2015-05-24T07:27:34Z</time>
      </trkpt>
      <trkpt lat="43.38842" lon="-1.79586">
        <ele>75.12</ele>
        <time>2015-05-24T07:27:51Z</time>
      </trkpt>
      <trkpt lat="43.38803" lon="-1.79618">
        <ele>76.56</ele>
        <time>2015-05-24T07:28:08Z</time>
      </trkpt>
      <trkpt lat="43.38795" lon="-1.79645">
        <ele>80.41</ele>
        <time>2015-05-24T07:28:20Z</time>
      </trkpt>
      <trkpt lat="43.38784" lon="-1.79673">
        <ele>83.77</ele>
        <time>2015-05-24T07:28:34Z</time>
      </trkpt>
      <trkpt lat="43.38767" lon="-1.79703">
        <ele>84.73</ele>
        <time>2015-05-24T07:28:49Z</time>
      </trkpt>
      <trkpt lat="43.38759" lon="-1.79702">
        <ele>84.73</ele>
        <time>2015-05-24T07:28:53Z</time>
      </trkpt>
      <trkpt lat="43.38763" lon="-1.79669">
        <ele>88.1</ele>
        <time>2015-05-24T07:29:08Z</time>
      </trkpt>
      <trkpt lat="43.38769" lon="-1.7963">
        <ele>88.58</ele>
        <time>2015-05-24T07:29:22Z</time>
      </trkpt>
      <trkpt lat="43.3877" lon="-1.7961">
        <ele>87.14</ele>
        <time>2015-05-24T07:29:25Z</time>
      </trkpt>
      <trkpt lat="43.3877" lon="-1.79596">
        <ele>87.14</ele>
        <time>2015-05-24T07:29:27Z</time>
      </trkpt>
      <trkpt lat="43.3877" lon="-1.79571">
        <ele>86.66</ele>
        <time>2015-05-24T07:29:31Z</time>
      </trkpt>
      <trkpt lat="43.38771" lon="-1.79554">
        <ele>86.66</ele>
        <time>2015-05-24T07:29:34Z</time>
      </trkpt>
      <trkpt lat="43.38769" lon="-1.79524">
        <ele>85.69</ele>
        <time>2015-05-24T07:29:39Z</time>
      </trkpt>
      <trkpt lat="43.38789" lon="-1.79488">
        <ele>85.69</ele>
        <time>2015-05-24T07:29:48Z</time>
      </trkpt>
      <trkpt lat="43.38807" lon="-1.79465">
        <ele>87.14</ele>
        <time>2015-05-24T07:29:56Z</time>
      </trkpt>
      <trkpt lat="43.38822" lon="-1.79427">
        <ele>88.1</ele>
        <time>2015-05-24T07:30:06Z</time>
      </trkpt>
      <trkpt lat="43.38818" lon="-1.79416">
        <ele>89.54</ele>
        <time>2015-05-24T07:30:10Z</time>
      </trkpt>
      <trkpt lat="43.38798" lon="-1.79414">
        <ele>92.42</ele>
        <time>2015-05-24T07:30:23Z</time>
      </trkpt>
      <trkpt lat="43.38779" lon="-1.79423">
        <ele>94.83</ele>
        <time>2015-05-24T07:30:35Z</time>
      </trkpt>
      <trkpt lat="43.38757" lon="-1.79431">
        <ele>97.71</ele>
        <time>2015-05-24T07:30:50Z</time>
      </trkpt>
      <trkpt lat="43.38742" lon="-1.79442">
        <ele>99.63</ele>
        <time>2015-05-24T07:31:01Z</time>
      </trkpt>
      <trkpt lat="43.38732" lon="-1.79453">
        <ele>101.08</ele>
        <time>2015-05-24T07:31:09Z</time>
      </trkpt>
      <trkpt lat="43.38718" lon="-1.79474">
        <ele>104.44</ele>
        <time>2015-05-24T07:31:25Z</time>
      </trkpt>
      <trkpt lat="43.38702" lon="-1.795">
        <ele>105.4</ele>
        <time>2015-05-24T07:31:40Z</time>
      </trkpt>
      <trkpt lat="43.38693" lon="-1.79513">
        <ele>106.84</ele>
        <time>2015-05-24T07:31:48Z</time>
      </trkpt>
      <trkpt lat="43.38675" lon="-1.79541">
        <ele>108.77</ele>
        <time>2015-05-24T07:32:03Z</time>
      </trkpt>
      <trkpt lat="43.3865" lon="-1.79568">
        <ele>109.73</ele>
        <time>2015-05-24T07:32:18Z</time>
      </trkpt>
      <trkpt lat="43.38619" lon="-1.79611">
        <ele>110.69</ele>
        <time>2015-05-24T07:32:35Z</time>
      </trkpt>
      <trkpt lat="43.38595" lon="-1.79638">
        <ele>111.65</ele>
        <time>2015-05-24T07:32:49Z</time>
      </trkpt>
      <trkpt lat="43.38564" lon="-1.79685">
        <ele>111.65</ele>
        <time>2015-05-24T07:33:02Z</time>
      </trkpt>
      <trkpt lat="43.38548" lon="-1.7972">
        <ele>108.77</ele>
        <time>2015-05-24T07:33:09Z</time>
      </trkpt>
      <trkpt lat="43.38542" lon="-1.79751">
        <ele>107.81</ele>
        <time>2015-05-24T07:33:13Z</time>
      </trkpt>
      <trkpt lat="43.38542" lon="-1.79773">
        <ele>106.36</ele>
        <time>2015-05-24T07:33:16Z</time>
      </trkpt>
      <trkpt lat="43.38528" lon="-1.79813">
        <ele>104.92</ele>
        <time>2015-05-24T07:33:22Z</time>
      </trkpt>
      <trkpt lat="43.38513" lon="-1.79848">
        <ele>105.88</ele>
        <time>2015-05-24T07:33:29Z</time>
      </trkpt>
      <trkpt lat="43.38507" lon="-1.79879">
        <ele>101.56</ele>
        <time>2015-05-24T07:33:33Z</time>
      </trkpt>
      <trkpt lat="43.38478" lon="-1.79925">
        <ele>101.08</ele>
        <time>2015-05-24T07:33:38Z</time>
      </trkpt>
      <trkpt lat="43.38421" lon="-1.7998">
        <ele>102.52</ele>
        <time>2015-05-24T07:33:50Z</time>
      </trkpt>
      <trkpt lat="43.38398" lon="-1.79974">
        <ele>102.52</ele>
        <time>2015-05-24T07:33:56Z</time>
      </trkpt>
      <trkpt lat="43.38353" lon="-1.79978">
        <ele>104.92</ele>
        <time>2015-05-24T07:34:08Z</time>
      </trkpt>
      <trkpt lat="43.38318" lon="-1.79977">
        <ele>106.84</ele>
        <time>2015-05-24T07:34:21Z</time>
      </trkpt>
      <trkpt lat="43.38289" lon="-1.79987">
        <ele>107.81</ele>
        <time>2015-05-24T07:34:33Z</time>
      </trkpt>
      <trkpt lat="43.38284" lon="-1.79996">
        <ele>107.81</ele>
        <time>2015-05-24T07:34:35Z</time>
      </trkpt>
      <trkpt lat="43.38259" lon="-1.80044">
        <ele>108.29</ele>
        <time>2015-05-24T07:34:47Z</time>
      </trkpt>
      <trkpt lat="43.38247" lon="-1.80067">
        <ele>111.65</ele>
        <time>2015-05-24T07:34:55Z</time>
      </trkpt>
      <trkpt lat="43.38244" lon="-1.80114">
        <ele>112.61</ele>
        <time>2015-05-24T07:35:09Z</time>
      </trkpt>
      <trkpt lat="43.38248" lon="-1.80164">
        <ele>115.5</ele>
        <time>2015-05-24T07:35:25Z</time>
      </trkpt>
      <trkpt lat="43.3825" lon="-1.80197">
        <ele>118.86</ele>
        <time>2015-05-24T07:35:39Z</time>
      </trkpt>
      <trkpt lat="43.38242" lon="-1.80226">
        <ele>120.78</ele>
        <time>2015-05-24T07:35:53Z</time>
      </trkpt>
      <trkpt lat="43.38231" lon="-1.80255">
        <ele>121.74</ele>
        <time>2015-05-24T07:36:07Z</time>
      </trkpt>
      <trkpt lat="43.38228" lon="-1.80259">
        <ele>121.74</ele>
        <time>2015-05-24T07:36:18Z</time>
      </trkpt>
      <trkpt lat="43.38227" lon="-1.80258">
        <ele>121.74</ele>
        <time>2015-05-24T07:36:28Z</time>
      </trkpt>
      <trkpt lat="43.38228" lon="-1.80257">
        <ele>121.74</ele>
        <time>2015-05-24T07:37:03Z</time>
      </trkpt>
      <trkpt lat="43.38229" lon="-1.80256">
        <ele>121.26</ele>
        <time>2015-05-24T07:37:39Z</time>
      </trkpt>
      <trkpt lat="43.38229" lon="-1.80257">
        <ele>121.26</ele>
        <time>2015-05-24T07:37:42Z</time>
      </trkpt>
      <trkpt lat="43.38229" lon="-1.80263">
        <ele>121.26</ele>
        <time>2015-05-24T07:37:50Z</time>
      </trkpt>
      <trkpt lat="43.38223" lon="-1.80291">
        <ele>121.74</ele>
        <time>2015-05-24T07:38:02Z</time>
      </trkpt>
      <trkpt lat="43.38225" lon="-1.80295">
        <ele>122.22</ele>
        <time>2015-05-24T07:38:07Z</time>
      </trkpt>
      <trkpt lat="43.38225" lon="-1.80302">
        <ele>122.22</ele>
        <time>2015-05-24T07:38:11Z</time>
      </trkpt>
      <trkpt lat="43.38225" lon="-1.8031">
        <ele>122.71</ele>
        <time>2015-05-24T07:38:27Z</time>
      </trkpt>
      <trkpt lat="43.38225" lon="-1.80305">
        <ele>123.19</ele>
        <time>2015-05-24T07:39:07Z</time>
      </trkpt>
      <trkpt lat="43.38225" lon="-1.80304">
        <ele>123.19</ele>
        <time>2015-05-24T07:39:09Z</time>
      </trkpt>
      <trkpt lat="43.38224" lon="-1.80296">
        <ele>123.19</ele>
        <time>2015-05-24T07:39:13Z</time>
      </trkpt>
      <trkpt lat="43.38221" lon="-1.80288">
        <ele>122.22</ele>
        <time>2015-05-24T07:39:16Z</time>
      </trkpt>
      <trkpt lat="43.38217" lon="-1.80286">
        <ele>122.22</ele>
        <time>2015-05-24T07:39:20Z</time>
      </trkpt>
      <trkpt lat="43.38197" lon="-1.80305">
        <ele>125.59</ele>
        <time>2015-05-24T07:39:36Z</time>
      </trkpt>
      <trkpt lat="43.38179" lon="-1.80314">
        <ele>127.99</ele>
        <time>2015-05-24T07:39:50Z</time>
      </trkpt>
      <trkpt lat="43.38165" lon="-1.80341">
        <ele>129.43</ele>
        <time>2015-05-24T07:40:05Z</time>
      </trkpt>
      <trkpt lat="43.38148" lon="-1.80385">
        <ele>129.43</ele>
        <time>2015-05-24T07:40:20Z</time>
      </trkpt>
      <trkpt lat="43.38133" lon="-1.8043">
        <ele>129.92</ele>
        <time>2015-05-24T07:40:33Z</time>
      </trkpt>
      <trkpt lat="43.38113" lon="-1.80484">
        <ele>130.4</ele>
        <time>2015-05-24T07:40:47Z</time>
      </trkpt>
      <trkpt lat="43.38093" lon="-1.80521">
        <ele>131.84</ele>
        <time>2015-05-24T07:40:59Z</time>
      </trkpt>
      <trkpt lat="43.38081" lon="-1.80545">
        <ele>135.2</ele>
        <time>2015-05-24T07:41:11Z</time>
      </trkpt>
      <trkpt lat="43.38063" lon="-1.8057">
        <ele>138.57</ele>
        <time>2015-05-24T07:41:26Z</time>
      </trkpt>
      <trkpt lat="43.38047" lon="-1.80589">
        <ele>140.97</ele>
        <time>2015-05-24T07:41:40Z</time>
      </trkpt>
      <trkpt lat="43.38022" lon="-1.80615">
        <ele>142.41</ele>
        <time>2015-05-24T07:41:57Z</time>
      </trkpt>
      <trkpt lat="43.37995" lon="-1.8064">
        <ele>145.3</ele>
        <time>2015-05-24T07:42:15Z</time>
      </trkpt>
      <trkpt lat="43.3798" lon="-1.80652">
        <ele>147.22</ele>
        <time>2015-05-24T07:42:25Z</time>
      </trkpt>
      <trkpt lat="43.37973" lon="-1.80656">
        <ele>147.7</ele>
        <time>2015-05-24T07:42:29Z</time>
      </trkpt>
      <trkpt lat="43.37946" lon="-1.80672">
        <ele>149.14</ele>
        <time>2015-05-24T07:42:44Z</time>
      </trkpt>
      <trkpt lat="43.37904" lon="-1.80704">
        <ele>149.14</ele>
        <time>2015-05-24T07:42:58Z</time>
      </trkpt>
      <trkpt lat="43.37865" lon="-1.8075">
        <ele>147.7</ele>
        <time>2015-05-24T07:43:12Z</time>
      </trkpt>
      <trkpt lat="43.37831" lon="-1.80786">
        <ele>148.66</ele>
        <time>2015-05-24T07:43:22Z</time>
      </trkpt>
      <trkpt lat="43.37813" lon="-1.8082">
        <ele>150.58</ele>
        <time>2015-05-24T07:43:34Z</time>
      </trkpt>
      <trkpt lat="43.37789" lon="-1.80858">
        <ele>151.06</ele>
        <time>2015-05-24T07:43:46Z</time>
      </trkpt>
      <trkpt lat="43.37757" lon="-1.80901">
        <ele>149.62</ele>
        <time>2015-05-24T07:43:56Z</time>
      </trkpt>
      <trkpt lat="43.37752" lon="-1.80906">
        <ele>149.62</ele>
        <time>2015-05-24T07:43:57Z</time>
      </trkpt>
      <trkpt lat="43.37737" lon="-1.80917">
        <ele>148.66</ele>
        <time>2015-05-24T07:44:00Z</time>
      </trkpt>
      <trkpt lat="43.37721" lon="-1.80927">
        <ele>147.22</ele>
        <time>2015-05-24T07:44:03Z</time>
      </trkpt>
      <trkpt lat="43.37702" lon="-1.80957">
        <ele>141.93</ele>
        <time>2015-05-24T07:44:07Z</time>
      </trkpt>
      <trkpt lat="43.37697" lon="-1.80969">
        <ele>140.97</ele>
        <time>2015-05-24T07:44:08Z</time>
      </trkpt>
      <trkpt lat="43.37692" lon="-1.80999">
        <ele>138.57</ele>
        <time>2015-05-24T07:44:11Z</time>
      </trkpt>
      <trkpt lat="43.37694" lon="-1.8101">
        <ele>138.57</ele>
        <time>2015-05-24T07:44:12Z</time>
      </trkpt>
      <trkpt lat="43.37699" lon="-1.81027">
        <ele>138.09</ele>
        <time>2015-05-24T07:44:14Z</time>
      </trkpt>
      <trkpt lat="43.377" lon="-1.81055">
        <ele>139.53</ele>
        <time>2015-05-24T07:44:18Z</time>
      </trkpt>
      <trkpt lat="43.37696" lon="-1.81072">
        <ele>142.89</ele>
        <time>2015-05-24T07:44:23Z</time>
      </trkpt>
      <trkpt lat="43.37695" lon="-1.81075">
        <ele>143.37</ele>
        <time>2015-05-24T07:44:24Z</time>
      </trkpt>
      <trkpt lat="43.37676" lon="-1.81105">
        <ele>146.74</ele>
        <time>2015-05-24T07:44:36Z</time>
      </trkpt>
      <trkpt lat="43.37673" lon="-1.81108">
        <ele>147.22</ele>
        <time>2015-05-24T07:44:38Z</time>
      </trkpt>
      <trkpt lat="43.37666" lon="-1.81113">
        <ele>147.7</ele>
        <time>2015-05-24T07:44:42Z</time>
      </trkpt>
      <trkpt lat="43.37641" lon="-1.81129">
        <ele>150.1</ele>
        <time>2015-05-24T07:44:57Z</time>
      </trkpt>
      <trkpt lat="43.37603" lon="-1.81122">
        <ele>150.58</ele>
        <time>2015-05-24T07:45:10Z</time>
      </trkpt>
      <trkpt lat="43.37573" lon="-1.81125">
        <ele>147.22</ele>
        <time>2015-05-24T07:45:15Z</time>
      </trkpt>
      <trkpt lat="43.37508" lon="-1.81149">
        <ele>146.74</ele>
        <time>2015-05-24T07:45:25Z</time>
      </trkpt>
      <trkpt lat="43.37496" lon="-1.81148">
        <ele>146.74</ele>
        <time>2015-05-24T07:45:27Z</time>
      </trkpt>
      <trkpt lat="43.37436" lon="-1.81141">
        <ele>143.37</ele>
        <time>2015-05-24T07:45:35Z</time>
      </trkpt>
      <trkpt lat="43.37418" lon="-1.81139">
        <ele>142.41</ele>
        <time>2015-05-24T07:45:38Z</time>
      </trkpt>
      <trkpt lat="43.37385" lon="-1.81123">
        <ele>140.49</ele>
        <time>2015-05-24T07:45:43Z</time>
      </trkpt>
      <trkpt lat="43.37357" lon="-1.81124">
        <ele>140.49</ele>
        <time>2015-05-24T07:45:48Z</time>
      </trkpt>
      <trkpt lat="43.37309" lon="-1.81154">
        <ele>143.85</ele>
        <time>2015-05-24T07:46:01Z</time>
      </trkpt>
      <trkpt lat="43.373" lon="-1.81158">
        <ele>143.85</ele>
        <time>2015-05-24T07:46:03Z</time>
      </trkpt>
      <trkpt lat="43.37282" lon="-1.81158">
        <ele>143.85</ele>
        <time>2015-05-24T07:46:07Z</time>
      </trkpt>
      <trkpt lat="43.37274" lon="-1.81157">
        <ele>142.41</ele>
        <time>2015-05-24T07:46:10Z</time>
      </trkpt>
      <trkpt lat="43.37275" lon="-1.8118">
        <ele>140.97</ele>
        <time>2015-05-24T07:46:16Z</time>
      </trkpt>
      <trkpt lat="43.37276" lon="-1.81198">
        <ele>140.49</ele>
        <time>2015-05-24T07:46:19Z</time>
      </trkpt>
      <trkpt lat="43.37291" lon="-1.81217">
        <ele>141.93</ele>
        <time>2015-05-24T07:46:27Z</time>
      </trkpt>
      <trkpt lat="43.37318" lon="-1.81232">
        <ele>146.26</ele>
        <time>2015-05-24T07:46:43Z</time>
      </trkpt>
      <trkpt lat="43.37341" lon="-1.8125">
        <ele>148.18</ele>
        <time>2015-05-24T07:46:56Z</time>
      </trkpt>
      <trkpt lat="43.37341" lon="-1.81256">
        <ele>148.18</ele>
        <time>2015-05-24T07:46:58Z</time>
      </trkpt>
      <trkpt lat="43.37326" lon="-1.81258">
        <ele>151.54</ele>
        <time>2015-05-24T07:47:09Z</time>
      </trkpt>
      <trkpt lat="43.37319" lon="-1.81258">
        <ele>152.51</ele>
        <time>2015-05-24T07:47:14Z</time>
      </trkpt>
      <trkpt lat="43.37302" lon="-1.81254">
        <ele>155.87</ele>
        <time>2015-05-24T07:47:28Z</time>
      </trkpt>
      <trkpt lat="43.37297" lon="-1.81253">
        <ele>156.35</ele>
        <time>2015-05-24T07:47:32Z</time>
      </trkpt>
      <trkpt lat="43.3729" lon="-1.81253">
        <ele>156.83</ele>
        <time>2015-05-24T07:47:37Z</time>
      </trkpt>
      <trkpt lat="43.37275" lon="-1.81256">
        <ele>158.27</ele>
        <time>2015-05-24T07:47:47Z</time>
      </trkpt>
      <trkpt lat="43.37253" lon="-1.81263">
        <ele>160.2</ele>
        <time>2015-05-24T07:48:02Z</time>
      </trkpt>
      <trkpt lat="43.37237" lon="-1.81287">
        <ele>162.12</ele>
        <time>2015-05-24T07:48:15Z</time>
      </trkpt>
      <trkpt lat="43.37219" lon="-1.81315">
        <ele>164.04</ele>
        <time>2015-05-24T07:48:30Z</time>
      </trkpt>
      <trkpt lat="43.37196" lon="-1.81344">
        <ele>165.48</ele>
        <time>2015-05-24T07:48:46Z</time>
      </trkpt>
      <trkpt lat="43.37174" lon="-1.81374">
        <ele>167.89</ele>
        <time>2015-05-24T07:49:03Z</time>
      </trkpt>
      <trkpt lat="43.37153" lon="-1.81401">
        <ele>170.29</ele>
        <time>2015-05-24T07:49:19Z</time>
      </trkpt>
      <trkpt lat="43.37133" lon="-1.81431">
        <ele>172.21</ele>
        <time>2015-05-24T07:49:35Z</time>
      </trkpt>
      <trkpt lat="43.37115" lon="-1.81469">
        <ele>173.17</ele>
        <time>2015-05-24T07:49:51Z</time>
      </trkpt>
      <trkpt lat="43.37118" lon="-1.81499">
        <ele>174.14</ele>
        <time>2015-05-24T07:50:02Z</time>
      </trkpt>
      <trkpt lat="43.37136" lon="-1.81525">
        <ele>176.06</ele>
        <time>2015-05-24T07:50:16Z</time>
      </trkpt>
      <trkpt lat="43.37158" lon="-1.81545">
        <ele>179.42</ele>
        <time>2015-05-24T07:50:31Z</time>
      </trkpt>
      <trkpt lat="43.37174" lon="-1.81565">
        <ele>180.87</ele>
        <time>2015-05-24T07:50:44Z</time>
      </trkpt>
      <trkpt lat="43.37187" lon="-1.81584">
        <ele>180.87</ele>
        <time>2015-05-24T07:50:53Z</time>
      </trkpt>
      <trkpt lat="43.37226" lon="-1.81622">
        <ele>182.31</ele>
        <time>2015-05-24T07:51:10Z</time>
      </trkpt>
      <trkpt lat="43.37262" lon="-1.81662">
        <ele>181.35</ele>
        <time>2015-05-24T07:51:23Z</time>
      </trkpt>
      <trkpt lat="43.37291" lon="-1.81704">
        <ele>179.42</ele>
        <time>2015-05-24T07:51:30Z</time>
      </trkpt>
      <trkpt lat="43.37314" lon="-1.81746">
        <ele>177.5</ele>
        <time>2015-05-24T07:51:37Z</time>
      </trkpt>
      <trkpt lat="43.37309" lon="-1.81787">
        <ele>176.06</ele>
        <time>2015-05-24T07:51:45Z</time>
      </trkpt>
      <trkpt lat="43.37302" lon="-1.81789">
        <ele>176.06</ele>
        <time>2015-05-24T07:51:47Z</time>
      </trkpt>
      <trkpt lat="43.37245" lon="-1.81798">
        <ele>177.5</ele>
        <time>2015-05-24T07:52:02Z</time>
      </trkpt>
      <trkpt lat="43.37216" lon="-1.8182">
        <ele>179.9</ele>
        <time>2015-05-24T07:52:13Z</time>
      </trkpt>
      <trkpt lat="43.37215" lon="-1.8185">
        <ele>180.87</ele>
        <time>2015-05-24T07:52:23Z</time>
      </trkpt>
      <trkpt lat="43.37216" lon="-1.81852">
        <ele>181.35</ele>
        <time>2015-05-24T07:52:24Z</time>
      </trkpt>
      <trkpt lat="43.37219" lon="-1.81875">
        <ele>184.71</ele>
        <time>2015-05-24T07:52:34Z</time>
      </trkpt>
      <trkpt lat="43.37205" lon="-1.81896">
        <ele>187.11</ele>
        <time>2015-05-24T07:52:49Z</time>
      </trkpt>
      <trkpt lat="43.37175" lon="-1.81909">
        <ele>188.56</ele>
        <time>2015-05-24T07:53:05Z</time>
      </trkpt>
      <trkpt lat="43.37145" lon="-1.81928">
        <ele>190.96</ele>
        <time>2015-05-24T07:53:22Z</time>
      </trkpt>
      <trkpt lat="43.37119" lon="-1.81942">
        <ele>192.88</ele>
        <time>2015-05-24T07:53:37Z</time>
      </trkpt>
      <trkpt lat="43.37096" lon="-1.81948">
        <ele>196.25</ele>
        <time>2015-05-24T07:53:52Z</time>
      </trkpt>
      <trkpt lat="43.37082" lon="-1.81949">
        <ele>197.21</ele>
        <time>2015-05-24T07:54:02Z</time>
      </trkpt>
      <trkpt lat="43.37066" lon="-1.81954">
        <ele>200.57</ele>
        <time>2015-05-24T07:54:15Z</time>
      </trkpt>
      <trkpt lat="43.37057" lon="-1.81957">
        <ele>202.49</ele>
        <time>2015-05-24T07:54:22Z</time>
      </trkpt>
      <trkpt lat="43.37055" lon="-1.81958">
        <ele>202.98</ele>
        <time>2015-05-24T07:54:24Z</time>
      </trkpt>
      <trkpt lat="43.37049" lon="-1.81962">
        <ele>203.94</ele>
        <time>2015-05-24T07:54:29Z</time>
      </trkpt>
      <trkpt lat="43.37031" lon="-1.81979">
        <ele>205.38</ele>
        <time>2015-05-24T07:54:43Z</time>
      </trkpt>
      <trkpt lat="43.37001" lon="-1.81986">
        <ele>205.86</ele>
        <time>2015-05-24T07:54:58Z</time>
      </trkpt>
      <trkpt lat="43.36962" lon="-1.81988">
        <ele>205.86</ele>
        <time>2015-05-24T07:55:11Z</time>
      </trkpt>
      <trkpt lat="43.36909" lon="-1.81995">
        <ele>205.86</ele>
        <time>2015-05-24T07:55:28Z</time>
      </trkpt>
      <trkpt lat="43.36879" lon="-1.82004">
        <ele>205.38</ele>
        <time>2015-05-24T07:55:40Z</time>
      </trkpt>
      <trkpt lat="43.36853" lon="-1.82029">
        <ele>205.38</ele>
        <time>2015-05-24T07:55:53Z</time>
      </trkpt>
      <trkpt lat="43.36816" lon="-1.82071">
        <ele>205.38</ele>
        <time>2015-05-24T07:56:09Z</time>
      </trkpt>
      <trkpt lat="43.36785" lon="-1.82105">
        <ele>203.46</ele>
        <time>2015-05-24T07:56:22Z</time>
      </trkpt>
      <trkpt lat="43.36754" lon="-1.82135">
        <ele>201.53</ele>
        <time>2015-05-24T07:56:35Z</time>
      </trkpt>
      <trkpt lat="43.36721" lon="-1.82177">
        <ele>199.61</ele>
        <time>2015-05-24T07:56:47Z</time>
      </trkpt>
      <trkpt lat="43.36719" lon="-1.82179">
        <ele>199.61</ele>
        <time>2015-05-24T07:56:49Z</time>
      </trkpt>
      <trkpt lat="43.3671" lon="-1.82172">
        <ele>199.61</ele>
        <time>2015-05-24T07:56:54Z</time>
      </trkpt>
      <trkpt lat="43.36683" lon="-1.82133">
        <ele>198.17</ele>
        <time>2015-05-24T07:57:06Z</time>
      </trkpt>
      <trkpt lat="43.36685" lon="-1.82098">
        <ele>196.25</ele>
        <time>2015-05-24T07:57:14Z</time>
      </trkpt>
      <trkpt lat="43.36682" lon="-1.82087">
        <ele>195.77</ele>
        <time>2015-05-24T07:57:18Z</time>
      </trkpt>
      <trkpt lat="43.3668" lon="-1.82077">
        <ele>195.28</ele>
        <time>2015-05-24T07:57:31Z</time>
      </trkpt>
      <trkpt lat="43.36681" lon="-1.82078">
        <ele>195.28</ele>
        <time>2015-05-24T07:58:00Z</time>
      </trkpt>
      <trkpt lat="43.36681" lon="-1.82077">
        <ele>195.28</ele>
        <time>2015-05-24T07:58:05Z</time>
      </trkpt>
      <trkpt lat="43.36682" lon="-1.82087">
        <ele>195.28</ele>
        <time>2015-05-24T07:58:11Z</time>
      </trkpt>
      <trkpt lat="43.36682" lon="-1.82117">
        <ele>195.28</ele>
        <time>2015-05-24T07:58:22Z</time>
      </trkpt>
      <trkpt lat="43.36683" lon="-1.82127">
        <ele>196.73</ele>
        <time>2015-05-24T07:58:25Z</time>
      </trkpt>
      <trkpt lat="43.36684" lon="-1.82133">
        <ele>197.21</ele>
        <time>2015-05-24T07:58:28Z</time>
      </trkpt>
      <trkpt lat="43.36679" lon="-1.82142">
        <ele>198.17</ele>
        <time>2015-05-24T07:58:32Z</time>
      </trkpt>
      <trkpt lat="43.36674" lon="-1.82145">
        <ele>198.65</ele>
        <time>2015-05-24T07:58:35Z</time>
      </trkpt>
      <trkpt lat="43.36673" lon="-1.82161">
        <ele>200.09</ele>
        <time>2015-05-24T07:58:43Z</time>
      </trkpt>
      <trkpt lat="43.36666" lon="-1.82188">
        <ele>203.46</ele>
        <time>2015-05-24T07:58:55Z</time>
      </trkpt>
      <trkpt lat="43.36653" lon="-1.82222">
        <ele>204.9</ele>
        <time>2015-05-24T07:59:08Z</time>
      </trkpt>
      <trkpt lat="43.36644" lon="-1.82255">
        <ele>208.26</ele>
        <time>2015-05-24T07:59:21Z</time>
      </trkpt>
      <trkpt lat="43.36638" lon="-1.82291">
        <ele>210.19</ele>
        <time>2015-05-24T07:59:35Z</time>
      </trkpt>
      <trkpt lat="43.36623" lon="-1.82329">
        <ele>210.67</ele>
        <time>2015-05-24T07:59:49Z</time>
      </trkpt>
      <trkpt lat="43.36602" lon="-1.82375">
        <ele>212.11</ele>
        <time>2015-05-24T08:00:04Z</time>
      </trkpt>
      <trkpt lat="43.36584" lon="-1.82421">
        <ele>213.55</ele>
        <time>2015-05-24T08:00:18Z</time>
      </trkpt>
      <trkpt lat="43.36584" lon="-1.82457">
        <ele>216.91</ele>
        <time>2015-05-24T08:00:32Z</time>
      </trkpt>
      <trkpt lat="43.36587" lon="-1.82475">
        <ele>218.84</ele>
        <time>2015-05-24T08:00:40Z</time>
      </trkpt>
      <trkpt lat="43.36579" lon="-1.82487">
        <ele>221.24</ele>
        <time>2015-05-24T08:00:50Z</time>
      </trkpt>
      <trkpt lat="43.36578" lon="-1.82486">
        <ele>221.24</ele>
        <time>2015-05-24T08:00:51Z</time>
      </trkpt>
      <trkpt lat="43.36563" lon="-1.82463">
        <ele>223.16</ele>
        <time>2015-05-24T08:01:07Z</time>
      </trkpt>
      <trkpt lat="43.36547" lon="-1.82444">
        <ele>225.57</ele>
        <time>2015-05-24T08:01:21Z</time>
      </trkpt>
      <trkpt lat="43.36523" lon="-1.82439">
        <ele>229.41</ele>
        <time>2015-05-24T08:01:36Z</time>
      </trkpt>
      <trkpt lat="43.36503" lon="-1.82444">
        <ele>230.85</ele>
        <time>2015-05-24T08:01:50Z</time>
      </trkpt>
      <trkpt lat="43.36481" lon="-1.82457">
        <ele>231.81</ele>
        <time>2015-05-24T08:02:04Z</time>
      </trkpt>
      <trkpt lat="43.36463" lon="-1.82473">
        <ele>232.78</ele>
        <time>2015-05-24T08:02:15Z</time>
      </trkpt>
      <trkpt lat="43.36449" lon="-1.82485">
        <ele>233.26</ele>
        <time>2015-05-24T08:02:24Z</time>
      </trkpt>
      <trkpt lat="43.36423" lon="-1.82488">
        <ele>234.7</ele>
        <time>2015-05-24T08:02:39Z</time>
      </trkpt>
      <trkpt lat="43.36414" lon="-1.82488">
        <ele>234.7</ele>
        <time>2015-05-24T08:02:43Z</time>
      </trkpt>
      <trkpt lat="43.36385" lon="-1.82471">
        <ele>235.18</ele>
        <time>2015-05-24T08:02:58Z</time>
      </trkpt>
      <trkpt lat="43.36353" lon="-1.82452">
        <ele>235.18</ele>
        <time>2015-05-24T08:03:11Z</time>
      </trkpt>
      <trkpt lat="43.36327" lon="-1.82465">
        <ele>236.14</ele>
        <time>2015-05-24T08:03:25Z</time>
      </trkpt>
      <trkpt lat="43.36322" lon="-1.82504">
        <ele>238.06</ele>
        <time>2015-05-24T08:03:40Z</time>
      </trkpt>
      <trkpt lat="43.36317" lon="-1.82534">
        <ele>239.51</ele>
        <time>2015-05-24T08:03:52Z</time>
      </trkpt>
      <trkpt lat="43.36309" lon="-1.82572">
        <ele>241.43</ele>
        <time>2015-05-24T08:04:07Z</time>
      </trkpt>
      <trkpt lat="43.36301" lon="-1.82594">
        <ele>242.87</ele>
        <time>2015-05-24T08:04:18Z</time>
      </trkpt>
      <trkpt lat="43.36273" lon="-1.82607">
        <ele>243.83</ele>
        <time>2015-05-24T08:04:31Z</time>
      </trkpt>
      <trkpt lat="43.3625" lon="-1.82639">
        <ele>243.83</ele>
        <time>2015-05-24T08:04:44Z</time>
      </trkpt>
      <trkpt lat="43.36241" lon="-1.82649">
        <ele>244.31</ele>
        <time>2015-05-24T08:04:49Z</time>
      </trkpt>
      <trkpt lat="43.36205" lon="-1.82647">
        <ele>245.27</ele>
        <time>2015-05-24T08:05:03Z</time>
      </trkpt>
      <trkpt lat="43.3617" lon="-1.8265">
        <ele>245.75</ele>
        <time>2015-05-24T08:05:17Z</time>
      </trkpt>
      <trkpt lat="43.36143" lon="-1.82675">
        <ele>246.72</ele>
        <time>2015-05-24T08:05:31Z</time>
      </trkpt>
      <trkpt lat="43.36123" lon="-1.8269">
        <ele>247.68</ele>
        <time>2015-05-24T08:05:40Z</time>
      </trkpt>
      <trkpt lat="43.36098" lon="-1.82727">
        <ele>249.12</ele>
        <time>2015-05-24T08:05:56Z</time>
      </trkpt>
      <trkpt lat="43.36093" lon="-1.82735">
        <ele>249.6</ele>
        <time>2015-05-24T08:05:59Z</time>
      </trkpt>
      <trkpt lat="43.36072" lon="-1.82776">
        <ele>251.52</ele>
        <time>2015-05-24T08:06:15Z</time>
      </trkpt>
      <trkpt lat="43.36037" lon="-1.82805">
        <ele>252.48</ele>
        <time>2015-05-24T08:06:31Z</time>
      </trkpt>
      <trkpt lat="43.36012" lon="-1.82821">
        <ele>252.48</ele>
        <time>2015-05-24T08:06:42Z</time>
      </trkpt>
      <trkpt lat="43.35983" lon="-1.82842">
        <ele>252.48</ele>
        <time>2015-05-24T08:06:54Z</time>
      </trkpt>
      <trkpt lat="43.35959" lon="-1.82873">
        <ele>253.44</ele>
        <time>2015-05-24T08:07:06Z</time>
      </trkpt>
      <trkpt lat="43.3595" lon="-1.82909">
        <ele>254.41</ele>
        <time>2015-05-24T08:07:17Z</time>
      </trkpt>
      <trkpt lat="43.35939" lon="-1.82957">
        <ele>254.89</ele>
        <time>2015-05-24T08:07:30Z</time>
      </trkpt>
      <trkpt lat="43.35918" lon="-1.82989">
        <ele>255.85</ele>
        <time>2015-05-24T08:07:42Z</time>
      </trkpt>
      <trkpt lat="43.35892" lon="-1.83015">
        <ele>257.29</ele>
        <time>2015-05-24T08:07:54Z</time>
      </trkpt>
      <trkpt lat="43.35881" lon="-1.83033">
        <ele>257.29</ele>
        <time>2015-05-24T08:08:01Z</time>
      </trkpt>
      <trkpt lat="43.35874" lon="-1.83045">
        <ele>257.77</ele>
        <time>2015-05-24T08:08:05Z</time>
      </trkpt>
      <trkpt lat="43.3585" lon="-1.83072">
        <ele>258.73</ele>
        <time>2015-05-24T08:08:17Z</time>
      </trkpt>
      <trkpt lat="43.35839" lon="-1.83122">
        <ele>259.21</ele>
        <time>2015-05-24T08:08:29Z</time>
      </trkpt>
      <trkpt lat="43.35827" lon="-1.83162">
        <ele>257.77</ele>
        <time>2015-05-24T08:08:38Z</time>
      </trkpt>
      <trkpt lat="43.35808" lon="-1.83213">
        <ele>257.29</ele>
        <time>2015-05-24T08:08:50Z</time>
      </trkpt>
      <trkpt lat="43.35789" lon="-1.8325">
        <ele>257.77</ele>
        <time>2015-05-24T08:09:02Z</time>
      </trkpt>
      <trkpt lat="43.35765" lon="-1.83287">
        <ele>259.21</ele>
        <time>2015-05-24T08:09:14Z</time>
      </trkpt>
      <trkpt lat="43.35736" lon="-1.83328">
        <ele>260.65</ele>
        <time>2015-05-24T08:09:28Z</time>
      </trkpt>
      <trkpt lat="43.35715" lon="-1.83348">
        <ele>261.62</ele>
        <time>2015-05-24T08:09:37Z</time>
      </trkpt>
      <trkpt lat="43.35683" lon="-1.83376">
        <ele>261.62</ele>
        <time>2015-05-24T08:09:50Z</time>
      </trkpt>
      <trkpt lat="43.3565" lon="-1.83394">
        <ele>261.62</ele>
        <time>2015-05-24T08:10:01Z</time>
      </trkpt>
      <trkpt lat="43.35625" lon="-1.83431">
        <ele>262.1</ele>
        <time>2015-05-24T08:10:14Z</time>
      </trkpt>
      <trkpt lat="43.35619" lon="-1.8346">
        <ele>262.58</ele>
        <time>2015-05-24T08:10:23Z</time>
      </trkpt>
      <trkpt lat="43.35623" lon="-1.8351">
        <ele>264.02</ele>
        <time>2015-05-24T08:10:36Z</time>
      </trkpt>
      <trkpt lat="43.35626" lon="-1.83529">
        <ele>264.5</ele>
        <time>2015-05-24T08:10:42Z</time>
      </trkpt>
      <trkpt lat="43.35625" lon="-1.83548">
        <ele>264.5</ele>
        <time>2015-05-24T08:10:48Z</time>
      </trkpt>
      <trkpt lat="43.35619" lon="-1.83597">
        <ele>264.5</ele>
        <time>2015-05-24T08:11:03Z</time>
      </trkpt>
      <trkpt lat="43.3562" lon="-1.83601">
        <ele>264.02</ele>
        <time>2015-05-24T08:11:15Z</time>
      </trkpt>
      <trkpt lat="43.35618" lon="-1.83601">
        <ele>264.02</ele>
        <time>2015-05-24T08:11:31Z</time>
      </trkpt>
      <trkpt lat="43.35619" lon="-1.83588">
        <ele>264.02</ele>
        <time>2015-05-24T08:11:38Z</time>
      </trkpt>
      <trkpt lat="43.35624" lon="-1.83563">
        <ele>264.02</ele>
        <time>2015-05-24T08:11:48Z</time>
      </trkpt>
      <trkpt lat="43.35624" lon="-1.83545">
        <ele>264.5</ele>
        <time>2015-05-24T08:11:57Z</time>
      </trkpt>
      <trkpt lat="43.35619" lon="-1.83493">
        <ele>264.5</ele>
        <time>2015-05-24T08:12:08Z</time>
      </trkpt>
      <trkpt lat="43.35618" lon="-1.83478">
        <ele>264.5</ele>
        <time>2015-05-24T08:12:12Z</time>
      </trkpt>
      <trkpt lat="43.35623" lon="-1.83479">
        <ele>264.5</ele>
        <time>2015-05-24T08:12:23Z</time>
      </trkpt>
      <trkpt lat="43.35625" lon="-1.83496">
        <ele>265.94</ele>
        <time>2015-05-24T08:12:37Z</time>
      </trkpt>
      <trkpt lat="43.35627" lon="-1.83508">
        <ele>267.86</ele>
        <time>2015-05-24T08:12:49Z</time>
      </trkpt>
      <trkpt lat="43.35627" lon="-1.8351">
        <ele>268.35</ele>
        <time>2015-05-24T08:12:51Z</time>
      </trkpt>
      <trkpt lat="43.35629" lon="-1.83521">
        <ele>269.79</ele>
        <time>2015-05-24T08:13:00Z</time>
      </trkpt>
      <trkpt lat="43.35633" lon="-1.83537">
        <ele>272.19</ele>
        <time>2015-05-24T08:13:14Z</time>
      </trkpt>
      <trkpt lat="43.35637" lon="-1.83551">
        <ele>274.59</ele>
        <time>2015-05-24T08:13:29Z</time>
      </trkpt>
      <trkpt lat="43.35639" lon="-1.83567">
        <ele>277</ele>
        <time>2015-05-24T08:13:45Z</time>
      </trkpt>
      <trkpt lat="43.35641" lon="-1.83582">
        <ele>279.4</ele>
        <time>2015-05-24T08:14:00Z</time>
      </trkpt>
      <trkpt lat="43.35643" lon="-1.83595">
        <ele>281.8</ele>
        <time>2015-05-24T08:14:14Z</time>
      </trkpt>
      <trkpt lat="43.35644" lon="-1.83605">
        <ele>284.21</ele>
        <time>2015-05-24T08:14:28Z</time>
      </trkpt>
      <trkpt lat="43.35646" lon="-1.83619">
        <ele>286.61</ele>
        <time>2015-05-24T08:14:44Z</time>
      </trkpt>
      <trkpt lat="43.35648" lon="-1.8363">
        <ele>289.49</ele>
        <time>2015-05-24T08:14:57Z</time>
      </trkpt>
      <trkpt lat="43.35646" lon="-1.83641">
        <ele>291.42</ele>
        <time>2015-05-24T08:15:10Z</time>
      </trkpt>
      <trkpt lat="43.35648" lon="-1.83656">
        <ele>293.82</ele>
        <time>2015-05-24T08:15:25Z</time>
      </trkpt>
      <trkpt lat="43.3565" lon="-1.83669">
        <ele>297.18</ele>
        <time>2015-05-24T08:15:43Z</time>
      </trkpt>
      <trkpt lat="43.3565" lon="-1.83681">
        <ele>300.07</ele>
        <time>2015-05-24T08:15:59Z</time>
      </trkpt>
      <trkpt lat="43.35649" lon="-1.83699">
        <ele>302.47</ele>
        <time>2015-05-24T08:16:19Z</time>
      </trkpt>
      <trkpt lat="43.3565" lon="-1.83713">
        <ele>304.88</ele>
        <time>2015-05-24T08:16:33Z</time>
      </trkpt>
      <trkpt lat="43.35649" lon="-1.83723">
        <ele>306.8</ele>
        <time>2015-05-24T08:16:46Z</time>
      </trkpt>
      <trkpt lat="43.35642" lon="-1.83736">
        <ele>309.2</ele>
        <time>2015-05-24T08:17:01Z</time>
      </trkpt>
      <trkpt lat="43.35637" lon="-1.83744">
        <ele>310.16</ele>
        <time>2015-05-24T08:17:10Z</time>
      </trkpt>
      <trkpt lat="43.35633" lon="-1.83754">
        <ele>310.64</ele>
        <time>2015-05-24T08:17:24Z</time>
      </trkpt>
      <trkpt lat="43.35621" lon="-1.83771">
        <ele>310.64</ele>
        <time>2015-05-24T08:17:36Z</time>
      </trkpt>
      <trkpt lat="43.35599" lon="-1.83799">
        <ele>311.6</ele>
        <time>2015-05-24T08:17:50Z</time>
      </trkpt>
      <trkpt lat="43.35577" lon="-1.83813">
        <ele>314.01</ele>
        <time>2015-05-24T08:18:04Z</time>
      </trkpt>
      <trkpt lat="43.35557" lon="-1.83827">
        <ele>315.93</ele>
        <time>2015-05-24T08:18:17Z</time>
      </trkpt>
      <trkpt lat="43.35545" lon="-1.83839">
        <ele>316.41</ele>
        <time>2015-05-24T08:18:25Z</time>
      </trkpt>
      <trkpt lat="43.35525" lon="-1.83857">
        <ele>316.41</ele>
        <time>2015-05-24T08:18:38Z</time>
      </trkpt>
      <trkpt lat="43.35498" lon="-1.83871">
        <ele>316.89</ele>
        <time>2015-05-24T08:18:52Z</time>
      </trkpt>
      <trkpt lat="43.35469" lon="-1.8388">
        <ele>317.37</ele>
        <time>2015-05-24T08:19:06Z</time>
      </trkpt>
      <trkpt lat="43.35449" lon="-1.83891">
        <ele>317.85</ele>
        <time>2015-05-24T08:19:17Z</time>
      </trkpt>
      <trkpt lat="43.35419" lon="-1.83899">
        <ele>318.81</ele>
        <time>2015-05-24T08:19:30Z</time>
      </trkpt>
      <trkpt lat="43.35409" lon="-1.83897">
        <ele>319.3</ele>
        <time>2015-05-24T08:19:35Z</time>
      </trkpt>
      <trkpt lat="43.35371" lon="-1.83885">
        <ele>319.3</ele>
        <time>2015-05-24T08:19:50Z</time>
      </trkpt>
      <trkpt lat="43.35341" lon="-1.83877">
        <ele>319.3</ele>
        <time>2015-05-24T08:20:02Z</time>
      </trkpt>
      <trkpt lat="43.3531" lon="-1.83885">
        <ele>319.3</ele>
        <time>2015-05-24T08:20:16Z</time>
      </trkpt>
      <trkpt lat="43.35303" lon="-1.8389">
        <ele>320.26</ele>
        <time>2015-05-24T08:20:20Z</time>
      </trkpt>
      <trkpt lat="43.35298" lon="-1.83902">
        <ele>320.74</ele>
        <time>2015-05-24T08:20:26Z</time>
      </trkpt>
      <trkpt lat="43.35287" lon="-1.8393">
        <ele>321.7</ele>
        <time>2015-05-24T08:20:40Z</time>
      </trkpt>
      <trkpt lat="43.35272" lon="-1.83964">
        <ele>322.18</ele>
        <time>2015-05-24T08:20:55Z</time>
      </trkpt>
      <trkpt lat="43.3526" lon="-1.83999">
        <ele>322.66</ele>
        <time>2015-05-24T08:21:08Z</time>
      </trkpt>
      <trkpt lat="43.35242" lon="-1.84033">
        <ele>322.66</ele>
        <time>2015-05-24T08:21:20Z</time>
      </trkpt>
      <trkpt lat="43.35221" lon="-1.84061">
        <ele>322.66</ele>
        <time>2015-05-24T08:21:32Z</time>
      </trkpt>
      <trkpt lat="43.35196" lon="-1.84089">
        <ele>321.22</ele>
        <time>2015-05-24T08:21:44Z</time>
      </trkpt>
      <trkpt lat="43.35177" lon="-1.84107">
        <ele>320.74</ele>
        <time>2015-05-24T08:21:54Z</time>
      </trkpt>
      <trkpt lat="43.35168" lon="-1.84115">
        <ele>320.74</ele>
        <time>2015-05-24T08:22:04Z</time>
      </trkpt>
      <trkpt lat="43.3516" lon="-1.84121">
        <ele>320.74</ele>
        <time>2015-05-24T08:22:09Z</time>
      </trkpt>
      <trkpt lat="43.35136" lon="-1.84134">
        <ele>320.74</ele>
        <time>2015-05-24T08:22:21Z</time>
      </trkpt>
      <trkpt lat="43.35103" lon="-1.84142">
        <ele>320.74</ele>
        <time>2015-05-24T08:22:33Z</time>
      </trkpt>
      <trkpt lat="43.35067" lon="-1.84153">
        <ele>318.81</ele>
        <time>2015-05-24T08:22:45Z</time>
      </trkpt>
      <trkpt lat="43.35033" lon="-1.84164">
        <ele>318.81</ele>
        <time>2015-05-24T08:22:57Z</time>
      </trkpt>
      <trkpt lat="43.35029" lon="-1.84171">
        <ele>320.26</ele>
        <time>2015-05-24T08:23:00Z</time>
      </trkpt>
      <trkpt lat="43.35016" lon="-1.84202">
        <ele>321.22</ele>
        <time>2015-05-24T08:23:13Z</time>
      </trkpt>
      <trkpt lat="43.35008" lon="-1.8423">
        <ele>323.62</ele>
        <time>2015-05-24T08:23:25Z</time>
      </trkpt>
      <trkpt lat="43.35003" lon="-1.84256">
        <ele>326.02</ele>
        <time>2015-05-24T08:23:37Z</time>
      </trkpt>
      <trkpt lat="43.34999" lon="-1.84264">
        <ele>326.99</ele>
        <time>2015-05-24T08:23:48Z</time>
      </trkpt>
      <trkpt lat="43.34993" lon="-1.84275">
        <ele>328.91</ele>
        <time>2015-05-24T08:24:01Z</time>
      </trkpt>
      <trkpt lat="43.34985" lon="-1.84287">
        <ele>330.83</ele>
        <time>2015-05-24T08:24:16Z</time>
      </trkpt>
      <trkpt lat="43.34986" lon="-1.84292">
        <ele>330.83</ele>
        <time>2015-05-24T08:24:25Z</time>
      </trkpt>
      <trkpt lat="43.34989" lon="-1.84292">
        <ele>330.83</ele>
        <time>2015-05-24T08:24:45Z</time>
      </trkpt>
      <trkpt lat="43.34988" lon="-1.84292">
        <ele>330.83</ele>
        <time>2015-05-24T08:25:19Z</time>
      </trkpt>
      <trkpt lat="43.34988" lon="-1.84293">
        <ele>330.83</ele>
        <time>2015-05-24T08:25:44Z</time>
      </trkpt>
      <trkpt lat="43.3499" lon="-1.84293">
        <ele>330.35</ele>
        <time>2015-05-24T08:26:17Z</time>
      </trkpt>
      <trkpt lat="43.34988" lon="-1.84293">
        <ele>330.35</ele>
        <time>2015-05-24T08:26:47Z</time>
      </trkpt>
      <trkpt lat="43.34986" lon="-1.84292">
        <ele>330.35</ele>
        <time>2015-05-24T08:27:16Z</time>
      </trkpt>
      <trkpt lat="43.34988" lon="-1.84293">
        <ele>330.35</ele>
        <time>2015-05-24T08:27:49Z</time>
      </trkpt>
      <trkpt lat="43.34988" lon="-1.84296">
        <ele>329.87</ele>
        <time>2015-05-24T08:28:19Z</time>
      </trkpt>
      <trkpt lat="43.34984" lon="-1.84299">
        <ele>329.87</ele>
        <time>2015-05-24T08:28:23Z</time>
      </trkpt>
      <trkpt lat="43.34978" lon="-1.84314">
        <ele>330.83</ele>
        <time>2015-05-24T08:28:36Z</time>
      </trkpt>
      <trkpt lat="43.34971" lon="-1.84319">
        <ele>331.31</ele>
        <time>2015-05-24T08:28:49Z</time>
      </trkpt>
      <trkpt lat="43.34955" lon="-1.84338">
        <ele>331.31</ele>
        <time>2015-05-24T08:29:02Z</time>
      </trkpt>
      <trkpt lat="43.34946" lon="-1.84351">
        <ele>332.75</ele>
        <time>2015-05-24T08:29:10Z</time>
      </trkpt>
      <trkpt lat="43.34936" lon="-1.8436">
        <ele>334.2</ele>
        <time>2015-05-24T08:29:23Z</time>
      </trkpt>
      <trkpt lat="43.34933" lon="-1.84358">
        <ele>333.71</ele>
        <time>2015-05-24T08:29:47Z</time>
      </trkpt>
      <trkpt lat="43.34928" lon="-1.84361">
        <ele>333.71</ele>
        <time>2015-05-24T08:29:54Z</time>
      </trkpt>
      <trkpt lat="43.34924" lon="-1.84366">
        <ele>334.2</ele>
        <time>2015-05-24T08:29:58Z</time>
      </trkpt>
      <trkpt lat="43.34906" lon="-1.84389">
        <ele>335.64</ele>
        <time>2015-05-24T08:30:12Z</time>
      </trkpt>
      <trkpt lat="43.34903" lon="-1.84396">
        <ele>335.64</ele>
        <time>2015-05-24T08:30:16Z</time>
      </trkpt>
      <trkpt lat="43.34907" lon="-1.84393">
        <ele>336.12</ele>
        <time>2015-05-24T08:30:28Z</time>
      </trkpt>
      <trkpt lat="43.34915" lon="-1.8438">
        <ele>337.08</ele>
        <time>2015-05-24T08:30:39Z</time>
      </trkpt>
      <trkpt lat="43.34922" lon="-1.84375">
        <ele>338.52</ele>
        <time>2015-05-24T08:30:48Z</time>
      </trkpt>
      <trkpt lat="43.34933" lon="-1.84367">
        <ele>340.44</ele>
        <time>2015-05-24T08:31:02Z</time>
      </trkpt>
      <trkpt lat="43.3494" lon="-1.84364">
        <ele>341.89</ele>
        <time>2015-05-24T08:31:13Z</time>
      </trkpt>
      <trkpt lat="43.34948" lon="-1.8436">
        <ele>344.29</ele>
        <time>2015-05-24T08:31:26Z</time>
      </trkpt>
      <trkpt lat="43.34961" lon="-1.84354">
        <ele>346.21</ele>
        <time>2015-05-24T08:31:43Z</time>
      </trkpt>
      <trkpt lat="43.3497" lon="-1.84349">
        <ele>348.62</ele>
        <time>2015-05-24T08:31:55Z</time>
      </trkpt>
      <trkpt lat="43.34977" lon="-1.84346">
        <ele>349.58</ele>
        <time>2015-05-24T08:32:04Z</time>
      </trkpt>
      <trkpt lat="43.34984" lon="-1.84341">
        <ele>351.02</ele>
        <time>2015-05-24T08:32:15Z</time>
      </trkpt>
      <trkpt lat="43.34995" lon="-1.84338">
        <ele>352.94</ele>
        <time>2015-05-24T08:32:27Z</time>
      </trkpt>
      <trkpt lat="43.35002" lon="-1.84335">
        <ele>354.38</ele>
        <time>2015-05-24T08:32:40Z</time>
      </trkpt>
      <trkpt lat="43.35009" lon="-1.84326">
        <ele>355.34</ele>
        <time>2015-05-24T08:32:54Z</time>
      </trkpt>
      <trkpt lat="43.35017" lon="-1.84314">
        <ele>356.31</ele>
        <time>2015-05-24T08:33:08Z</time>
      </trkpt>
      <trkpt lat="43.35017" lon="-1.84313">
        <ele>356.31</ele>
        <time>2015-05-24T08:33:12Z</time>
      </trkpt>
      <trkpt lat="43.35033" lon="-1.84287">
        <ele>356.79</ele>
        <time>2015-05-24T08:33:28Z</time>
      </trkpt>
      <trkpt lat="43.35049" lon="-1.84263">
        <ele>358.71</ele>
        <time>2015-05-24T08:33:43Z</time>
      </trkpt>
      <trkpt lat="43.35052" lon="-1.84258">
        <ele>359.19</ele>
        <time>2015-05-24T08:33:46Z</time>
      </trkpt>
      <trkpt lat="43.35069" lon="-1.84244">
        <ele>363.04</ele>
        <time>2015-05-24T08:33:57Z</time>
      </trkpt>
      <trkpt lat="43.35073" lon="-1.84243">
        <ele>363.52</ele>
        <time>2015-05-24T08:34:00Z</time>
      </trkpt>
      <trkpt lat="43.35088" lon="-1.84237">
        <ele>365.44</ele>
        <time>2015-05-24T08:34:12Z</time>
      </trkpt>
      <trkpt lat="43.35089" lon="-1.84237">
        <ele>365.44</ele>
        <time>2015-05-24T08:34:14Z</time>
      </trkpt>
      <trkpt lat="43.35097" lon="-1.84239">
        <ele>367.36</ele>
        <time>2015-05-24T08:34:28Z</time>
      </trkpt>
      <trkpt lat="43.35103" lon="-1.84241">
        <ele>369.28</ele>
        <time>2015-05-24T08:34:45Z</time>
      </trkpt>
      <trkpt lat="43.35108" lon="-1.84244">
        <ele>370.24</ele>
        <time>2015-05-24T08:35:00Z</time>
      </trkpt>
      <trkpt lat="43.35112" lon="-1.84246">
        <ele>372.65</ele>
        <time>2015-05-24T08:35:14Z</time>
      </trkpt>
      <trkpt lat="43.35113" lon="-1.84247">
        <ele>372.65</ele>
        <time>2015-05-24T08:35:17Z</time>
      </trkpt>
      <trkpt lat="43.3512" lon="-1.84245">
        <ele>374.09</ele>
        <time>2015-05-24T08:35:29Z</time>
      </trkpt>
      <trkpt lat="43.35121" lon="-1.84246">
        <ele>374.57</ele>
        <time>2015-05-24T08:35:31Z</time>
      </trkpt>
      <trkpt lat="43.35128" lon="-1.84247">
        <ele>375.05</ele>
        <time>2015-05-24T08:35:38Z</time>
      </trkpt>
      <trkpt lat="43.35135" lon="-1.84246">
        <ele>375.05</ele>
        <time>2015-05-24T08:35:45Z</time>
      </trkpt>
      <trkpt lat="43.35146" lon="-1.8425">
        <ele>376.49</ele>
        <time>2015-05-24T08:36:00Z</time>
      </trkpt>
      <trkpt lat="43.3515" lon="-1.84254">
        <ele>378.9</ele>
        <time>2015-05-24T08:36:12Z</time>
      </trkpt>
      <trkpt lat="43.35157" lon="-1.84252">
        <ele>379.86</ele>
        <time>2015-05-24T08:36:24Z</time>
      </trkpt>
      <trkpt lat="43.35173" lon="-1.84244">
        <ele>380.34</ele>
        <time>2015-05-24T08:36:36Z</time>
      </trkpt>
      <trkpt lat="43.3518" lon="-1.8424">
        <ele>381.3</ele>
        <time>2015-05-24T08:36:48Z</time>
      </trkpt>
      <trkpt lat="43.35185" lon="-1.84239">
        <ele>382.74</ele>
        <time>2015-05-24T08:37:03Z</time>
      </trkpt>
      <trkpt lat="43.3519" lon="-1.84239">
        <ele>384.18</ele>
        <time>2015-05-24T08:37:17Z</time>
      </trkpt>
      <trkpt lat="43.35194" lon="-1.84243">
        <ele>387.07</ele>
        <time>2015-05-24T08:37:30Z</time>
      </trkpt>
      <trkpt lat="43.35204" lon="-1.84239">
        <ele>388.03</ele>
        <time>2015-05-24T08:37:44Z</time>
      </trkpt>
      <trkpt lat="43.35216" lon="-1.84233">
        <ele>389.47</ele>
        <time>2015-05-24T08:37:58Z</time>
      </trkpt>
      <trkpt lat="43.35212" lon="-1.84243">
        <ele>391.39</ele>
        <time>2015-05-24T08:38:11Z</time>
      </trkpt>
      <trkpt lat="43.35211" lon="-1.84248">
        <ele>391.87</ele>
        <time>2015-05-24T08:38:17Z</time>
      </trkpt>
      <trkpt lat="43.35207" lon="-1.8426">
        <ele>392.84</ele>
        <time>2015-05-24T08:38:26Z</time>
      </trkpt>
      <trkpt lat="43.35199" lon="-1.84276">
        <ele>394.76</ele>
        <time>2015-05-24T08:38:42Z</time>
      </trkpt>
      <trkpt lat="43.3519" lon="-1.84287">
        <ele>397.64</ele>
        <time>2015-05-24T08:38:58Z</time>
      </trkpt>
      <trkpt lat="43.35181" lon="-1.84294">
        <ele>400.05</ele>
        <time>2015-05-24T08:39:12Z</time>
      </trkpt>
      <trkpt lat="43.35185" lon="-1.84303">
        <ele>401.01</ele>
        <time>2015-05-24T08:39:24Z</time>
      </trkpt>
      <trkpt lat="43.3519" lon="-1.84303">
        <ele>401.97</ele>
        <time>2015-05-24T08:39:32Z</time>
      </trkpt>
      <trkpt lat="43.35197" lon="-1.84305">
        <ele>402.45</ele>
        <time>2015-05-24T08:39:45Z</time>
      </trkpt>
      <trkpt lat="43.35198" lon="-1.84305">
        <ele>402.45</ele>
        <time>2015-05-24T08:39:46Z</time>
      </trkpt>
      <trkpt lat="43.35217" lon="-1.84298">
        <ele>402.45</ele>
        <time>2015-05-24T08:39:58Z</time>
      </trkpt>
      <trkpt lat="43.35223" lon="-1.84304">
        <ele>402.45</ele>
        <time>2015-05-24T08:40:04Z</time>
      </trkpt>
      <trkpt lat="43.35225" lon="-1.84314">
        <ele>402.45</ele>
        <time>2015-05-24T08:40:15Z</time>
      </trkpt>
      <trkpt lat="43.35224" lon="-1.84314">
        <ele>403.41</ele>
        <time>2015-05-24T08:40:18Z</time>
      </trkpt>
      <trkpt lat="43.35211" lon="-1.84319">
        <ele>403.41</ele>
        <time>2015-05-24T08:40:28Z</time>
      </trkpt>
      <trkpt lat="43.35205" lon="-1.84323">
        <ele>403.89</ele>
        <time>2015-05-24T08:40:33Z</time>
      </trkpt>
      <trkpt lat="43.35193" lon="-1.84338">
        <ele>405.81</ele>
        <time>2015-05-24T08:40:45Z</time>
      </trkpt>
      <trkpt lat="43.35187" lon="-1.84345">
        <ele>407.26</ele>
        <time>2015-05-24T08:40:51Z</time>
      </trkpt>
      <trkpt lat="43.35178" lon="-1.84356">
        <ele>409.18</ele>
        <time>2015-05-24T08:41:02Z</time>
      </trkpt>
      <trkpt lat="43.35173" lon="-1.84357">
        <ele>410.62</ele>
        <time>2015-05-24T08:41:06Z</time>
      </trkpt>
      <trkpt lat="43.35168" lon="-1.8436">
        <ele>411.58</ele>
        <time>2015-05-24T08:41:11Z</time>
      </trkpt>
      <trkpt lat="43.35156" lon="-1.84368">
        <ele>414.95</ele>
        <time>2015-05-24T08:41:25Z</time>
      </trkpt>
      <trkpt lat="43.35152" lon="-1.84369">
        <ele>414.95</ele>
        <time>2015-05-24T08:41:37Z</time>
      </trkpt>
      <trkpt lat="43.35141" lon="-1.84377">
        <ele>416.87</ele>
        <time>2015-05-24T08:41:51Z</time>
      </trkpt>
      <trkpt lat="43.35129" lon="-1.84384">
        <ele>418.79</ele>
        <time>2015-05-24T08:42:07Z</time>
      </trkpt>
      <trkpt lat="43.35129" lon="-1.84385">
        <ele>418.79</ele>
        <time>2015-05-24T08:42:08Z</time>
      </trkpt>
      <trkpt lat="43.35115" lon="-1.84392">
        <ele>420.71</ele>
        <time>2015-05-24T08:42:24Z</time>
      </trkpt>
      <trkpt lat="43.35113" lon="-1.84393">
        <ele>421.19</ele>
        <time>2015-05-24T08:42:26Z</time>
      </trkpt>
      <trkpt lat="43.35099" lon="-1.84405">
        <ele>422.64</ele>
        <time>2015-05-24T08:42:44Z</time>
      </trkpt>
      <trkpt lat="43.35098" lon="-1.84406">
        <ele>423.12</ele>
        <time>2015-05-24T08:43:03Z</time>
      </trkpt>
      <trkpt lat="43.35097" lon="-1.84405">
        <ele>423.12</ele>
        <time>2015-05-24T08:43:23Z</time>
      </trkpt>
      <trkpt lat="43.35091" lon="-1.84411">
        <ele>423.12</ele>
        <time>2015-05-24T08:43:41Z</time>
      </trkpt>
      <trkpt lat="43.35071" lon="-1.84429">
        <ele>423.6</ele>
        <time>2015-05-24T08:43:56Z</time>
      </trkpt>
      <trkpt lat="43.35052" lon="-1.84455">
        <ele>425.52</ele>
        <time>2015-05-24T08:44:12Z</time>
      </trkpt>
      <trkpt lat="43.35039" lon="-1.84479">
        <ele>427.92</ele>
        <time>2015-05-24T08:44:27Z</time>
      </trkpt>
      <trkpt lat="43.35032" lon="-1.8449">
        <ele>429.85</ele>
        <time>2015-05-24T08:44:35Z</time>
      </trkpt>
      <trkpt lat="43.35026" lon="-1.84503">
        <ele>430.33</ele>
        <time>2015-05-24T08:44:44Z</time>
      </trkpt>
      <trkpt lat="43.35023" lon="-1.84511">
        <ele>430.81</ele>
        <time>2015-05-24T08:44:48Z</time>
      </trkpt>
      <trkpt lat="43.35006" lon="-1.84548">
        <ele>430.81</ele>
        <time>2015-05-24T08:45:03Z</time>
      </trkpt>
      <trkpt lat="43.34988" lon="-1.84587">
        <ele>430.81</ele>
        <time>2015-05-24T08:45:19Z</time>
      </trkpt>
      <trkpt lat="43.34976" lon="-1.84631">
        <ele>431.29</ele>
        <time>2015-05-24T08:45:35Z</time>
      </trkpt>
      <trkpt lat="43.34964" lon="-1.84665">
        <ele>433.21</ele>
        <time>2015-05-24T08:45:49Z</time>
      </trkpt>
      <trkpt lat="43.34958" lon="-1.84683">
        <ele>435.13</ele>
        <time>2015-05-24T08:45:59Z</time>
      </trkpt>
      <trkpt lat="43.34954" lon="-1.84691">
        <ele>436.1</ele>
        <time>2015-05-24T08:46:04Z</time>
      </trkpt>
      <trkpt lat="43.34938" lon="-1.84709">
        <ele>438.5</ele>
        <time>2015-05-24T08:46:19Z</time>
      </trkpt>
      <trkpt lat="43.34922" lon="-1.84732">
        <ele>440.9</ele>
        <time>2015-05-24T08:46:36Z</time>
      </trkpt>
      <trkpt lat="43.34918" lon="-1.84748">
        <ele>443.31</ele>
        <time>2015-05-24T08:46:50Z</time>
      </trkpt>
      <trkpt lat="43.34915" lon="-1.84761">
        <ele>446.67</ele>
        <time>2015-05-24T08:47:05Z</time>
      </trkpt>
      <trkpt lat="43.34912" lon="-1.84775">
        <ele>449.07</ele>
        <time>2015-05-24T08:47:21Z</time>
      </trkpt>
      <trkpt lat="43.34907" lon="-1.84787">
        <ele>451.96</ele>
        <time>2015-05-24T08:47:36Z</time>
      </trkpt>
      <trkpt lat="43.34902" lon="-1.84798">
        <ele>453.88</ele>
        <time>2015-05-24T08:47:51Z</time>
      </trkpt>
      <trkpt lat="43.34896" lon="-1.8481">
        <ele>457.24</ele>
        <time>2015-05-24T08:48:07Z</time>
      </trkpt>
      <trkpt lat="43.34887" lon="-1.84819">
        <ele>459.17</ele>
        <time>2015-05-24T08:48:23Z</time>
      </trkpt>
      <trkpt lat="43.34879" lon="-1.84827">
        <ele>461.09</ele>
        <time>2015-05-24T08:48:38Z</time>
      </trkpt>
      <trkpt lat="43.34872" lon="-1.8484">
        <ele>463.49</ele>
        <time>2015-05-24T08:48:53Z</time>
      </trkpt>
      <trkpt lat="43.34866" lon="-1.84851">
        <ele>464.93</ele>
        <time>2015-05-24T08:49:07Z</time>
      </trkpt>
      <trkpt lat="43.34861" lon="-1.84864">
        <ele>468.3</ele>
        <time>2015-05-24T08:49:22Z</time>
      </trkpt>
      <trkpt lat="43.34857" lon="-1.84878">
        <ele>470.22</ele>
        <time>2015-05-24T08:49:38Z</time>
      </trkpt>
      <trkpt lat="43.34854" lon="-1.84889">
        <ele>472.63</ele>
        <time>2015-05-24T08:49:52Z</time>
      </trkpt>
      <trkpt lat="43.3485" lon="-1.84896">
        <ele>474.55</ele>
        <time>2015-05-24T08:50:07Z</time>
      </trkpt>
      <trkpt lat="43.34845" lon="-1.84907">
        <ele>476.47</ele>
        <time>2015-05-24T08:50:23Z</time>
      </trkpt>
      <trkpt lat="43.34841" lon="-1.84918">
        <ele>479.35</ele>
        <time>2015-05-24T08:50:37Z</time>
      </trkpt>
      <trkpt lat="43.34837" lon="-1.84926">
        <ele>482.24</ele>
        <time>2015-05-24T08:50:51Z</time>
      </trkpt>
      <trkpt lat="43.34831" lon="-1.84935">
        <ele>483.68</ele>
        <time>2015-05-24T08:51:06Z</time>
      </trkpt>
      <trkpt lat="43.34824" lon="-1.84943">
        <ele>485.6</ele>
        <time>2015-05-24T08:51:20Z</time>
      </trkpt>
      <trkpt lat="43.34816" lon="-1.84954">
        <ele>488.97</ele>
        <time>2015-05-24T08:51:36Z</time>
      </trkpt>
      <trkpt lat="43.34808" lon="-1.84964">
        <ele>490.89</ele>
        <time>2015-05-24T08:51:52Z</time>
      </trkpt>
      <trkpt lat="43.34804" lon="-1.84979">
        <ele>493.77</ele>
        <time>2015-05-24T08:52:08Z</time>
      </trkpt>
      <trkpt lat="43.34803" lon="-1.84991">
        <ele>496.18</ele>
        <time>2015-05-24T08:52:23Z</time>
      </trkpt>
      <trkpt lat="43.34806" lon="-1.84998">
        <ele>498.1</ele>
        <time>2015-05-24T08:52:37Z</time>
      </trkpt>
      <trkpt lat="43.34808" lon="-1.85002">
        <ele>499.06</ele>
        <time>2015-05-24T08:52:51Z</time>
      </trkpt>
      <trkpt lat="43.34809" lon="-1.85008">
        <ele>501.46</ele>
        <time>2015-05-24T08:53:03Z</time>
      </trkpt>
      <trkpt lat="43.34812" lon="-1.85012">
        <ele>502.91</ele>
        <time>2015-05-24T08:53:16Z</time>
      </trkpt>
      <trkpt lat="43.34813" lon="-1.85015">
        <ele>503.87</ele>
        <time>2015-05-24T08:53:26Z</time>
      </trkpt>
      <trkpt lat="43.34813" lon="-1.85015">
        <ele>503.87</ele>
        <time>2015-05-24T08:53:30Z</time>
      </trkpt>
      <trkpt lat="43.3482" lon="-1.85019">
        <ele>504.83</ele>
        <time>2015-05-24T08:53:43Z</time>
      </trkpt>
      <trkpt lat="43.34827" lon="-1.85022">
        <ele>505.79</ele>
        <time>2015-05-24T08:53:57Z</time>
      </trkpt>
      <trkpt lat="43.3483" lon="-1.85027">
        <ele>506.27</ele>
        <time>2015-05-24T08:54:08Z</time>
      </trkpt>
      <trkpt lat="43.34832" lon="-1.8503">
        <ele>507.71</ele>
        <time>2015-05-24T08:54:21Z</time>
      </trkpt>
      <trkpt lat="43.34827" lon="-1.85035">
        <ele>510.12</ele>
        <time>2015-05-24T08:54:34Z</time>
      </trkpt>
      <trkpt lat="43.34826" lon="-1.85036">
        <ele>510.12</ele>
        <time>2015-05-24T08:54:37Z</time>
      </trkpt>
      <trkpt lat="43.34819" lon="-1.85049">
        <ele>511.56</ele>
        <time>2015-05-24T08:54:52Z</time>
      </trkpt>
      <trkpt lat="43.34814" lon="-1.85059">
        <ele>513.48</ele>
        <time>2015-05-24T08:55:06Z</time>
      </trkpt>
      <trkpt lat="43.34813" lon="-1.85062">
        <ele>513.96</ele>
        <time>2015-05-24T08:55:09Z</time>
      </trkpt>
      <trkpt lat="43.34805" lon="-1.85074">
        <ele>515.4</ele>
        <time>2015-05-24T08:55:24Z</time>
      </trkpt>
      <trkpt lat="43.34801" lon="-1.85082">
        <ele>516.37</ele>
        <time>2015-05-24T08:55:35Z</time>
      </trkpt>
      <trkpt lat="43.34797" lon="-1.85094">
        <ele>516.37</ele>
        <time>2015-05-24T08:55:44Z</time>
      </trkpt>
      <trkpt lat="43.3479" lon="-1.85102">
        <ele>517.33</ele>
        <time>2015-05-24T08:55:53Z</time>
      </trkpt>
      <trkpt lat="43.34791" lon="-1.85107">
        <ele>517.33</ele>
        <time>2015-05-24T08:55:57Z</time>
      </trkpt>
      <trkpt lat="43.34788" lon="-1.85123">
        <ele>518.77</ele>
        <time>2015-05-24T08:56:12Z</time>
      </trkpt>
      <trkpt lat="43.34785" lon="-1.85139">
        <ele>518.77</ele>
        <time>2015-05-24T08:56:24Z</time>
      </trkpt>
      <trkpt lat="43.34784" lon="-1.85148">
        <ele>519.25</ele>
        <time>2015-05-24T08:56:37Z</time>
      </trkpt>
      <trkpt lat="43.34766" lon="-1.85183">
        <ele>521.17</ele>
        <time>2015-05-24T08:56:56Z</time>
      </trkpt>
      <trkpt lat="43.34751" lon="-1.85201">
        <ele>524.06</ele>
        <time>2015-05-24T08:57:11Z</time>
      </trkpt>
      <trkpt lat="43.34744" lon="-1.85207">
        <ele>525.5</ele>
        <time>2015-05-24T08:57:22Z</time>
      </trkpt>
      <trkpt lat="43.34734" lon="-1.8522">
        <ele>526.94</ele>
        <time>2015-05-24T08:57:37Z</time>
      </trkpt>
      <trkpt lat="43.34729" lon="-1.85234">
        <ele>527.42</ele>
        <time>2015-05-24T08:57:49Z</time>
      </trkpt>
      <trkpt lat="43.34718" lon="-1.85249">
        <ele>527.42</ele>
        <time>2015-05-24T08:58:04Z</time>
      </trkpt>
      <trkpt lat="43.34716" lon="-1.85254">
        <ele>525.98</ele>
        <time>2015-05-24T08:58:09Z</time>
      </trkpt>
      <trkpt lat="43.34705" lon="-1.85272">
        <ele>525.98</ele>
        <time>2015-05-24T08:58:22Z</time>
      </trkpt>
      <trkpt lat="43.34686" lon="-1.85301">
        <ele>525.98</ele>
        <time>2015-05-24T08:58:39Z</time>
      </trkpt>
      <trkpt lat="43.34685" lon="-1.85303">
        <ele>527.42</ele>
        <time>2015-05-24T08:58:45Z</time>
      </trkpt>
      <trkpt lat="43.3468" lon="-1.85306">
        <ele>528.38</ele>
        <time>2015-05-24T08:58:51Z</time>
      </trkpt>
      <trkpt lat="43.34674" lon="-1.85316">
        <ele>528.38</ele>
        <time>2015-05-24T08:59:01Z</time>
      </trkpt>
      <trkpt lat="43.34666" lon="-1.85332">
        <ele>528.86</ele>
        <time>2015-05-24T08:59:15Z</time>
      </trkpt>
      <trkpt lat="43.34664" lon="-1.85335">
        <ele>528.86</ele>
        <time>2015-05-24T08:59:18Z</time>
      </trkpt>
      <trkpt lat="43.34663" lon="-1.85341">
        <ele>528.86</ele>
        <time>2015-05-24T08:59:22Z</time>
      </trkpt>
      <trkpt lat="43.34661" lon="-1.85345">
        <ele>528.86</ele>
        <time>2015-05-24T08:59:25Z</time>
      </trkpt>
      <trkpt lat="43.34651" lon="-1.85364">
        <ele>528.86</ele>
        <time>2015-05-24T08:59:43Z</time>
      </trkpt>
      <trkpt lat="43.3465" lon="-1.8537">
        <ele>527.42</ele>
        <time>2015-05-24T08:59:50Z</time>
      </trkpt>
      <trkpt lat="43.34646" lon="-1.85376">
        <ele>527.42</ele>
        <time>2015-05-24T08:59:56Z</time>
      </trkpt>
      <trkpt lat="43.34643" lon="-1.85378">
        <ele>528.86</ele>
        <time>2015-05-24T09:00:00Z</time>
      </trkpt>
      <trkpt lat="43.34643" lon="-1.85379">
        <ele>528.86</ele>
        <time>2015-05-24T09:00:01Z</time>
      </trkpt>
      <trkpt lat="43.34642" lon="-1.85384">
        <ele>528.86</ele>
        <time>2015-05-24T09:00:05Z</time>
      </trkpt>
      <trkpt lat="43.34637" lon="-1.85393">
        <ele>529.82</ele>
        <time>2015-05-24T09:00:17Z</time>
      </trkpt>
      <trkpt lat="43.34633" lon="-1.85403">
        <ele>530.79</ele>
        <time>2015-05-24T09:00:29Z</time>
      </trkpt>
      <trkpt lat="43.34631" lon="-1.85412">
        <ele>530.79</ele>
        <time>2015-05-24T09:00:39Z</time>
      </trkpt>
      <trkpt lat="43.34625" lon="-1.85424">
        <ele>532.23</ele>
        <time>2015-05-24T09:00:52Z</time>
      </trkpt>
      <trkpt lat="43.34625" lon="-1.85428">
        <ele>532.23</ele>
        <time>2015-05-24T09:00:55Z</time>
      </trkpt>
      <trkpt lat="43.34616" lon="-1.85443">
        <ele>534.15</ele>
        <time>2015-05-24T09:01:12Z</time>
      </trkpt>
      <trkpt lat="43.34611" lon="-1.85451">
        <ele>535.59</ele>
        <time>2015-05-24T09:01:25Z</time>
      </trkpt>
      <trkpt lat="43.34609" lon="-1.85455">
        <ele>536.55</ele>
        <time>2015-05-24T09:01:34Z</time>
      </trkpt>
      <trkpt lat="43.34602" lon="-1.8547">
        <ele>536.55</ele>
        <time>2015-05-24T09:01:50Z</time>
      </trkpt>
      <trkpt lat="43.34597" lon="-1.8548">
        <ele>536.55</ele>
        <time>2015-05-24T09:02:02Z</time>
      </trkpt>
      <trkpt lat="43.34592" lon="-1.85489">
        <ele>537.03</ele>
        <time>2015-05-24T09:02:12Z</time>
      </trkpt>
      <trkpt lat="43.34588" lon="-1.85506">
        <ele>535.59</ele>
        <time>2015-05-24T09:02:26Z</time>
      </trkpt>
      <trkpt lat="43.34584" lon="-1.85516">
        <ele>535.59</ele>
        <time>2015-05-24T09:02:39Z</time>
      </trkpt>
      <trkpt lat="43.34574" lon="-1.85537">
        <ele>535.59</ele>
        <time>2015-05-24T09:02:52Z</time>
      </trkpt>
      <trkpt lat="43.34565" lon="-1.85544">
        <ele>537.51</ele>
        <time>2015-05-24T09:02:58Z</time>
      </trkpt>
      <trkpt lat="43.34553" lon="-1.85559">
        <ele>539.44</ele>
        <time>2015-05-24T09:03:10Z</time>
      </trkpt>
      <trkpt lat="43.3455" lon="-1.85564">
        <ele>539.92</ele>
        <time>2015-05-24T09:03:13Z</time>
      </trkpt>
      <trkpt lat="43.34545" lon="-1.85575">
        <ele>541.36</ele>
        <time>2015-05-24T09:03:19Z</time>
      </trkpt>
      <trkpt lat="43.34542" lon="-1.85579">
        <ele>542.32</ele>
        <time>2015-05-24T09:03:22Z</time>
      </trkpt>
      <trkpt lat="43.34536" lon="-1.8558">
        <ele>542.32</ele>
        <time>2015-05-24T09:03:30Z</time>
      </trkpt>
      <trkpt lat="43.34531" lon="-1.85587">
        <ele>542.32</ele>
        <time>2015-05-24T09:03:38Z</time>
      </trkpt>
      <trkpt lat="43.34529" lon="-1.85596">
        <ele>542.8</ele>
        <time>2015-05-24T09:03:53Z</time>
      </trkpt>
      <trkpt lat="43.34529" lon="-1.85596">
        <ele>542.8</ele>
        <time>2015-05-24T09:04:25Z</time>
      </trkpt>
      <trkpt lat="43.3453" lon="-1.85596">
        <ele>542.8</ele>
        <time>2015-05-24T09:05:07Z</time>
      </trkpt>
      <trkpt lat="43.34531" lon="-1.85595">
        <ele>543.76</ele>
        <time>2015-05-24T09:05:16Z</time>
      </trkpt>
      <trkpt lat="43.34532" lon="-1.85595">
        <ele>543.76</ele>
        <time>2015-05-24T09:05:30Z</time>
      </trkpt>
      <trkpt lat="43.34532" lon="-1.85594">
        <ele>543.76</ele>
        <time>2015-05-24T09:05:57Z</time>
      </trkpt>
      <trkpt lat="43.34531" lon="-1.85593">
        <ele>543.76</ele>
        <time>2015-05-24T09:06:43Z</time>
      </trkpt>
      <trkpt lat="43.3453" lon="-1.85595">
        <ele>543.76</ele>
        <time>2015-05-24T09:07:10Z</time>
      </trkpt>
      <trkpt lat="43.34525" lon="-1.85598">
        <ele>543.76</ele>
        <time>2015-05-24T09:07:16Z</time>
      </trkpt>
      <trkpt lat="43.34515" lon="-1.85617">
        <ele>542.8</ele>
        <time>2015-05-24T09:07:32Z</time>
      </trkpt>
      <trkpt lat="43.34512" lon="-1.85636">
        <ele>541.36</ele>
        <time>2015-05-24T09:07:44Z</time>
      </trkpt>
      <trkpt lat="43.34511" lon="-1.85642">
        <ele>541.36</ele>
        <time>2015-05-24T09:07:48Z</time>
      </trkpt>
      <trkpt lat="43.34507" lon="-1.85663">
        <ele>540.88</ele>
        <time>2015-05-24T09:08:03Z</time>
      </trkpt>
      <trkpt lat="43.34508" lon="-1.85664">
        <ele>540.88</ele>
        <time>2015-05-24T09:08:17Z</time>
      </trkpt>
      <trkpt lat="43.34509" lon="-1.85664">
        <ele>540.88</ele>
        <time>2015-05-24T09:08:18Z</time>
      </trkpt>
      <trkpt lat="43.34519" lon="-1.85668">
        <ele>540.4</ele>
        <time>2015-05-24T09:08:29Z</time>
      </trkpt>
      <trkpt lat="43.34518" lon="-1.85669">
        <ele>540.4</ele>
        <time>2015-05-24T09:08:34Z</time>
      </trkpt>
      <trkpt lat="43.34517" lon="-1.85666">
        <ele>542.32</ele>
        <time>2015-05-24T09:08:37Z</time>
      </trkpt>
      <trkpt lat="43.34517" lon="-1.85663">
        <ele>542.32</ele>
        <time>2015-05-24T09:08:39Z</time>
      </trkpt>
      <trkpt lat="43.34512" lon="-1.8566">
        <ele>540.88</ele>
        <time>2015-05-24T09:08:43Z</time>
      </trkpt>
      <trkpt lat="43.3451" lon="-1.8566">
        <ele>540.88</ele>
        <time>2015-05-24T09:08:45Z</time>
      </trkpt>
      <trkpt lat="43.34503" lon="-1.85663">
        <ele>540.4</ele>
        <time>2015-05-24T09:08:57Z</time>
      </trkpt>
      <trkpt lat="43.34502" lon="-1.8567">
        <ele>539.44</ele>
        <time>2015-05-24T09:09:10Z</time>
      </trkpt>
      <trkpt lat="43.34503" lon="-1.8567">
        <ele>540.4</ele>
        <time>2015-05-24T09:09:13Z</time>
      </trkpt>
      <trkpt lat="43.34502" lon="-1.85671">
        <ele>538.48</ele>
        <time>2015-05-24T09:09:16Z</time>
      </trkpt>
      <trkpt lat="43.345" lon="-1.85671">
        <ele>537.99</ele>
        <time>2015-05-24T09:09:32Z</time>
      </trkpt>
      <trkpt lat="43.345" lon="-1.85675">
        <ele>537.99</ele>
        <time>2015-05-24T09:09:57Z</time>
      </trkpt>
      <trkpt lat="43.34506" lon="-1.85677">
        <ele>537.99</ele>
        <time>2015-05-24T09:10:08Z</time>
      </trkpt>
      <trkpt lat="43.34514" lon="-1.85678">
        <ele>537.99</ele>
        <time>2015-05-24T09:10:14Z</time>
      </trkpt>
      <trkpt lat="43.34531" lon="-1.85673">
        <ele>534.63</ele>
        <time>2015-05-24T09:10:20Z</time>
      </trkpt>
      <trkpt lat="43.34535" lon="-1.85672">
        <ele>534.63</ele>
        <time>2015-05-24T09:10:21Z</time>
      </trkpt>
      <trkpt lat="43.34538" lon="-1.85671">
        <ele>534.15</ele>
        <time>2015-05-24T09:10:22Z</time>
      </trkpt>
      <trkpt lat="43.34543" lon="-1.85671">
        <ele>533.19</ele>
        <time>2015-05-24T09:10:24Z</time>
      </trkpt>
      <trkpt lat="43.34552" lon="-1.85684">
        <ele>530.3</ele>
        <time>2015-05-24T09:10:29Z</time>
      </trkpt>
      <trkpt lat="43.34556" lon="-1.85697">
        <ele>527.9</ele>
        <time>2015-05-24T09:10:33Z</time>
      </trkpt>
      <trkpt lat="43.34558" lon="-1.85697">
        <ele>527.9</ele>
        <time>2015-05-24T09:10:45Z</time>
      </trkpt>
      <trkpt lat="43.34571" lon="-1.85697">
        <ele>525.98</ele>
        <time>2015-05-24T09:10:53Z</time>
      </trkpt>
      <trkpt lat="43.34569" lon="-1.85705">
        <ele>525.98</ele>
        <time>2015-05-24T09:10:56Z</time>
      </trkpt>
      <trkpt lat="43.34563" lon="-1.85751">
        <ele>522.61</ele>
        <time>2015-05-24T09:11:05Z</time>
      </trkpt>
      <trkpt lat="43.3456" lon="-1.85765">
        <ele>521.65</ele>
        <time>2015-05-24T09:11:07Z</time>
      </trkpt>
      <trkpt lat="43.34536" lon="-1.85793">
        <ele>519.25</ele>
        <time>2015-05-24T09:11:13Z</time>
      </trkpt>
      <trkpt lat="43.34518" lon="-1.85801">
        <ele>518.29</ele>
        <time>2015-05-24T09:11:16Z</time>
      </trkpt>
      <trkpt lat="43.34505" lon="-1.85807">
        <ele>517.33</ele>
        <time>2015-05-24T09:11:18Z</time>
      </trkpt>
      <trkpt lat="43.34435" lon="-1.85803">
        <ele>516.85</ele>
        <time>2015-05-24T09:11:30Z</time>
      </trkpt>
      <trkpt lat="43.34422" lon="-1.85802">
        <ele>518.29</ele>
        <time>2015-05-24T09:11:33Z</time>
      </trkpt>
      <trkpt lat="43.3438" lon="-1.85799">
        <ele>518.29</ele>
        <time>2015-05-24T09:11:42Z</time>
      </trkpt>
      <trkpt lat="43.34356" lon="-1.85808">
        <ele>518.29</ele>
        <time>2015-05-24T09:11:47Z</time>
      </trkpt>
      <trkpt lat="43.34335" lon="-1.8583">
        <ele>518.29</ele>
        <time>2015-05-24T09:11:53Z</time>
      </trkpt>
      <trkpt lat="43.34297" lon="-1.85901">
        <ele>518.77</ele>
        <time>2015-05-24T09:12:09Z</time>
      </trkpt>
      <trkpt lat="43.34292" lon="-1.85931">
        <ele>519.73</ele>
        <time>2015-05-24T09:12:19Z</time>
      </trkpt>
      <trkpt lat="43.34292" lon="-1.85932">
        <ele>519.73</ele>
        <time>2015-05-24T09:12:21Z</time>
      </trkpt>
      <trkpt lat="43.34294" lon="-1.85934">
        <ele>518.29</ele>
        <time>2015-05-24T09:12:25Z</time>
      </trkpt>
      <trkpt lat="43.34293" lon="-1.85935">
        <ele>517.81</ele>
        <time>2015-05-24T09:12:48Z</time>
      </trkpt>
      <trkpt lat="43.34295" lon="-1.85935">
        <ele>516.85</ele>
        <time>2015-05-24T09:13:07Z</time>
      </trkpt>
      <trkpt lat="43.34295" lon="-1.85936">
        <ele>515.88</ele>
        <time>2015-05-24T09:13:20Z</time>
      </trkpt>
      <trkpt lat="43.34297" lon="-1.85943">
        <ele>513.96</ele>
        <time>2015-05-24T09:13:36Z</time>
      </trkpt>
      <trkpt lat="43.34295" lon="-1.85946">
        <ele>513.48</ele>
        <time>2015-05-24T09:13:52Z</time>
      </trkpt>
      <trkpt lat="43.34295" lon="-1.85951">
        <ele>512.04</ele>
        <time>2015-05-24T09:14:07Z</time>
      </trkpt>
      <trkpt lat="43.34295" lon="-1.85956">
        <ele>512.04</ele>
        <time>2015-05-24T09:14:14Z</time>
      </trkpt>
      <trkpt lat="43.34289" lon="-1.85974">
        <ele>511.08</ele>
        <time>2015-05-24T09:14:27Z</time>
      </trkpt>
      <trkpt lat="43.34285" lon="-1.85988">
        <ele>510.6</ele>
        <time>2015-05-24T09:14:40Z</time>
      </trkpt>
      <trkpt lat="43.34284" lon="-1.8599">
        <ele>510.6</ele>
        <time>2015-05-24T09:14:52Z</time>
      </trkpt>
      <trkpt lat="43.34281" lon="-1.85996">
        <ele>510.12</ele>
        <time>2015-05-24T09:15:07Z</time>
      </trkpt>
      <trkpt lat="43.34278" lon="-1.86001">
        <ele>509.16</ele>
        <time>2015-05-24T09:15:19Z</time>
      </trkpt>
      <trkpt lat="43.34276" lon="-1.8601">
        <ele>508.67</ele>
        <time>2015-05-24T09:15:25Z</time>
      </trkpt>
      <trkpt lat="43.34275" lon="-1.86013">
        <ele>508.67</ele>
        <time>2015-05-24T09:15:27Z</time>
      </trkpt>
      <trkpt lat="43.34269" lon="-1.86033">
        <ele>507.71</ele>
        <time>2015-05-24T09:15:40Z</time>
      </trkpt>
      <trkpt lat="43.34268" lon="-1.86045">
        <ele>507.23</ele>
        <time>2015-05-24T09:15:53Z</time>
      </trkpt>
      <trkpt lat="43.34265" lon="-1.8605">
        <ele>506.75</ele>
        <time>2015-05-24T09:16:03Z</time>
      </trkpt>
      <trkpt lat="43.34266" lon="-1.86051">
        <ele>506.75</ele>
        <time>2015-05-24T09:16:05Z</time>
      </trkpt>
      <trkpt lat="43.34264" lon="-1.86058">
        <ele>506.27</ele>
        <time>2015-05-24T09:16:11Z</time>
      </trkpt>
      <trkpt lat="43.34261" lon="-1.86062">
        <ele>506.27</ele>
        <time>2015-05-24T09:16:24Z</time>
      </trkpt>
      <trkpt lat="43.34259" lon="-1.86068">
        <ele>505.79</ele>
        <time>2015-05-24T09:16:36Z</time>
      </trkpt>
      <trkpt lat="43.34257" lon="-1.86075">
        <ele>505.79</ele>
        <time>2015-05-24T09:16:46Z</time>
      </trkpt>
      <trkpt lat="43.34257" lon="-1.86076">
        <ele>505.79</ele>
        <time>2015-05-24T09:16:47Z</time>
      </trkpt>
      <trkpt lat="43.34254" lon="-1.86089">
        <ele>505.31</ele>
        <time>2015-05-24T09:16:56Z</time>
      </trkpt>
      <trkpt lat="43.34244" lon="-1.86109">
        <ele>504.83</ele>
        <time>2015-05-24T09:17:12Z</time>
      </trkpt>
      <trkpt lat="43.34242" lon="-1.86112">
        <ele>504.83</ele>
        <time>2015-05-24T09:17:14Z</time>
      </trkpt>
      <trkpt lat="43.34235" lon="-1.86123">
        <ele>504.83</ele>
        <time>2015-05-24T09:17:25Z</time>
      </trkpt>
      <trkpt lat="43.34234" lon="-1.86126">
        <ele>504.83</ele>
        <time>2015-05-24T09:17:27Z</time>
      </trkpt>
      <trkpt lat="43.34234" lon="-1.86128">
        <ele>504.35</ele>
        <time>2015-05-24T09:17:29Z</time>
      </trkpt>
      <trkpt lat="43.34231" lon="-1.86135">
        <ele>504.35</ele>
        <time>2015-05-24T09:17:34Z</time>
      </trkpt>
      <trkpt lat="43.34231" lon="-1.86138">
        <ele>504.35</ele>
        <time>2015-05-24T09:17:36Z</time>
      </trkpt>
      <trkpt lat="43.3423" lon="-1.86141">
        <ele>503.39</ele>
        <time>2015-05-24T09:17:38Z</time>
      </trkpt>
      <trkpt lat="43.34228" lon="-1.86147">
        <ele>503.39</ele>
        <time>2015-05-24T09:17:43Z</time>
      </trkpt>
      <trkpt lat="43.34226" lon="-1.86153">
        <ele>501.95</ele>
        <time>2015-05-24T09:17:48Z</time>
      </trkpt>
      <trkpt lat="43.34224" lon="-1.86156">
        <ele>501.95</ele>
        <time>2015-05-24T09:17:51Z</time>
      </trkpt>
      <trkpt lat="43.3422" lon="-1.86166">
        <ele>500.5</ele>
        <time>2015-05-24T09:18:04Z</time>
      </trkpt>
      <trkpt lat="43.34217" lon="-1.86175">
        <ele>499.54</ele>
        <time>2015-05-24T09:18:07Z</time>
      </trkpt>
      <trkpt lat="43.34216" lon="-1.86183">
        <ele>497.14</ele>
        <time>2015-05-24T09:18:10Z</time>
      </trkpt>
      <trkpt lat="43.34213" lon="-1.86196">
        <ele>495.7</ele>
        <time>2015-05-24T09:18:15Z</time>
      </trkpt>
      <trkpt lat="43.3421" lon="-1.86214">
        <ele>492.81</ele>
        <time>2015-05-24T09:18:21Z</time>
      </trkpt>
      <trkpt lat="43.34207" lon="-1.86226">
        <ele>490.89</ele>
        <time>2015-05-24T09:18:26Z</time>
      </trkpt>
      <trkpt lat="43.34206" lon="-1.86231">
        <ele>490.41</ele>
        <time>2015-05-24T09:18:28Z</time>
      </trkpt>
      <trkpt lat="43.342" lon="-1.86245">
        <ele>488.97</ele>
        <time>2015-05-24T09:18:41Z</time>
      </trkpt>
      <trkpt lat="43.3419" lon="-1.86254">
        <ele>490.41</ele>
        <time>2015-05-24T09:18:54Z</time>
      </trkpt>
      <trkpt lat="43.34189" lon="-1.86258">
        <ele>490.41</ele>
        <time>2015-05-24T09:18:57Z</time>
      </trkpt>
      <trkpt lat="43.34183" lon="-1.86271">
        <ele>488.49</ele>
        <time>2015-05-24T09:19:04Z</time>
      </trkpt>
      <trkpt lat="43.34181" lon="-1.86281">
        <ele>487.05</ele>
        <time>2015-05-24T09:19:07Z</time>
      </trkpt>
      <trkpt lat="43.34175" lon="-1.86294">
        <ele>485.6</ele>
        <time>2015-05-24T09:19:11Z</time>
      </trkpt>
      <trkpt lat="43.3417" lon="-1.863">
        <ele>484.64</ele>
        <time>2015-05-24T09:19:13Z</time>
      </trkpt>
      <trkpt lat="43.34162" lon="-1.86324">
        <ele>481.76</ele>
        <time>2015-05-24T09:19:22Z</time>
      </trkpt>
      <trkpt lat="43.34161" lon="-1.86328">
        <ele>481.76</ele>
        <time>2015-05-24T09:19:23Z</time>
      </trkpt>
      <trkpt lat="43.34159" lon="-1.86338">
        <ele>479.84</ele>
        <time>2015-05-24T09:19:26Z</time>
      </trkpt>
      <trkpt lat="43.34157" lon="-1.86341">
        <ele>479.35</ele>
        <time>2015-05-24T09:19:27Z</time>
      </trkpt>
      <trkpt lat="43.34154" lon="-1.86347">
        <ele>478.87</ele>
        <time>2015-05-24T09:19:29Z</time>
      </trkpt>
      <trkpt lat="43.34146" lon="-1.86366">
        <ele>475.99</ele>
        <time>2015-05-24T09:19:39Z</time>
      </trkpt>
      <trkpt lat="43.34143" lon="-1.86374">
        <ele>475.51</ele>
        <time>2015-05-24T09:19:47Z</time>
      </trkpt>
      <trkpt lat="43.34143" lon="-1.86375">
        <ele>475.03</ele>
        <time>2015-05-24T09:19:49Z</time>
      </trkpt>
      <trkpt lat="43.34142" lon="-1.86384">
        <ele>473.59</ele>
        <time>2015-05-24T09:19:55Z</time>
      </trkpt>
      <trkpt lat="43.34136" lon="-1.86388">
        <ele>472.14</ele>
        <time>2015-05-24T09:20:01Z</time>
      </trkpt>
      <trkpt lat="43.34132" lon="-1.86404">
        <ele>469.74</ele>
        <time>2015-05-24T09:20:16Z</time>
      </trkpt>
      <trkpt lat="43.34128" lon="-1.86414">
        <ele>468.78</ele>
        <time>2015-05-24T09:20:27Z</time>
      </trkpt>
      <trkpt lat="43.34124" lon="-1.8642">
        <ele>467.34</ele>
        <time>2015-05-24T09:20:38Z</time>
      </trkpt>
      <trkpt lat="43.34122" lon="-1.8642">
        <ele>466.38</ele>
        <time>2015-05-24T09:20:41Z</time>
      </trkpt>
      <trkpt lat="43.34119" lon="-1.86423">
        <ele>464.93</ele>
        <time>2015-05-24T09:20:46Z</time>
      </trkpt>
      <trkpt lat="43.34106" lon="-1.86444">
        <ele>462.53</ele>
        <time>2015-05-24T09:20:55Z</time>
      </trkpt>
      <trkpt lat="43.34093" lon="-1.86462">
        <ele>461.57</ele>
        <time>2015-05-24T09:21:05Z</time>
      </trkpt>
      <trkpt lat="43.34083" lon="-1.86484">
        <ele>460.61</ele>
        <time>2015-05-24T09:21:14Z</time>
      </trkpt>
      <trkpt lat="43.34072" lon="-1.86513">
        <ele>459.17</ele>
        <time>2015-05-24T09:21:25Z</time>
      </trkpt>
      <trkpt lat="43.34072" lon="-1.86521">
        <ele>458.21</ele>
        <time>2015-05-24T09:21:37Z</time>
      </trkpt>
      <trkpt lat="43.34071" lon="-1.8653">
        <ele>455.8</ele>
        <time>2015-05-24T09:21:47Z</time>
      </trkpt>
      <trkpt lat="43.34069" lon="-1.86537">
        <ele>454.84</ele>
        <time>2015-05-24T09:21:52Z</time>
      </trkpt>
      <trkpt lat="43.34058" lon="-1.86555">
        <ele>453.88</ele>
        <time>2015-05-24T09:22:06Z</time>
      </trkpt>
      <trkpt lat="43.34057" lon="-1.8656">
        <ele>453.4</ele>
        <time>2015-05-24T09:22:09Z</time>
      </trkpt>
      <trkpt lat="43.34055" lon="-1.86564">
        <ele>453.4</ele>
        <time>2015-05-24T09:22:12Z</time>
      </trkpt>
      <trkpt lat="43.3405" lon="-1.86571">
        <ele>453.4</ele>
        <time>2015-05-24T09:22:21Z</time>
      </trkpt>
      <trkpt lat="43.34048" lon="-1.86577">
        <ele>451.96</ele>
        <time>2015-05-24T09:22:25Z</time>
      </trkpt>
      <trkpt lat="43.34046" lon="-1.86582">
        <ele>451.48</ele>
        <time>2015-05-24T09:22:28Z</time>
      </trkpt>
      <trkpt lat="43.34048" lon="-1.86595">
        <ele>448.11</ele>
        <time>2015-05-24T09:22:39Z</time>
      </trkpt>
      <trkpt lat="43.34052" lon="-1.86613">
        <ele>445.71</ele>
        <time>2015-05-24T09:22:49Z</time>
      </trkpt>
      <trkpt lat="43.34052" lon="-1.86615">
        <ele>445.71</ele>
        <time>2015-05-24T09:22:50Z</time>
      </trkpt>
      <trkpt lat="43.3405" lon="-1.86621">
        <ele>445.23</ele>
        <time>2015-05-24T09:22:55Z</time>
      </trkpt>
      <trkpt lat="43.34048" lon="-1.86631">
        <ele>443.31</ele>
        <time>2015-05-24T09:23:03Z</time>
      </trkpt>
      <trkpt lat="43.34048" lon="-1.86644">
        <ele>441.38</ele>
        <time>2015-05-24T09:23:15Z</time>
      </trkpt>
      <trkpt lat="43.34048" lon="-1.86644">
        <ele>441.38</ele>
        <time>2015-05-24T09:23:16Z</time>
      </trkpt>
      <trkpt lat="43.34049" lon="-1.86645">
        <ele>440.9</ele>
        <time>2015-05-24T09:23:18Z</time>
      </trkpt>
      <trkpt lat="43.34048" lon="-1.86652">
        <ele>439.94</ele>
        <time>2015-05-24T09:23:25Z</time>
      </trkpt>
      <trkpt lat="43.34045" lon="-1.86668">
        <ele>438.02</ele>
        <time>2015-05-24T09:23:32Z</time>
      </trkpt>
      <trkpt lat="43.34035" lon="-1.86693">
        <ele>435.61</ele>
        <time>2015-05-24T09:23:44Z</time>
      </trkpt>
      <trkpt lat="43.34021" lon="-1.8672">
        <ele>434.17</ele>
        <time>2015-05-24T09:23:53Z</time>
      </trkpt>
      <trkpt lat="43.34" lon="-1.86765">
        <ele>433.69</ele>
        <time>2015-05-24T09:24:06Z</time>
      </trkpt>
      <trkpt lat="43.33995" lon="-1.86778">
        <ele>433.21</ele>
        <time>2015-05-24T09:24:10Z</time>
      </trkpt>
      <trkpt lat="43.33991" lon="-1.86799">
        <ele>432.25</ele>
        <time>2015-05-24T09:24:21Z</time>
      </trkpt>
      <trkpt lat="43.33991" lon="-1.86804">
        <ele>431.29</ele>
        <time>2015-05-24T09:24:26Z</time>
      </trkpt>
      <trkpt lat="43.33991" lon="-1.86826">
        <ele>428.4</ele>
        <time>2015-05-24T09:24:34Z</time>
      </trkpt>
      <trkpt lat="43.3398" lon="-1.86861">
        <ele>428.4</ele>
        <time>2015-05-24T09:24:45Z</time>
      </trkpt>
      <trkpt lat="43.33977" lon="-1.86868">
        <ele>426.48</ele>
        <time>2015-05-24T09:24:47Z</time>
      </trkpt>
      <trkpt lat="43.33967" lon="-1.86899">
        <ele>424.08</ele>
        <time>2015-05-24T09:24:53Z</time>
      </trkpt>
      <trkpt lat="43.33958" lon="-1.86922">
        <ele>422.16</ele>
        <time>2015-05-24T09:24:58Z</time>
      </trkpt>
      <trkpt lat="43.33954" lon="-1.86938">
        <ele>421.19</ele>
        <time>2015-05-24T09:25:02Z</time>
      </trkpt>
      <trkpt lat="43.33953" lon="-1.86945">
        <ele>420.23</ele>
        <time>2015-05-24T09:25:04Z</time>
      </trkpt>
      <trkpt lat="43.33942" lon="-1.86971">
        <ele>419.75</ele>
        <time>2015-05-24T09:25:13Z</time>
      </trkpt>
      <trkpt lat="43.33935" lon="-1.86978">
        <ele>419.27</ele>
        <time>2015-05-24T09:25:17Z</time>
      </trkpt>
      <trkpt lat="43.33927" lon="-1.8698">
        <ele>418.79</ele>
        <time>2015-05-24T09:25:26Z</time>
      </trkpt>
      <trkpt lat="43.3392" lon="-1.86982">
        <ele>416.87</ele>
        <time>2015-05-24T09:25:37Z</time>
      </trkpt>
      <trkpt lat="43.33919" lon="-1.86983">
        <ele>416.39</ele>
        <time>2015-05-24T09:25:40Z</time>
      </trkpt>
      <trkpt lat="43.33909" lon="-1.86993">
        <ele>413.98</ele>
        <time>2015-05-24T09:25:44Z</time>
      </trkpt>
      <trkpt lat="43.33892" lon="-1.87018">
        <ele>409.66</ele>
        <time>2015-05-24T09:25:49Z</time>
      </trkpt>
      <trkpt lat="43.3388" lon="-1.87047">
        <ele>405.33</ele>
        <time>2015-05-24T09:25:54Z</time>
      </trkpt>
      <trkpt lat="43.33878" lon="-1.87052">
        <ele>404.85</ele>
        <time>2015-05-24T09:25:55Z</time>
      </trkpt>
      <trkpt lat="43.33865" lon="-1.87071">
        <ele>401.01</ele>
        <time>2015-05-24T09:25:59Z</time>
      </trkpt>
      <trkpt lat="43.33859" lon="-1.8708">
        <ele>400.05</ele>
        <time>2015-05-24T09:26:01Z</time>
      </trkpt>
      <trkpt lat="43.33847" lon="-1.87115">
        <ele>396.2</ele>
        <time>2015-05-24T09:26:07Z</time>
      </trkpt>
      <trkpt lat="43.33842" lon="-1.87127">
        <ele>395.72</ele>
        <time>2015-05-24T09:26:09Z</time>
      </trkpt>
      <trkpt lat="43.33829" lon="-1.87164">
        <ele>393.8</ele>
        <time>2015-05-24T09:26:15Z</time>
      </trkpt>
      <trkpt lat="43.33821" lon="-1.87189">
        <ele>392.84</ele>
        <time>2015-05-24T09:26:19Z</time>
      </trkpt>
      <trkpt lat="43.3381" lon="-1.87236">
        <ele>389.95</ele>
        <time>2015-05-24T09:26:26Z</time>
      </trkpt>
      <trkpt lat="43.33798" lon="-1.87277">
        <ele>386.11</ele>
        <time>2015-05-24T09:26:34Z</time>
      </trkpt>
      <trkpt lat="43.33782" lon="-1.8732">
        <ele>383.7</ele>
        <time>2015-05-24T09:26:42Z</time>
      </trkpt>
      <trkpt lat="43.33759" lon="-1.87387">
        <ele>380.82</ele>
        <time>2015-05-24T09:26:56Z</time>
      </trkpt>
      <trkpt lat="43.33749" lon="-1.87404">
        <ele>379.86</ele>
        <time>2015-05-24T09:27:01Z</time>
      </trkpt>
      <trkpt lat="43.33739" lon="-1.87433">
        <ele>378.9</ele>
        <time>2015-05-24T09:27:06Z</time>
      </trkpt>
      <trkpt lat="43.3373" lon="-1.87464">
        <ele>378.42</ele>
        <time>2015-05-24T09:27:11Z</time>
      </trkpt>
      <trkpt lat="43.33715" lon="-1.87523">
        <ele>376.49</ele>
        <time>2015-05-24T09:27:22Z</time>
      </trkpt>
      <trkpt lat="43.33708" lon="-1.87558">
        <ele>375.53</ele>
        <time>2015-05-24T09:27:27Z</time>
      </trkpt>
      <trkpt lat="43.33702" lon="-1.87582">
        <ele>375.05</ele>
        <time>2015-05-24T09:27:32Z</time>
      </trkpt>
      <trkpt lat="43.33693" lon="-1.87626">
        <ele>372.17</ele>
        <time>2015-05-24T09:27:41Z</time>
      </trkpt>
      <trkpt lat="43.3368" lon="-1.87655">
        <ele>370.73</ele>
        <time>2015-05-24T09:27:48Z</time>
      </trkpt>
      <trkpt lat="43.33668" lon="-1.87684">
        <ele>367.36</ele>
        <time>2015-05-24T09:27:54Z</time>
      </trkpt>
      <trkpt lat="43.33665" lon="-1.87689">
        <ele>367.36</ele>
        <time>2015-05-24T09:27:55Z</time>
      </trkpt>
      <trkpt lat="43.33642" lon="-1.87726">
        <ele>364.96</ele>
        <time>2015-05-24T09:28:03Z</time>
      </trkpt>
      <trkpt lat="43.33631" lon="-1.87741">
        <ele>364</ele>
        <time>2015-05-24T09:28:06Z</time>
      </trkpt>
      <trkpt lat="43.33617" lon="-1.87769">
        <ele>361.59</ele>
        <time>2015-05-24T09:28:10Z</time>
      </trkpt>
      <trkpt lat="43.3361" lon="-1.87784">
        <ele>361.11</ele>
        <time>2015-05-24T09:28:12Z</time>
      </trkpt>
      <trkpt lat="43.33602" lon="-1.87812">
        <ele>361.11</ele>
        <time>2015-05-24T09:28:16Z</time>
      </trkpt>
      <trkpt lat="43.33595" lon="-1.87835">
        <ele>361.11</ele>
        <time>2015-05-24T09:28:20Z</time>
      </trkpt>
      <trkpt lat="43.33591" lon="-1.87847">
        <ele>361.11</ele>
        <time>2015-05-24T09:28:22Z</time>
      </trkpt>
      <trkpt lat="43.33587" lon="-1.87864">
        <ele>360.15</ele>
        <time>2015-05-24T09:28:25Z</time>
      </trkpt>
      <trkpt lat="43.33581" lon="-1.87882">
        <ele>358.71</ele>
        <time>2015-05-24T09:28:28Z</time>
      </trkpt>
      <trkpt lat="43.33577" lon="-1.87906">
        <ele>355.83</ele>
        <time>2015-05-24T09:28:33Z</time>
      </trkpt>
      <trkpt lat="43.33575" lon="-1.87911">
        <ele>355.83</ele>
        <time>2015-05-24T09:28:34Z</time>
      </trkpt>
      <trkpt lat="43.33569" lon="-1.87931">
        <ele>354.86</ele>
        <time>2015-05-24T09:28:38Z</time>
      </trkpt>
      <trkpt lat="43.33569" lon="-1.87942">
        <ele>353.9</ele>
        <time>2015-05-24T09:28:46Z</time>
      </trkpt>
      <trkpt lat="43.33569" lon="-1.87948">
        <ele>352.46</ele>
        <time>2015-05-24T09:28:54Z</time>
      </trkpt>
      <trkpt lat="43.33568" lon="-1.87958">
        <ele>351.5</ele>
        <time>2015-05-24T09:28:59Z</time>
      </trkpt>
      <trkpt lat="43.33559" lon="-1.8799">
        <ele>350.54</ele>
        <time>2015-05-24T09:29:08Z</time>
      </trkpt>
      <trkpt lat="43.33548" lon="-1.88033">
        <ele>349.58</ele>
        <time>2015-05-24T09:29:19Z</time>
      </trkpt>
      <trkpt lat="43.33547" lon="-1.88066">
        <ele>347.17</ele>
        <time>2015-05-24T09:29:26Z</time>
      </trkpt>
      <trkpt lat="43.33541" lon="-1.88091">
        <ele>346.21</ele>
        <time>2015-05-24T09:29:33Z</time>
      </trkpt>
      <trkpt lat="43.33533" lon="-1.88114">
        <ele>346.21</ele>
        <time>2015-05-24T09:29:41Z</time>
      </trkpt>
      <trkpt lat="43.33521" lon="-1.88156">
        <ele>343.81</ele>
        <time>2015-05-24T09:29:51Z</time>
      </trkpt>
      <trkpt lat="43.33511" lon="-1.88171">
        <ele>343.33</ele>
        <time>2015-05-24T09:29:55Z</time>
      </trkpt>
      <trkpt lat="43.33501" lon="-1.88205">
        <ele>340.92</ele>
        <time>2015-05-24T09:30:03Z</time>
      </trkpt>
      <trkpt lat="43.33493" lon="-1.88236">
        <ele>336.6</ele>
        <time>2015-05-24T09:30:08Z</time>
      </trkpt>
      <trkpt lat="43.33491" lon="-1.88243">
        <ele>335.64</ele>
        <time>2015-05-24T09:30:09Z</time>
      </trkpt>
      <trkpt lat="43.33485" lon="-1.88276">
        <ele>331.79</ele>
        <time>2015-05-24T09:30:14Z</time>
      </trkpt>
      <trkpt lat="43.33487" lon="-1.88294">
        <ele>330.35</ele>
        <time>2015-05-24T09:30:17Z</time>
      </trkpt>
      <trkpt lat="43.33478" lon="-1.88326">
        <ele>326.99</ele>
        <time>2015-05-24T09:30:23Z</time>
      </trkpt>
      <trkpt lat="43.33472" lon="-1.88345">
        <ele>325.54</ele>
        <time>2015-05-24T09:30:28Z</time>
      </trkpt>
      <trkpt lat="43.33473" lon="-1.88361">
        <ele>324.1</ele>
        <time>2015-05-24T09:30:33Z</time>
      </trkpt>
      <trkpt lat="43.33471" lon="-1.8837">
        <ele>323.62</ele>
        <time>2015-05-24T09:30:35Z</time>
      </trkpt>
      <trkpt lat="43.33467" lon="-1.88384">
        <ele>322.18</ele>
        <time>2015-05-24T09:30:38Z</time>
      </trkpt>
      <trkpt lat="43.33464" lon="-1.88395">
        <ele>321.7</ele>
        <time>2015-05-24T09:30:41Z</time>
      </trkpt>
      <trkpt lat="43.33455" lon="-1.8841">
        <ele>320.74</ele>
        <time>2015-05-24T09:30:50Z</time>
      </trkpt>
      <trkpt lat="43.33452" lon="-1.88419">
        <ele>320.26</ele>
        <time>2015-05-24T09:31:00Z</time>
      </trkpt>
      <trkpt lat="43.33451" lon="-1.88421">
        <ele>320.26</ele>
        <time>2015-05-24T09:31:02Z</time>
      </trkpt>
      <trkpt lat="43.33446" lon="-1.88455">
        <ele>316.89</ele>
        <time>2015-05-24T09:31:10Z</time>
      </trkpt>
      <trkpt lat="43.33444" lon="-1.88466">
        <ele>315.45</ele>
        <time>2015-05-24T09:31:21Z</time>
      </trkpt>
      <trkpt lat="43.33444" lon="-1.88477">
        <ele>314.97</ele>
        <time>2015-05-24T09:31:30Z</time>
      </trkpt>
      <trkpt lat="43.3344" lon="-1.88491">
        <ele>314.49</ele>
        <time>2015-05-24T09:31:34Z</time>
      </trkpt>
      <trkpt lat="43.33434" lon="-1.88535">
        <ele>312.09</ele>
        <time>2015-05-24T09:31:44Z</time>
      </trkpt>
      <trkpt lat="43.33433" lon="-1.88542">
        <ele>313.53</ele>
        <time>2015-05-24T09:31:46Z</time>
      </trkpt>
      <trkpt lat="43.3343" lon="-1.88566">
        <ele>317.37</ele>
        <time>2015-05-24T09:31:56Z</time>
      </trkpt>
      <trkpt lat="43.3343" lon="-1.88587">
        <ele>320.26</ele>
        <time>2015-05-24T09:32:08Z</time>
      </trkpt>
      <trkpt lat="43.3343" lon="-1.88598">
        <ele>322.66</ele>
        <time>2015-05-24T09:32:22Z</time>
      </trkpt>
      <trkpt lat="43.33431" lon="-1.88611">
        <ele>325.54</ele>
        <time>2015-05-24T09:32:37Z</time>
      </trkpt>
      <trkpt lat="43.33434" lon="-1.88621">
        <ele>328.43</ele>
        <time>2015-05-24T09:32:52Z</time>
      </trkpt>
      <trkpt lat="43.33437" lon="-1.88628">
        <ele>330.83</ele>
        <time>2015-05-24T09:33:05Z</time>
      </trkpt>
      <trkpt lat="43.33436" lon="-1.88638">
        <ele>331.79</ele>
        <time>2015-05-24T09:33:18Z</time>
      </trkpt>
      <trkpt lat="43.33432" lon="-1.88643">
        <ele>333.71</ele>
        <time>2015-05-24T09:33:28Z</time>
      </trkpt>
      <trkpt lat="43.33429" lon="-1.88669">
        <ele>333.71</ele>
        <time>2015-05-24T09:33:45Z</time>
      </trkpt>
      <trkpt lat="43.33427" lon="-1.88684">
        <ele>331.31</ele>
        <time>2015-05-24T09:33:57Z</time>
      </trkpt>
      <trkpt lat="43.33423" lon="-1.88725">
        <ele>328.91</ele>
        <time>2015-05-24T09:34:07Z</time>
      </trkpt>
      <trkpt lat="43.33417" lon="-1.88751">
        <ele>326.5</ele>
        <time>2015-05-24T09:34:17Z</time>
      </trkpt>
      <trkpt lat="43.33417" lon="-1.88756">
        <ele>325.54</ele>
        <time>2015-05-24T09:34:25Z</time>
      </trkpt>
      <trkpt lat="43.33412" lon="-1.88786">
        <ele>322.66</ele>
        <time>2015-05-24T09:34:33Z</time>
      </trkpt>
      <trkpt lat="43.33408" lon="-1.888">
        <ele>321.22</ele>
        <time>2015-05-24T09:34:36Z</time>
      </trkpt>
      <trkpt lat="43.33402" lon="-1.8882">
        <ele>320.26</ele>
        <time>2015-05-24T09:34:43Z</time>
      </trkpt>
      <trkpt lat="43.33391" lon="-1.88846">
        <ele>319.3</ele>
        <time>2015-05-24T09:34:52Z</time>
      </trkpt>
      <trkpt lat="43.33379" lon="-1.88879">
        <ele>320.26</ele>
        <time>2015-05-24T09:35:03Z</time>
      </trkpt>
      <trkpt lat="43.33375" lon="-1.88895">
        <ele>318.81</ele>
        <time>2015-05-24T09:35:07Z</time>
      </trkpt>
      <trkpt lat="43.33364" lon="-1.88931">
        <ele>315.45</ele>
        <time>2015-05-24T09:35:17Z</time>
      </trkpt>
      <trkpt lat="43.33364" lon="-1.88944">
        <ele>313.53</ele>
        <time>2015-05-24T09:35:19Z</time>
      </trkpt>
      <trkpt lat="43.33361" lon="-1.88972">
        <ele>310.16</ele>
        <time>2015-05-24T09:35:24Z</time>
      </trkpt>
      <trkpt lat="43.33347" lon="-1.89027">
        <ele>310.64</ele>
        <time>2015-05-24T09:35:36Z</time>
      </trkpt>
      <trkpt lat="43.33339" lon="-1.89062">
        <ele>312.09</ele>
        <time>2015-05-24T09:35:47Z</time>
      </trkpt>
      <trkpt lat="43.33328" lon="-1.89094">
        <ele>309.68</ele>
        <time>2015-05-24T09:35:54Z</time>
      </trkpt>
      <trkpt lat="43.33322" lon="-1.89103">
        <ele>313.53</ele>
        <time>2015-05-24T09:36:06Z</time>
      </trkpt>
      <trkpt lat="43.3332" lon="-1.89105">
        <ele>314.49</ele>
        <time>2015-05-24T09:36:09Z</time>
      </trkpt>
      <trkpt lat="43.33314" lon="-1.89121">
        <ele>316.89</ele>
        <time>2015-05-24T09:36:25Z</time>
      </trkpt>
      <trkpt lat="43.33311" lon="-1.89127">
        <ele>317.85</ele>
        <time>2015-05-24T09:36:36Z</time>
      </trkpt>
      <trkpt lat="43.33304" lon="-1.8914">
        <ele>318.81</ele>
        <time>2015-05-24T09:36:47Z</time>
      </trkpt>
      <trkpt lat="43.33303" lon="-1.89144">
        <ele>318.81</ele>
        <time>2015-05-24T09:36:50Z</time>
      </trkpt>
      <trkpt lat="43.33301" lon="-1.8915">
        <ele>319.3</ele>
        <time>2015-05-24T09:36:54Z</time>
      </trkpt>
      <trkpt lat="43.33298" lon="-1.89157">
        <ele>319.3</ele>
        <time>2015-05-24T09:37:05Z</time>
      </trkpt>
      <trkpt lat="43.33297" lon="-1.89159">
        <ele>317.37</ele>
        <time>2015-05-24T09:37:08Z</time>
      </trkpt>
      <trkpt lat="43.33297" lon="-1.89158">
        <ele>317.85</ele>
        <time>2015-05-24T09:37:25Z</time>
      </trkpt>
      <trkpt lat="43.33303" lon="-1.89164">
        <ele>318.81</ele>
        <time>2015-05-24T09:37:39Z</time>
      </trkpt>
      <trkpt lat="43.33302" lon="-1.89164">
        <ele>319.78</ele>
        <time>2015-05-24T09:37:57Z</time>
      </trkpt>
      <trkpt lat="43.33306" lon="-1.89172">
        <ele>318.33</ele>
        <time>2015-05-24T09:38:07Z</time>
      </trkpt>
      <trkpt lat="43.33309" lon="-1.89178">
        <ele>317.85</ele>
        <time>2015-05-24T09:38:14Z</time>
      </trkpt>
      <trkpt lat="43.3331" lon="-1.89204">
        <ele>315.93</ele>
        <time>2015-05-24T09:38:24Z</time>
      </trkpt>
      <trkpt lat="43.3331" lon="-1.89207">
        <ele>315.93</ele>
        <time>2015-05-24T09:38:25Z</time>
      </trkpt>
      <trkpt lat="43.33309" lon="-1.89213">
        <ele>313.53</ele>
        <time>2015-05-24T09:38:28Z</time>
      </trkpt>
      <trkpt lat="43.33311" lon="-1.89225">
        <ele>310.16</ele>
        <time>2015-05-24T09:38:33Z</time>
      </trkpt>
      <trkpt lat="43.33312" lon="-1.89237">
        <ele>306.8</ele>
        <time>2015-05-24T09:38:36Z</time>
      </trkpt>
      <trkpt lat="43.33311" lon="-1.89241">
        <ele>305.84</ele>
        <time>2015-05-24T09:38:37Z</time>
      </trkpt>
      <trkpt lat="43.33302" lon="-1.89277">
        <ele>302.95</ele>
        <time>2015-05-24T09:38:45Z</time>
      </trkpt>
      <trkpt lat="43.33298" lon="-1.89316">
        <ele>299.11</ele>
        <time>2015-05-24T09:38:53Z</time>
      </trkpt>
      <trkpt lat="43.33299" lon="-1.89323">
        <ele>298.15</ele>
        <time>2015-05-24T09:38:54Z</time>
      </trkpt>
      <trkpt lat="43.33299" lon="-1.89345">
        <ele>299.11</ele>
        <time>2015-05-24T09:38:59Z</time>
      </trkpt>
      <trkpt lat="43.33296" lon="-1.89368">
        <ele>301.51</ele>
        <time>2015-05-24T09:39:09Z</time>
      </trkpt>
      <trkpt lat="43.33296" lon="-1.89375">
        <ele>301.51</ele>
        <time>2015-05-24T09:39:14Z</time>
      </trkpt>
      <trkpt lat="43.33295" lon="-1.8938">
        <ele>300.07</ele>
        <time>2015-05-24T09:39:16Z</time>
      </trkpt>
      <trkpt lat="43.33293" lon="-1.89386">
        <ele>299.59</ele>
        <time>2015-05-24T09:39:18Z</time>
      </trkpt>
      <trkpt lat="43.33289" lon="-1.89394">
        <ele>299.59</ele>
        <time>2015-05-24T09:39:22Z</time>
      </trkpt>
      <trkpt lat="43.33288" lon="-1.89416">
        <ele>295.74</ele>
        <time>2015-05-24T09:39:27Z</time>
      </trkpt>
      <trkpt lat="43.33287" lon="-1.89421">
        <ele>295.74</ele>
        <time>2015-05-24T09:39:28Z</time>
      </trkpt>
      <trkpt lat="43.33279" lon="-1.89436">
        <ele>295.26</ele>
        <time>2015-05-24T09:39:32Z</time>
      </trkpt>
      <trkpt lat="43.33273" lon="-1.89463">
        <ele>296.7</ele>
        <time>2015-05-24T09:39:42Z</time>
      </trkpt>
      <trkpt lat="43.33265" lon="-1.89492">
        <ele>296.7</ele>
        <time>2015-05-24T09:39:54Z</time>
      </trkpt>
      <trkpt lat="43.33259" lon="-1.89511">
        <ele>295.74</ele>
        <time>2015-05-24T09:40:02Z</time>
      </trkpt>
      <trkpt lat="43.33254" lon="-1.89525">
        <ele>295.74</ele>
        <time>2015-05-24T09:40:14Z</time>
      </trkpt>
      <trkpt lat="43.33252" lon="-1.89546">
        <ele>297.18</ele>
        <time>2015-05-24T09:40:25Z</time>
      </trkpt>
      <trkpt lat="43.33249" lon="-1.89559">
        <ele>295.74</ele>
        <time>2015-05-24T09:40:29Z</time>
      </trkpt>
      <trkpt lat="43.33248" lon="-1.89563">
        <ele>295.74</ele>
        <time>2015-05-24T09:40:37Z</time>
      </trkpt>
      <trkpt lat="43.33246" lon="-1.89565">
        <ele>297.18</ele>
        <time>2015-05-24T09:40:41Z</time>
      </trkpt>
      <trkpt lat="43.33243" lon="-1.89566">
        <ele>297.18</ele>
        <time>2015-05-24T09:40:46Z</time>
      </trkpt>
      <trkpt lat="43.3324" lon="-1.89576">
        <ele>296.22</ele>
        <time>2015-05-24T09:40:55Z</time>
      </trkpt>
      <trkpt lat="43.33245" lon="-1.89578">
        <ele>295.74</ele>
        <time>2015-05-24T09:41:05Z</time>
      </trkpt>
      <trkpt lat="43.33245" lon="-1.8958">
        <ele>295.26</ele>
        <time>2015-05-24T09:41:22Z</time>
      </trkpt>
      <trkpt lat="43.33247" lon="-1.89578">
        <ele>295.26</ele>
        <time>2015-05-24T09:41:59Z</time>
      </trkpt>
      <trkpt lat="43.3325" lon="-1.89576">
        <ele>295.26</ele>
        <time>2015-05-24T09:42:11Z</time>
      </trkpt>
      <trkpt lat="43.33253" lon="-1.89574">
        <ele>294.3</ele>
        <time>2015-05-24T09:42:17Z</time>
      </trkpt>
      <trkpt lat="43.33254" lon="-1.89569">
        <ele>292.86</ele>
        <time>2015-05-24T09:42:20Z</time>
      </trkpt>
      <trkpt lat="43.33255" lon="-1.89562">
        <ele>290.94</ele>
        <time>2015-05-24T09:42:23Z</time>
      </trkpt>
      <trkpt lat="43.33262" lon="-1.8955">
        <ele>288.05</ele>
        <time>2015-05-24T09:42:33Z</time>
      </trkpt>
      <trkpt lat="43.33266" lon="-1.89546">
        <ele>287.09</ele>
        <time>2015-05-24T09:42:34Z</time>
      </trkpt>
      <trkpt lat="43.33282" lon="-1.8953">
        <ele>282.77</ele>
        <time>2015-05-24T09:42:39Z</time>
      </trkpt>
      <trkpt lat="43.33285" lon="-1.89528">
        <ele>281.32</ele>
        <time>2015-05-24T09:42:40Z</time>
      </trkpt>
      <trkpt lat="43.33298" lon="-1.89523">
        <ele>277.48</ele>
        <time>2015-05-24T09:42:43Z</time>
      </trkpt>
      <trkpt lat="43.33313" lon="-1.89512">
        <ele>274.59</ele>
        <time>2015-05-24T09:42:50Z</time>
      </trkpt>
      <trkpt lat="43.33321" lon="-1.89507">
        <ele>270.75</ele>
        <time>2015-05-24T09:42:55Z</time>
      </trkpt>
      <trkpt lat="43.33338" lon="-1.89493">
        <ele>266.9</ele>
        <time>2015-05-24T09:43:01Z</time>
      </trkpt>
      <trkpt lat="43.33345" lon="-1.8949">
        <ele>265.94</ele>
        <time>2015-05-24T09:43:03Z</time>
      </trkpt>
      <trkpt lat="43.3335" lon="-1.89498">
        <ele>263.06</ele>
        <time>2015-05-24T09:43:07Z</time>
      </trkpt>
      <trkpt lat="43.33351" lon="-1.89503">
        <ele>262.58</ele>
        <time>2015-05-24T09:43:08Z</time>
      </trkpt>
      <trkpt lat="43.33355" lon="-1.89523">
        <ele>259.21</ele>
        <time>2015-05-24T09:43:12Z</time>
      </trkpt>
      <trkpt lat="43.33361" lon="-1.89535">
        <ele>255.85</ele>
        <time>2015-05-24T09:43:16Z</time>
      </trkpt>
      <trkpt lat="43.33368" lon="-1.89538">
        <ele>253.93</ele>
        <time>2015-05-24T09:43:19Z</time>
      </trkpt>
      <trkpt lat="43.33379" lon="-1.89542">
        <ele>253.44</ele>
        <time>2015-05-24T09:43:27Z</time>
      </trkpt>
      <trkpt lat="43.3338" lon="-1.89542">
        <ele>253.44</ele>
        <time>2015-05-24T09:43:28Z</time>
      </trkpt>
      <trkpt lat="43.33393" lon="-1.89533">
        <ele>254.41</ele>
        <time>2015-05-24T09:43:39Z</time>
      </trkpt>
      <trkpt lat="43.33403" lon="-1.89531">
        <ele>255.37</ele>
        <time>2015-05-24T09:43:55Z</time>
      </trkpt>
      <trkpt lat="43.33414" lon="-1.89513">
        <ele>258.25</ele>
        <time>2015-05-24T09:44:12Z</time>
      </trkpt>
      <trkpt lat="43.33424" lon="-1.89509">
        <ele>261.14</ele>
        <time>2015-05-24T09:44:26Z</time>
      </trkpt>
      <trkpt lat="43.33431" lon="-1.89519">
        <ele>261.14</ele>
        <time>2015-05-24T09:44:40Z</time>
      </trkpt>
      <trkpt lat="43.33437" lon="-1.89525">
        <ele>261.62</ele>
        <time>2015-05-24T09:44:46Z</time>
      </trkpt>
      <trkpt lat="43.33442" lon="-1.89543">
        <ele>261.62</ele>
        <time>2015-05-24T09:44:55Z</time>
      </trkpt>
      <trkpt lat="43.33447" lon="-1.89548">
        <ele>260.65</ele>
        <time>2015-05-24T09:44:58Z</time>
      </trkpt>
      <trkpt lat="43.33456" lon="-1.89555">
        <ele>258.25</ele>
        <time>2015-05-24T09:45:03Z</time>
      </trkpt>
      <trkpt lat="43.33459" lon="-1.89556">
        <ele>257.29</ele>
        <time>2015-05-24T09:45:13Z</time>
      </trkpt>
      <trkpt lat="43.33459" lon="-1.89557">
        <ele>258.25</ele>
        <time>2015-05-24T09:45:17Z</time>
      </trkpt>
      <trkpt lat="43.33456" lon="-1.89556">
        <ele>258.25</ele>
        <time>2015-05-24T09:45:30Z</time>
      </trkpt>
      <trkpt lat="43.33452" lon="-1.89553">
        <ele>259.21</ele>
        <time>2015-05-24T09:45:35Z</time>
      </trkpt>
      <trkpt lat="43.33448" lon="-1.89549">
        <ele>259.69</ele>
        <time>2015-05-24T09:45:39Z</time>
      </trkpt>
      <trkpt lat="43.33441" lon="-1.89531">
        <ele>262.1</ele>
        <time>2015-05-24T09:45:53Z</time>
      </trkpt>
      <trkpt lat="43.33439" lon="-1.89526">
        <ele>262.1</ele>
        <time>2015-05-24T09:45:59Z</time>
      </trkpt>
      <trkpt lat="43.33432" lon="-1.89523">
        <ele>262.1</ele>
        <time>2015-05-24T09:46:04Z</time>
      </trkpt>
      <trkpt lat="43.33426" lon="-1.89528">
        <ele>261.14</ele>
        <time>2015-05-24T09:46:09Z</time>
      </trkpt>
      <trkpt lat="43.33412" lon="-1.89603">
        <ele>259.21</ele>
        <time>2015-05-24T09:46:24Z</time>
      </trkpt>
      <trkpt lat="43.33384" lon="-1.89735">
        <ele>256.33</ele>
        <time>2015-05-24T09:46:41Z</time>
      </trkpt>
      <trkpt lat="43.33381" lon="-1.89766">
        <ele>256.33</ele>
        <time>2015-05-24T09:46:45Z</time>
      </trkpt>
      <trkpt lat="43.3339" lon="-1.89798">
        <ele>257.29</ele>
        <time>2015-05-24T09:46:54Z</time>
      </trkpt>
      <trkpt lat="43.33403" lon="-1.89808">
        <ele>258.73</ele>
        <time>2015-05-24T09:47:02Z</time>
      </trkpt>
      <trkpt lat="43.33394" lon="-1.89842">
        <ele>261.14</ele>
        <time>2015-05-24T09:47:16Z</time>
      </trkpt>
      <trkpt lat="43.33382" lon="-1.8988">
        <ele>263.54</ele>
        <time>2015-05-24T09:47:32Z</time>
      </trkpt>
      <trkpt lat="43.33369" lon="-1.8992">
        <ele>264.02</ele>
        <time>2015-05-24T09:47:47Z</time>
      </trkpt>
      <trkpt lat="43.33367" lon="-1.89929">
        <ele>262.1</ele>
        <time>2015-05-24T09:47:50Z</time>
      </trkpt>
      <trkpt lat="43.33366" lon="-1.89945">
        <ele>260.65</ele>
        <time>2015-05-24T09:47:54Z</time>
      </trkpt>
      <trkpt lat="43.33359" lon="-1.90003">
        <ele>256.33</ele>
        <time>2015-05-24T09:48:07Z</time>
      </trkpt>
      <trkpt lat="43.33365" lon="-1.90013">
        <ele>255.85</ele>
        <time>2015-05-24T09:48:11Z</time>
      </trkpt>
      <trkpt lat="43.33397" lon="-1.90032">
        <ele>256.33</ele>
        <time>2015-05-24T09:48:24Z</time>
      </trkpt>
      <trkpt lat="43.33407" lon="-1.90033">
        <ele>259.69</ele>
        <time>2015-05-24T09:48:32Z</time>
      </trkpt>
      <trkpt lat="43.33414" lon="-1.90025">
        <ele>260.65</ele>
        <time>2015-05-24T09:48:38Z</time>
      </trkpt>
      <trkpt lat="43.33421" lon="-1.90017">
        <ele>261.14</ele>
        <time>2015-05-24T09:48:43Z</time>
      </trkpt>
      <trkpt lat="43.33442" lon="-1.89984">
        <ele>260.65</ele>
        <time>2015-05-24T09:48:57Z</time>
      </trkpt>
      <trkpt lat="43.33466" lon="-1.89952">
        <ele>262.1</ele>
        <time>2015-05-24T09:49:11Z</time>
      </trkpt>
      <trkpt lat="43.33484" lon="-1.89932">
        <ele>264.02</ele>
        <time>2015-05-24T09:49:25Z</time>
      </trkpt>
      <trkpt lat="43.33498" lon="-1.89919">
        <ele>267.38</ele>
        <time>2015-05-24T09:49:37Z</time>
      </trkpt>
      <trkpt lat="43.33514" lon="-1.89911">
        <ele>270.75</ele>
        <time>2015-05-24T09:49:50Z</time>
      </trkpt>
      <trkpt lat="43.33519" lon="-1.89912">
        <ele>271.23</ele>
        <time>2015-05-24T09:49:54Z</time>
      </trkpt>
      <trkpt lat="43.33537" lon="-1.89921">
        <ele>273.63</ele>
        <time>2015-05-24T09:50:09Z</time>
      </trkpt>
      <trkpt lat="43.33551" lon="-1.89929">
        <ele>275.56</ele>
        <time>2015-05-24T09:50:21Z</time>
      </trkpt>
      <trkpt lat="43.3356" lon="-1.89936">
        <ele>276.04</ele>
        <time>2015-05-24T09:50:28Z</time>
      </trkpt>
      <trkpt lat="43.33571" lon="-1.89967">
        <ele>276.52</ele>
        <time>2015-05-24T09:50:42Z</time>
      </trkpt>
      <trkpt lat="43.33576" lon="-1.9">
        <ele>277.96</ele>
        <time>2015-05-24T09:50:56Z</time>
      </trkpt>
      <trkpt lat="43.3358" lon="-1.90036">
        <ele>278.92</ele>
        <time>2015-05-24T09:51:11Z</time>
      </trkpt>
      <trkpt lat="43.33589" lon="-1.90071">
        <ele>280.84</ele>
        <time>2015-05-24T09:51:27Z</time>
      </trkpt>
      <trkpt lat="43.33596" lon="-1.90106">
        <ele>281.8</ele>
        <time>2015-05-24T09:51:42Z</time>
      </trkpt>
      <trkpt lat="43.33594" lon="-1.90134">
        <ele>284.69</ele>
        <time>2015-05-24T09:51:56Z</time>
      </trkpt>
      <trkpt lat="43.33596" lon="-1.90151">
        <ele>287.09</ele>
        <time>2015-05-24T09:52:05Z</time>
      </trkpt>
      <trkpt lat="43.33604" lon="-1.90154">
        <ele>287.09</ele>
        <time>2015-05-24T09:52:10Z</time>
      </trkpt>
      <trkpt lat="43.33616" lon="-1.90162">
        <ele>285.65</ele>
        <time>2015-05-24T09:52:15Z</time>
      </trkpt>
      <trkpt lat="43.33625" lon="-1.90176">
        <ele>285.17</ele>
        <time>2015-05-24T09:52:20Z</time>
      </trkpt>
      <trkpt lat="43.33627" lon="-1.90192">
        <ele>284.69</ele>
        <time>2015-05-24T09:52:26Z</time>
      </trkpt>
      <trkpt lat="43.3363" lon="-1.90242">
        <ele>283.25</ele>
        <time>2015-05-24T09:52:41Z</time>
      </trkpt>
      <trkpt lat="43.33631" lon="-1.90269">
        <ele>282.28</ele>
        <time>2015-05-24T09:52:46Z</time>
      </trkpt>
      <trkpt lat="43.33632" lon="-1.90287">
        <ele>280.84</ele>
        <time>2015-05-24T09:52:49Z</time>
      </trkpt>
      <trkpt lat="43.33632" lon="-1.90324">
        <ele>278.44</ele>
        <time>2015-05-24T09:52:54Z</time>
      </trkpt>
      <trkpt lat="43.3363" lon="-1.90339">
        <ele>277.96</ele>
        <time>2015-05-24T09:52:56Z</time>
      </trkpt>
      <trkpt lat="43.33627" lon="-1.90351">
        <ele>277.96</ele>
        <time>2015-05-24T09:52:58Z</time>
      </trkpt>
      <trkpt lat="43.3362" lon="-1.90375">
        <ele>277.96</ele>
        <time>2015-05-24T09:53:03Z</time>
      </trkpt>
      <trkpt lat="43.33606" lon="-1.90415">
        <ele>278.44</ele>
        <time>2015-05-24T09:53:16Z</time>
      </trkpt>
      <trkpt lat="43.33596" lon="-1.90459">
        <ele>278.44</ele>
        <time>2015-05-24T09:53:29Z</time>
      </trkpt>
      <trkpt lat="43.33579" lon="-1.90521">
        <ele>277.48</ele>
        <time>2015-05-24T09:53:44Z</time>
      </trkpt>
      <trkpt lat="43.33571" lon="-1.90545">
        <ele>278.44</ele>
        <time>2015-05-24T09:53:51Z</time>
      </trkpt>
      <trkpt lat="43.33551" lon="-1.90592">
        <ele>278.92</ele>
        <time>2015-05-24T09:54:05Z</time>
      </trkpt>
      <trkpt lat="43.33542" lon="-1.90626">
        <ele>276.04</ele>
        <time>2015-05-24T09:54:13Z</time>
      </trkpt>
      <trkpt lat="43.33533" lon="-1.90666">
        <ele>272.67</ele>
        <time>2015-05-24T09:54:20Z</time>
      </trkpt>
      <trkpt lat="43.33532" lon="-1.90671">
        <ele>271.71</ele>
        <time>2015-05-24T09:54:21Z</time>
      </trkpt>
      <trkpt lat="43.33533" lon="-1.90705">
        <ele>268.35</ele>
        <time>2015-05-24T09:54:26Z</time>
      </trkpt>
      <trkpt lat="43.33532" lon="-1.9074">
        <ele>265.46</ele>
        <time>2015-05-24T09:54:31Z</time>
      </trkpt>
      <trkpt lat="43.3353" lon="-1.90778">
        <ele>264.5</ele>
        <time>2015-05-24T09:54:37Z</time>
      </trkpt>
      <trkpt lat="43.33519" lon="-1.90865">
        <ele>262.1</ele>
        <time>2015-05-24T09:54:52Z</time>
      </trkpt>
      <trkpt lat="43.33517" lon="-1.90885">
        <ele>260.65</ele>
        <time>2015-05-24T09:55:01Z</time>
      </trkpt>
      <trkpt lat="43.33516" lon="-1.90892">
        <ele>260.65</ele>
        <time>2015-05-24T09:55:14Z</time>
      </trkpt>
      <trkpt lat="43.33514" lon="-1.90896">
        <ele>260.65</ele>
        <time>2015-05-24T09:55:25Z</time>
      </trkpt>
      <trkpt lat="43.33511" lon="-1.90925">
        <ele>258.73</ele>
        <time>2015-05-24T09:55:33Z</time>
      </trkpt>
      <trkpt lat="43.33509" lon="-1.90953">
        <ele>257.77</ele>
        <time>2015-05-24T09:55:38Z</time>
      </trkpt>
      <trkpt lat="43.33502" lon="-1.91018">
        <ele>255.85</ele>
        <time>2015-05-24T09:55:51Z</time>
      </trkpt>
      <trkpt lat="43.33493" lon="-1.9104">
        <ele>252.48</ele>
        <time>2015-05-24T09:55:58Z</time>
      </trkpt>
      <trkpt lat="43.33491" lon="-1.91048">
        <ele>250.56</ele>
        <time>2015-05-24T09:56:01Z</time>
      </trkpt>
      <trkpt lat="43.33487" lon="-1.91066">
        <ele>246.23</ele>
        <time>2015-05-24T09:56:07Z</time>
      </trkpt>
      <trkpt lat="43.3348" lon="-1.91088">
        <ele>241.91</ele>
        <time>2015-05-24T09:56:12Z</time>
      </trkpt>
      <trkpt lat="43.33478" lon="-1.91099">
        <ele>240.95</ele>
        <time>2015-05-24T09:56:14Z</time>
      </trkpt>
      <trkpt lat="43.33473" lon="-1.91155">
        <ele>240.47</ele>
        <time>2015-05-24T09:56:25Z</time>
      </trkpt>
      <trkpt lat="43.3347" lon="-1.91211">
        <ele>237.58</ele>
        <time>2015-05-24T09:56:36Z</time>
      </trkpt>
      <trkpt lat="43.33468" lon="-1.91219">
        <ele>237.58</ele>
        <time>2015-05-24T09:56:38Z</time>
      </trkpt>
      <trkpt lat="43.33469" lon="-1.91252">
        <ele>235.18</ele>
        <time>2015-05-24T09:56:45Z</time>
      </trkpt>
      <trkpt lat="43.33471" lon="-1.91293">
        <ele>231.81</ele>
        <time>2015-05-24T09:56:53Z</time>
      </trkpt>
      <trkpt lat="43.3347" lon="-1.91344">
        <ele>228.93</ele>
        <time>2015-05-24T09:57:03Z</time>
      </trkpt>
      <trkpt lat="43.33468" lon="-1.91401">
        <ele>226.53</ele>
        <time>2015-05-24T09:57:15Z</time>
      </trkpt>
      <trkpt lat="43.33459" lon="-1.91451">
        <ele>223.16</ele>
        <time>2015-05-24T09:57:28Z</time>
      </trkpt>
      <trkpt lat="43.3346" lon="-1.9147">
        <ele>219.32</ele>
        <time>2015-05-24T09:57:34Z</time>
      </trkpt>
      <trkpt lat="43.3346" lon="-1.91492">
        <ele>216.43</ele>
        <time>2015-05-24T09:57:40Z</time>
      </trkpt>
      <trkpt lat="43.33461" lon="-1.91507">
        <ele>215.95</ele>
        <time>2015-05-24T09:57:51Z</time>
      </trkpt>
      <trkpt lat="43.33462" lon="-1.91507">
        <ele>215.47</ele>
        <time>2015-05-24T09:58:14Z</time>
      </trkpt>
      <trkpt lat="43.33461" lon="-1.91505">
        <ele>215.47</ele>
        <time>2015-05-24T09:58:51Z</time>
      </trkpt>
      <trkpt lat="43.33462" lon="-1.91507">
        <ele>215.47</ele>
        <time>2015-05-24T09:59:18Z</time>
      </trkpt>
      <trkpt lat="43.33461" lon="-1.91506">
        <ele>215.47</ele>
        <time>2015-05-24T09:59:48Z</time>
      </trkpt>
      <trkpt lat="43.33459" lon="-1.91515">
        <ele>214.99</ele>
        <time>2015-05-24T10:00:00Z</time>
      </trkpt>
      <trkpt lat="43.33459" lon="-1.91528">
        <ele>213.55</ele>
        <time>2015-05-24T10:00:16Z</time>
      </trkpt>
      <trkpt lat="43.33458" lon="-1.91538">
        <ele>211.63</ele>
        <time>2015-05-24T10:00:27Z</time>
      </trkpt>
      <trkpt lat="43.33457" lon="-1.9154">
        <ele>211.63</ele>
        <time>2015-05-24T10:00:29Z</time>
      </trkpt>
      <trkpt lat="43.33459" lon="-1.91544">
        <ele>211.15</ele>
        <time>2015-05-24T10:00:33Z</time>
      </trkpt>
      <trkpt lat="43.33458" lon="-1.91562">
        <ele>209.22</ele>
        <time>2015-05-24T10:00:40Z</time>
      </trkpt>
      <trkpt lat="43.33459" lon="-1.91582">
        <ele>205.38</ele>
        <time>2015-05-24T10:00:48Z</time>
      </trkpt>
      <trkpt lat="43.33459" lon="-1.91586">
        <ele>205.38</ele>
        <time>2015-05-24T10:00:49Z</time>
      </trkpt>
      <trkpt lat="43.3346" lon="-1.91603">
        <ele>202.01</ele>
        <time>2015-05-24T10:00:55Z</time>
      </trkpt>
      <trkpt lat="43.33462" lon="-1.91619">
        <ele>201.05</ele>
        <time>2015-05-24T10:01:04Z</time>
      </trkpt>
      <trkpt lat="43.33462" lon="-1.91624">
        <ele>199.61</ele>
        <time>2015-05-24T10:01:15Z</time>
      </trkpt>
      <trkpt lat="43.3346" lon="-1.91641">
        <ele>196.25</ele>
        <time>2015-05-24T10:01:25Z</time>
      </trkpt>
      <trkpt lat="43.33461" lon="-1.91652">
        <ele>195.28</ele>
        <time>2015-05-24T10:01:37Z</time>
      </trkpt>
      <trkpt lat="43.33463" lon="-1.91664">
        <ele>195.28</ele>
        <time>2015-05-24T10:01:50Z</time>
      </trkpt>
      <trkpt lat="43.33463" lon="-1.91679">
        <ele>194.8</ele>
        <time>2015-05-24T10:02:03Z</time>
      </trkpt>
      <trkpt lat="43.33464" lon="-1.91683">
        <ele>194.32</ele>
        <time>2015-05-24T10:02:07Z</time>
      </trkpt>
      <trkpt lat="43.33462" lon="-1.91693">
        <ele>193.36</ele>
        <time>2015-05-24T10:02:19Z</time>
      </trkpt>
      <trkpt lat="43.33464" lon="-1.91704">
        <ele>192.88</ele>
        <time>2015-05-24T10:02:29Z</time>
      </trkpt>
      <trkpt lat="43.33465" lon="-1.91706">
        <ele>194.32</ele>
        <time>2015-05-24T10:02:35Z</time>
      </trkpt>
      <trkpt lat="43.33465" lon="-1.9171">
        <ele>194.32</ele>
        <time>2015-05-24T10:02:41Z</time>
      </trkpt>
      <trkpt lat="43.33465" lon="-1.9172">
        <ele>193.36</ele>
        <time>2015-05-24T10:02:50Z</time>
      </trkpt>
      <trkpt lat="43.33464" lon="-1.91722">
        <ele>193.36</ele>
        <time>2015-05-24T10:02:51Z</time>
      </trkpt>
      <trkpt lat="43.33465" lon="-1.91738">
        <ele>191.92</ele>
        <time>2015-05-24T10:03:06Z</time>
      </trkpt>
      <trkpt lat="43.33462" lon="-1.91746">
        <ele>189.52</ele>
        <time>2015-05-24T10:03:19Z</time>
      </trkpt>
      <trkpt lat="43.33463" lon="-1.9176">
        <ele>186.63</ele>
        <time>2015-05-24T10:03:33Z</time>
      </trkpt>
      <trkpt lat="43.33463" lon="-1.91763">
        <ele>185.67</ele>
        <time>2015-05-24T10:03:35Z</time>
      </trkpt>
      <trkpt lat="43.33463" lon="-1.91766">
        <ele>185.67</ele>
        <time>2015-05-24T10:03:38Z</time>
      </trkpt>
      <trkpt lat="43.33465" lon="-1.9177">
        <ele>185.19</ele>
        <time>2015-05-24T10:03:42Z</time>
      </trkpt>
      <trkpt lat="43.33464" lon="-1.91781">
        <ele>185.19</ele>
        <time>2015-05-24T10:03:57Z</time>
      </trkpt>
      <trkpt lat="43.33464" lon="-1.91784">
        <ele>184.23</ele>
        <time>2015-05-24T10:04:09Z</time>
      </trkpt>
      <trkpt lat="43.33466" lon="-1.91793">
        <ele>183.27</ele>
        <time>2015-05-24T10:04:23Z</time>
      </trkpt>
      <trkpt lat="43.33466" lon="-1.918">
        <ele>182.79</ele>
        <time>2015-05-24T10:04:34Z</time>
      </trkpt>
      <trkpt lat="43.33466" lon="-1.91816">
        <ele>182.79</ele>
        <time>2015-05-24T10:04:46Z</time>
      </trkpt>
      <trkpt lat="43.33466" lon="-1.91825">
        <ele>181.83</ele>
        <time>2015-05-24T10:04:56Z</time>
      </trkpt>
      <trkpt lat="43.33467" lon="-1.91836">
        <ele>180.38</ele>
        <time>2015-05-24T10:05:10Z</time>
      </trkpt>
      <trkpt lat="43.33467" lon="-1.91859">
        <ele>179.42</ele>
        <time>2015-05-24T10:05:20Z</time>
      </trkpt>
      <trkpt lat="43.33467" lon="-1.91867">
        <ele>178.94</ele>
        <time>2015-05-24T10:05:25Z</time>
      </trkpt>
      <trkpt lat="43.33468" lon="-1.91872">
        <ele>178.46</ele>
        <time>2015-05-24T10:05:32Z</time>
      </trkpt>
      <trkpt lat="43.33469" lon="-1.9189">
        <ele>177.02</ele>
        <time>2015-05-24T10:05:46Z</time>
      </trkpt>
      <trkpt lat="43.33469" lon="-1.91899">
        <ele>176.06</ele>
        <time>2015-05-24T10:05:57Z</time>
      </trkpt>
      <trkpt lat="43.33469" lon="-1.91904">
        <ele>175.58</ele>
        <time>2015-05-24T10:06:08Z</time>
      </trkpt>
      <trkpt lat="43.33469" lon="-1.91914">
        <ele>174.62</ele>
        <time>2015-05-24T10:06:21Z</time>
      </trkpt>
      <trkpt lat="43.33469" lon="-1.91916">
        <ele>173.17</ele>
        <time>2015-05-24T10:06:35Z</time>
      </trkpt>
      <trkpt lat="43.33469" lon="-1.91917">
        <ele>172.69</ele>
        <time>2015-05-24T10:06:49Z</time>
      </trkpt>
      <trkpt lat="43.33468" lon="-1.91921">
        <ele>171.25</ele>
        <time>2015-05-24T10:07:05Z</time>
      </trkpt>
      <trkpt lat="43.33469" lon="-1.91926">
        <ele>170.29</ele>
        <time>2015-05-24T10:07:17Z</time>
      </trkpt>
      <trkpt lat="43.33468" lon="-1.91933">
        <ele>168.85</ele>
        <time>2015-05-24T10:07:28Z</time>
      </trkpt>
      <trkpt lat="43.33469" lon="-1.9194">
        <ele>167.41</ele>
        <time>2015-05-24T10:07:41Z</time>
      </trkpt>
      <trkpt lat="43.33468" lon="-1.91947">
        <ele>166.45</ele>
        <time>2015-05-24T10:07:54Z</time>
      </trkpt>
      <trkpt lat="43.33466" lon="-1.91952">
        <ele>168.37</ele>
        <time>2015-05-24T10:08:05Z</time>
      </trkpt>
      <trkpt lat="43.33465" lon="-1.91955">
        <ele>168.85</ele>
        <time>2015-05-24T10:08:19Z</time>
      </trkpt>
      <trkpt lat="43.33466" lon="-1.91959">
        <ele>170.29</ele>
        <time>2015-05-24T10:08:34Z</time>
      </trkpt>
      <trkpt lat="43.33466" lon="-1.9196">
        <ele>170.29</ele>
        <time>2015-05-24T10:08:49Z</time>
      </trkpt>
      <trkpt lat="43.33465" lon="-1.91964">
        <ele>168.85</ele>
        <time>2015-05-24T10:09:04Z</time>
      </trkpt>
      <trkpt lat="43.33465" lon="-1.91968">
        <ele>168.37</ele>
        <time>2015-05-24T10:09:21Z</time>
      </trkpt>
      <trkpt lat="43.33464" lon="-1.91971">
        <ele>167.41</ele>
        <time>2015-05-24T10:09:39Z</time>
      </trkpt>
      <trkpt lat="43.33464" lon="-1.91971">
        <ele>165.96</ele>
        <time>2015-05-24T10:09:44Z</time>
      </trkpt>
      <trkpt lat="43.33462" lon="-1.91974">
        <ele>173.66</ele>
        <time>2015-05-24T10:09:47Z</time>
      </trkpt>
      <trkpt lat="43.33461" lon="-1.91973">
        <ele>166.93</ele>
        <time>2015-05-24T10:09:49Z</time>
      </trkpt>
      <trkpt lat="43.3346" lon="-1.91976">
        <ele>165.96</ele>
        <time>2015-05-24T10:10:02Z</time>
      </trkpt>
      <trkpt lat="43.33465" lon="-1.91985">
        <ele>165.96</ele>
        <time>2015-05-24T10:10:14Z</time>
      </trkpt>
      <trkpt lat="43.3347" lon="-1.91991">
        <ele>165.96</ele>
        <time>2015-05-24T10:10:28Z</time>
      </trkpt>
      <trkpt lat="43.33472" lon="-1.92001">
        <ele>164.04</ele>
        <time>2015-05-24T10:10:39Z</time>
      </trkpt>
      <trkpt lat="43.33474" lon="-1.92008">
        <ele>164.04</ele>
        <time>2015-05-24T10:10:50Z</time>
      </trkpt>
      <trkpt lat="43.33475" lon="-1.92009">
        <ele>163.56</ele>
        <time>2015-05-24T10:11:09Z</time>
      </trkpt>
      <trkpt lat="43.33473" lon="-1.92011">
        <ele>162.6</ele>
        <time>2015-05-24T10:11:26Z</time>
      </trkpt>
      <trkpt lat="43.33472" lon="-1.92014">
        <ele>161.64</ele>
        <time>2015-05-24T10:11:42Z</time>
      </trkpt>
      <trkpt lat="43.33472" lon="-1.92017">
        <ele>160.2</ele>
        <time>2015-05-24T10:11:53Z</time>
      </trkpt>
      <trkpt lat="43.33471" lon="-1.92018">
        <ele>159.24</ele>
        <time>2015-05-24T10:12:09Z</time>
      </trkpt>
      <trkpt lat="43.33473" lon="-1.92027">
        <ele>157.79</ele>
        <time>2015-05-24T10:12:22Z</time>
      </trkpt>
      <trkpt lat="43.33474" lon="-1.92032">
        <ele>157.79</ele>
        <time>2015-05-24T10:12:36Z</time>
      </trkpt>
      <trkpt lat="43.33475" lon="-1.92033">
        <ele>157.79</ele>
        <time>2015-05-24T10:12:40Z</time>
      </trkpt>
      <trkpt lat="43.33472" lon="-1.92042">
        <ele>156.83</ele>
        <time>2015-05-24T10:12:54Z</time>
      </trkpt>
      <trkpt lat="43.33472" lon="-1.92049">
        <ele>155.39</ele>
        <time>2015-05-24T10:13:09Z</time>
      </trkpt>
      <trkpt lat="43.33472" lon="-1.92052">
        <ele>154.91</ele>
        <time>2015-05-24T10:13:23Z</time>
      </trkpt>
      <trkpt lat="43.33472" lon="-1.92052">
        <ele>153.95</ele>
        <time>2015-05-24T10:13:47Z</time>
      </trkpt>
      <trkpt lat="43.33472" lon="-1.92053">
        <ele>153.47</ele>
        <time>2015-05-24T10:14:16Z</time>
      </trkpt>
      <trkpt lat="43.33475" lon="-1.92058">
        <ele>152.51</ele>
        <time>2015-05-24T10:14:27Z</time>
      </trkpt>
      <trkpt lat="43.33476" lon="-1.92062">
        <ele>151.06</ele>
        <time>2015-05-24T10:14:40Z</time>
      </trkpt>
      <trkpt lat="43.33476" lon="-1.92065">
        <ele>149.62</ele>
        <time>2015-05-24T10:14:55Z</time>
      </trkpt>
      <trkpt lat="43.33479" lon="-1.92074">
        <ele>148.66</ele>
        <time>2015-05-24T10:15:09Z</time>
      </trkpt>
      <trkpt lat="43.33481" lon="-1.9208">
        <ele>148.66</ele>
        <time>2015-05-24T10:15:22Z</time>
      </trkpt>
      <trkpt lat="43.33481" lon="-1.92086">
        <ele>148.66</ele>
        <time>2015-05-24T10:15:36Z</time>
      </trkpt>
      <trkpt lat="43.33482" lon="-1.92088">
        <ele>148.66</ele>
        <time>2015-05-24T10:15:51Z</time>
      </trkpt>
      <trkpt lat="43.33483" lon="-1.9209">
        <ele>147.7</ele>
        <time>2015-05-24T10:16:07Z</time>
      </trkpt>
      <trkpt lat="43.33483" lon="-1.92097">
        <ele>145.78</ele>
        <time>2015-05-24T10:16:21Z</time>
      </trkpt>
      <trkpt lat="43.33482" lon="-1.92103">
        <ele>143.85</ele>
        <time>2015-05-24T10:16:34Z</time>
      </trkpt>
      <trkpt lat="43.33483" lon="-1.92115">
        <ele>142.41</ele>
        <time>2015-05-24T10:16:47Z</time>
      </trkpt>
      <trkpt lat="43.33484" lon="-1.92124">
        <ele>142.41</ele>
        <time>2015-05-24T10:16:59Z</time>
      </trkpt>
      <trkpt lat="43.33484" lon="-1.92128">
        <ele>141.45</ele>
        <time>2015-05-24T10:17:12Z</time>
      </trkpt>
      <trkpt lat="43.33485" lon="-1.9213">
        <ele>140.01</ele>
        <time>2015-05-24T10:17:25Z</time>
      </trkpt>
      <trkpt lat="43.33487" lon="-1.92136">
        <ele>138.57</ele>
        <time>2015-05-24T10:17:39Z</time>
      </trkpt>
      <trkpt lat="43.33487" lon="-1.92148">
        <ele>136.16</ele>
        <time>2015-05-24T10:17:51Z</time>
      </trkpt>
      <trkpt lat="43.33487" lon="-1.92155">
        <ele>135.68</ele>
        <time>2015-05-24T10:18:05Z</time>
      </trkpt>
      <trkpt lat="43.33487" lon="-1.92158">
        <ele>135.2</ele>
        <time>2015-05-24T10:18:23Z</time>
      </trkpt>
      <trkpt lat="43.33488" lon="-1.92158">
        <ele>134.72</ele>
        <time>2015-05-24T10:18:52Z</time>
      </trkpt>
      <trkpt lat="43.33488" lon="-1.92161">
        <ele>134.72</ele>
        <time>2015-05-24T10:19:13Z</time>
      </trkpt>
      <trkpt lat="43.33488" lon="-1.92162">
        <ele>134.72</ele>
        <time>2015-05-24T10:19:33Z</time>
      </trkpt>
      <trkpt lat="43.3349" lon="-1.92168">
        <ele>134.72</ele>
        <time>2015-05-24T10:19:46Z</time>
      </trkpt>
      <trkpt lat="43.3349" lon="-1.92171">
        <ele>134.72</ele>
        <time>2015-05-24T10:19:58Z</time>
      </trkpt>
      <trkpt lat="43.3349" lon="-1.92175">
        <ele>133.76</ele>
        <time>2015-05-24T10:20:13Z</time>
      </trkpt>
      <trkpt lat="43.33488" lon="-1.92176">
        <ele>132.8</ele>
        <time>2015-05-24T10:20:29Z</time>
      </trkpt>
      <trkpt lat="43.33488" lon="-1.9218">
        <ele>131.36</ele>
        <time>2015-05-24T10:20:41Z</time>
      </trkpt>
      <trkpt lat="43.33491" lon="-1.92186">
        <ele>129.92</ele>
        <time>2015-05-24T10:20:53Z</time>
      </trkpt>
      <trkpt lat="43.33491" lon="-1.92193">
        <ele>127.03</ele>
        <time>2015-05-24T10:21:07Z</time>
      </trkpt>
      <trkpt lat="43.33494" lon="-1.92202">
        <ele>126.55</ele>
        <time>2015-05-24T10:21:20Z</time>
      </trkpt>
      <trkpt lat="43.33494" lon="-1.92211">
        <ele>124.63</ele>
        <time>2015-05-24T10:21:30Z</time>
      </trkpt>
      <trkpt lat="43.33497" lon="-1.92223">
        <ele>124.15</ele>
        <time>2015-05-24T10:21:43Z</time>
      </trkpt>
      <trkpt lat="43.33497" lon="-1.92234">
        <ele>122.71</ele>
        <time>2015-05-24T10:21:56Z</time>
      </trkpt>
      <trkpt lat="43.33496" lon="-1.92247">
        <ele>121.74</ele>
        <time>2015-05-24T10:22:10Z</time>
      </trkpt>
      <trkpt lat="43.33495" lon="-1.92263">
        <ele>121.74</ele>
        <time>2015-05-24T10:22:25Z</time>
      </trkpt>
      <trkpt lat="43.33495" lon="-1.92267">
        <ele>121.74</ele>
        <time>2015-05-24T10:22:28Z</time>
      </trkpt>
      <trkpt lat="43.33495" lon="-1.92272">
        <ele>123.19</ele>
        <time>2015-05-24T10:22:32Z</time>
      </trkpt>
      <trkpt lat="43.33493" lon="-1.92282">
        <ele>123.67</ele>
        <time>2015-05-24T10:22:44Z</time>
      </trkpt>
      <trkpt lat="43.33494" lon="-1.92286">
        <ele>121.74</ele>
        <time>2015-05-24T10:22:57Z</time>
      </trkpt>
      <trkpt lat="43.33496" lon="-1.92292">
        <ele>120.3</ele>
        <time>2015-05-24T10:23:08Z</time>
      </trkpt>
      <trkpt lat="43.33495" lon="-1.92297">
        <ele>118.38</ele>
        <time>2015-05-24T10:23:15Z</time>
      </trkpt>
      <trkpt lat="43.33498" lon="-1.92307">
        <ele>117.9</ele>
        <time>2015-05-24T10:23:29Z</time>
      </trkpt>
      <trkpt lat="43.33498" lon="-1.92311">
        <ele>117.42</ele>
        <time>2015-05-24T10:23:47Z</time>
      </trkpt>
      <trkpt lat="43.33498" lon="-1.92314">
        <ele>116.94</ele>
        <time>2015-05-24T10:24:01Z</time>
      </trkpt>
      <trkpt lat="43.33495" lon="-1.92318">
        <ele>114.53</ele>
        <time>2015-05-24T10:24:13Z</time>
      </trkpt>
      <trkpt lat="43.33497" lon="-1.92321">
        <ele>114.05</ele>
        <time>2015-05-24T10:24:29Z</time>
      </trkpt>
      <trkpt lat="43.33497" lon="-1.92324">
        <ele>112.13</ele>
        <time>2015-05-24T10:24:43Z</time>
      </trkpt>
      <trkpt lat="43.33497" lon="-1.92327">
        <ele>111.17</ele>
        <time>2015-05-24T10:24:53Z</time>
      </trkpt>
      <trkpt lat="43.33498" lon="-1.92329">
        <ele>109.73</ele>
        <time>2015-05-24T10:25:05Z</time>
      </trkpt>
      <trkpt lat="43.33501" lon="-1.92337">
        <ele>107.32</ele>
        <time>2015-05-24T10:25:18Z</time>
      </trkpt>
      <trkpt lat="43.33504" lon="-1.9235">
        <ele>107.32</ele>
        <time>2015-05-24T10:25:29Z</time>
      </trkpt>
      <trkpt lat="43.33506" lon="-1.92364">
        <ele>108.77</ele>
        <time>2015-05-24T10:25:42Z</time>
      </trkpt>
      <trkpt lat="43.33507" lon="-1.92367">
        <ele>108.77</ele>
        <time>2015-05-24T10:25:54Z</time>
      </trkpt>
      <trkpt lat="43.33505" lon="-1.92379">
        <ele>108.77</ele>
        <time>2015-05-24T10:26:10Z</time>
      </trkpt>
      <trkpt lat="43.33506" lon="-1.92392">
        <ele>107.32</ele>
        <time>2015-05-24T10:26:24Z</time>
      </trkpt>
      <trkpt lat="43.33508" lon="-1.92411">
        <ele>103.48</ele>
        <time>2015-05-24T10:26:30Z</time>
      </trkpt>
      <trkpt lat="43.33508" lon="-1.92414">
        <ele>103.48</ele>
        <time>2015-05-24T10:26:31Z</time>
      </trkpt>
      <trkpt lat="43.33509" lon="-1.92427">
        <ele>100.6</ele>
        <time>2015-05-24T10:26:35Z</time>
      </trkpt>
      <trkpt lat="43.33509" lon="-1.9243">
        <ele>99.63</ele>
        <time>2015-05-24T10:26:36Z</time>
      </trkpt>
      <trkpt lat="43.33504" lon="-1.92436">
        <ele>99.15</ele>
        <time>2015-05-24T10:26:40Z</time>
      </trkpt>
      <trkpt lat="43.33499" lon="-1.9244">
        <ele>97.23</ele>
        <time>2015-05-24T10:26:53Z</time>
      </trkpt>
      <trkpt lat="43.33499" lon="-1.92443">
        <ele>97.23</ele>
        <time>2015-05-24T10:26:56Z</time>
      </trkpt>
      <trkpt lat="43.33502" lon="-1.92452">
        <ele>96.75</ele>
        <time>2015-05-24T10:27:03Z</time>
      </trkpt>
      <trkpt lat="43.33505" lon="-1.92452">
        <ele>95.79</ele>
        <time>2015-05-24T10:27:18Z</time>
      </trkpt>
      <trkpt lat="43.33505" lon="-1.92453">
        <ele>95.79</ele>
        <time>2015-05-24T10:28:03Z</time>
      </trkpt>
      <trkpt lat="43.33505" lon="-1.92452">
        <ele>95.79</ele>
        <time>2015-05-24T10:28:56Z</time>
      </trkpt>
      <trkpt lat="43.33505" lon="-1.92451">
        <ele>95.31</ele>
        <time>2015-05-24T10:29:45Z</time>
      </trkpt>
      <trkpt lat="43.33506" lon="-1.92452">
        <ele>95.31</ele>
        <time>2015-05-24T10:30:36Z</time>
      </trkpt>
      <trkpt lat="43.33507" lon="-1.92453">
        <ele>95.31</ele>
        <time>2015-05-24T10:31:24Z</time>
      </trkpt>
      <trkpt lat="43.33507" lon="-1.92452">
        <ele>95.31</ele>
        <time>2015-05-24T10:31:40Z</time>
      </trkpt>
      <trkpt lat="43.33503" lon="-1.92449">
        <ele>96.27</ele>
        <time>2015-05-24T10:31:47Z</time>
      </trkpt>
      <trkpt lat="43.335" lon="-1.92437">
        <ele>96.27</ele>
        <time>2015-05-24T10:31:59Z</time>
      </trkpt>
      <trkpt lat="43.33495" lon="-1.92433">
        <ele>95.31</ele>
        <time>2015-05-24T10:32:03Z</time>
      </trkpt>
      <trkpt lat="43.33485" lon="-1.92422">
        <ele>90.98</ele>
        <time>2015-05-24T10:32:08Z</time>
      </trkpt>
      <trkpt lat="43.33477" lon="-1.92412">
        <ele>87.62</ele>
        <time>2015-05-24T10:32:11Z</time>
      </trkpt>
      <trkpt lat="43.33471" lon="-1.924">
        <ele>84.25</ele>
        <time>2015-05-24T10:32:14Z</time>
      </trkpt>
      <trkpt lat="43.3347" lon="-1.92396">
        <ele>84.25</ele>
        <time>2015-05-24T10:32:15Z</time>
      </trkpt>
      <trkpt lat="43.33469" lon="-1.92391">
        <ele>83.29</ele>
        <time>2015-05-24T10:32:16Z</time>
      </trkpt>
      <trkpt lat="43.3347" lon="-1.92362">
        <ele>79.45</ele>
        <time>2015-05-24T10:32:21Z</time>
      </trkpt>
      <trkpt lat="43.33463" lon="-1.92339">
        <ele>76.08</ele>
        <time>2015-05-24T10:32:26Z</time>
      </trkpt>
      <trkpt lat="43.33447" lon="-1.92319">
        <ele>73.68</ele>
        <time>2015-05-24T10:32:31Z</time>
      </trkpt>
      <trkpt lat="43.33437" lon="-1.92308">
        <ele>72.72</ele>
        <time>2015-05-24T10:32:34Z</time>
      </trkpt>
      <trkpt lat="43.33424" lon="-1.92276">
        <ele>66.95</ele>
        <time>2015-05-24T10:32:39Z</time>
      </trkpt>
      <trkpt lat="43.33421" lon="-1.92261">
        <ele>65.03</ele>
        <time>2015-05-24T10:32:41Z</time>
      </trkpt>
      <trkpt lat="43.3341" lon="-1.92241">
        <ele>59.26</ele>
        <time>2015-05-24T10:32:45Z</time>
      </trkpt>
      <trkpt lat="43.33406" lon="-1.92239">
        <ele>58.3</ele>
        <time>2015-05-24T10:32:46Z</time>
      </trkpt>
      <trkpt lat="43.33386" lon="-1.92221">
        <ele>53.01</ele>
        <time>2015-05-24T10:32:51Z</time>
      </trkpt>
      <trkpt lat="43.33379" lon="-1.92208">
        <ele>50.61</ele>
        <time>2015-05-24T10:32:53Z</time>
      </trkpt>
      <trkpt lat="43.33374" lon="-1.92194">
        <ele>48.2</ele>
        <time>2015-05-24T10:32:55Z</time>
      </trkpt>
      <trkpt lat="43.33361" lon="-1.92163">
        <ele>42.92</ele>
        <time>2015-05-24T10:33:01Z</time>
      </trkpt>
      <trkpt lat="43.33348" lon="-1.92141">
        <ele>40.03</ele>
        <time>2015-05-24T10:33:05Z</time>
      </trkpt>
      <trkpt lat="43.33342" lon="-1.9213">
        <ele>38.59</ele>
        <time>2015-05-24T10:33:07Z</time>
      </trkpt>
      <trkpt lat="43.33321" lon="-1.92103">
        <ele>33.78</ele>
        <time>2015-05-24T10:33:15Z</time>
      </trkpt>
      <trkpt lat="43.33315" lon="-1.92099">
        <ele>33.3</ele>
        <time>2015-05-24T10:33:24Z</time>
      </trkpt>
      <trkpt lat="43.33312" lon="-1.92092">
        <ele>34.74</ele>
        <time>2015-05-24T10:33:35Z</time>
      </trkpt>
      <trkpt lat="43.33312" lon="-1.92092">
        <ele>34.74</ele>
        <time>2015-05-24T10:33:36Z</time>
      </trkpt>
      <trkpt lat="43.33309" lon="-1.92084">
        <ele>37.15</ele>
        <time>2015-05-24T10:33:48Z</time>
      </trkpt>
      <trkpt lat="43.3331" lon="-1.92068">
        <ele>39.55</ele>
        <time>2015-05-24T10:34:03Z</time>
      </trkpt>
      <trkpt lat="43.33309" lon="-1.92066">
        <ele>40.51</ele>
        <time>2015-05-24T10:34:13Z</time>
      </trkpt>
      <trkpt lat="43.3331" lon="-1.92057">
        <ele>41.95</ele>
        <time>2015-05-24T10:34:26Z</time>
      </trkpt>
      <trkpt lat="43.3331" lon="-1.92054">
        <ele>42.92</ele>
        <time>2015-05-24T10:34:40Z</time>
      </trkpt>
      <trkpt lat="43.3331" lon="-1.92047">
        <ele>44.36</ele>
        <time>2015-05-24T10:34:54Z</time>
      </trkpt>
      <trkpt lat="43.3331" lon="-1.92039">
        <ele>45.8</ele>
        <time>2015-05-24T10:35:13Z</time>
      </trkpt>
      <trkpt lat="43.33311" lon="-1.92031">
        <ele>47.24</ele>
        <time>2015-05-24T10:35:27Z</time>
      </trkpt>
      <trkpt lat="43.33313" lon="-1.92022">
        <ele>49.65</ele>
        <time>2015-05-24T10:35:43Z</time>
      </trkpt>
      <trkpt lat="43.33313" lon="-1.92012">
        <ele>52.05</ele>
        <time>2015-05-24T10:35:58Z</time>
      </trkpt>
      <trkpt lat="43.33315" lon="-1.91998">
        <ele>53.97</ele>
        <time>2015-05-24T10:36:15Z</time>
      </trkpt>
      <trkpt lat="43.33315" lon="-1.91985">
        <ele>55.89</ele>
        <time>2015-05-24T10:36:31Z</time>
      </trkpt>
      <trkpt lat="43.33316" lon="-1.91983">
        <ele>56.37</ele>
        <time>2015-05-24T10:36:46Z</time>
      </trkpt>
      <trkpt lat="43.33313" lon="-1.91967">
        <ele>58.3</ele>
        <time>2015-05-24T10:37:01Z</time>
      </trkpt>
      <trkpt lat="43.3331" lon="-1.91955">
        <ele>60.7</ele>
        <time>2015-05-24T10:37:14Z</time>
      </trkpt>
      <trkpt lat="43.33308" lon="-1.91943">
        <ele>62.14</ele>
        <time>2015-05-24T10:37:30Z</time>
      </trkpt>
      <trkpt lat="43.33307" lon="-1.91927">
        <ele>64.55</ele>
        <time>2015-05-24T10:37:46Z</time>
      </trkpt>
      <trkpt lat="43.33305" lon="-1.91912">
        <ele>66.47</ele>
        <time>2015-05-24T10:38:01Z</time>
      </trkpt>
      <trkpt lat="43.33304" lon="-1.91895">
        <ele>68.87</ele>
        <time>2015-05-24T10:38:17Z</time>
      </trkpt>
      <trkpt lat="43.33303" lon="-1.91881">
        <ele>70.79</ele>
        <time>2015-05-24T10:38:31Z</time>
      </trkpt>
      <trkpt lat="43.33301" lon="-1.91872">
        <ele>71.76</ele>
        <time>2015-05-24T10:38:42Z</time>
      </trkpt>
      <trkpt lat="43.33299" lon="-1.91855">
        <ele>74.64</ele>
        <time>2015-05-24T10:38:57Z</time>
      </trkpt>
      <trkpt lat="43.33296" lon="-1.9184">
        <ele>76.08</ele>
        <time>2015-05-24T10:39:10Z</time>
      </trkpt>
      <trkpt lat="43.33293" lon="-1.91818">
        <ele>77.52</ele>
        <time>2015-05-24T10:39:27Z</time>
      </trkpt>
      <trkpt lat="43.33292" lon="-1.91797">
        <ele>79.45</ele>
        <time>2015-05-24T10:39:44Z</time>
      </trkpt>
      <trkpt lat="43.33292" lon="-1.91794">
        <ele>79.93</ele>
        <time>2015-05-24T10:39:47Z</time>
      </trkpt>
      <trkpt lat="43.33289" lon="-1.91778">
        <ele>80.89</ele>
        <time>2015-05-24T10:39:59Z</time>
      </trkpt>
      <trkpt lat="43.3329" lon="-1.91774">
        <ele>81.37</ele>
        <time>2015-05-24T10:40:02Z</time>
      </trkpt>
      <trkpt lat="43.33293" lon="-1.91755">
        <ele>82.81</ele>
        <time>2015-05-24T10:40:17Z</time>
      </trkpt>
      <trkpt lat="43.33296" lon="-1.91742">
        <ele>84.25</ele>
        <time>2015-05-24T10:40:30Z</time>
      </trkpt>
      <trkpt lat="43.33296" lon="-1.91731">
        <ele>86.66</ele>
        <time>2015-05-24T10:40:43Z</time>
      </trkpt>
      <trkpt lat="43.33298" lon="-1.91718">
        <ele>89.06</ele>
        <time>2015-05-24T10:40:57Z</time>
      </trkpt>
      <trkpt lat="43.33298" lon="-1.91707">
        <ele>91.94</ele>
        <time>2015-05-24T10:41:11Z</time>
      </trkpt>
      <trkpt lat="43.33298" lon="-1.91696">
        <ele>93.87</ele>
        <time>2015-05-24T10:41:26Z</time>
      </trkpt>
      <trkpt lat="43.33299" lon="-1.91686">
        <ele>96.75</ele>
        <time>2015-05-24T10:41:42Z</time>
      </trkpt>
      <trkpt lat="43.33301" lon="-1.91673">
        <ele>99.15</ele>
        <time>2015-05-24T10:41:58Z</time>
      </trkpt>
      <trkpt lat="43.333" lon="-1.91662">
        <ele>101.08</ele>
        <time>2015-05-24T10:42:11Z</time>
      </trkpt>
      <trkpt lat="43.33301" lon="-1.9165">
        <ele>103.48</ele>
        <time>2015-05-24T10:42:26Z</time>
      </trkpt>
      <trkpt lat="43.33301" lon="-1.9164">
        <ele>105.4</ele>
        <time>2015-05-24T10:42:39Z</time>
      </trkpt>
      <trkpt lat="43.33301" lon="-1.91628">
        <ele>106.84</ele>
        <time>2015-05-24T10:42:54Z</time>
      </trkpt>
      <trkpt lat="43.33301" lon="-1.91618">
        <ele>108.77</ele>
        <time>2015-05-24T10:43:07Z</time>
      </trkpt>
      <trkpt lat="43.33301" lon="-1.91603">
        <ele>110.69</ele>
        <time>2015-05-24T10:43:23Z</time>
      </trkpt>
      <trkpt lat="43.33301" lon="-1.91593">
        <ele>113.09</ele>
        <time>2015-05-24T10:43:35Z</time>
      </trkpt>
      <trkpt lat="43.33301" lon="-1.91578">
        <ele>114.53</ele>
        <time>2015-05-24T10:43:50Z</time>
      </trkpt>
      <trkpt lat="43.33302" lon="-1.9156">
        <ele>116.46</ele>
        <time>2015-05-24T10:44:06Z</time>
      </trkpt>
      <trkpt lat="43.33303" lon="-1.91541">
        <ele>118.38</ele>
        <time>2015-05-24T10:44:21Z</time>
      </trkpt>
      <trkpt lat="43.33305" lon="-1.91526">
        <ele>120.3</ele>
        <time>2015-05-24T10:44:34Z</time>
      </trkpt>
      <trkpt lat="43.33307" lon="-1.91511">
        <ele>121.74</ele>
        <time>2015-05-24T10:44:49Z</time>
      </trkpt>
      <trkpt lat="43.33308" lon="-1.91507">
        <ele>122.22</ele>
        <time>2015-05-24T10:45:05Z</time>
      </trkpt>
      <trkpt lat="43.33307" lon="-1.91504">
        <ele>121.74</ele>
        <time>2015-05-24T10:45:11Z</time>
      </trkpt>
      <trkpt lat="43.33304" lon="-1.91489">
        <ele>123.19</ele>
        <time>2015-05-24T10:45:19Z</time>
      </trkpt>
      <trkpt lat="43.33305" lon="-1.91481">
        <ele>123.67</ele>
        <time>2015-05-24T10:45:22Z</time>
      </trkpt>
      <trkpt lat="43.33308" lon="-1.91473">
        <ele>124.15</ele>
        <time>2015-05-24T10:45:27Z</time>
      </trkpt>
      <trkpt lat="43.33308" lon="-1.91469">
        <ele>124.63</ele>
        <time>2015-05-24T10:45:29Z</time>
      </trkpt>
      <trkpt lat="43.33308" lon="-1.91451">
        <ele>126.55</ele>
        <time>2015-05-24T10:45:40Z</time>
      </trkpt>
      <trkpt lat="43.33306" lon="-1.91447">
        <ele>127.03</ele>
        <time>2015-05-24T10:45:42Z</time>
      </trkpt>
      <trkpt lat="43.33307" lon="-1.9142">
        <ele>128.95</ele>
        <time>2015-05-24T10:45:57Z</time>
      </trkpt>
      <trkpt lat="43.33307" lon="-1.91415">
        <ele>129.43</ele>
        <time>2015-05-24T10:46:00Z</time>
      </trkpt>
      <trkpt lat="43.33312" lon="-1.91404">
        <ele>129.92</ele>
        <time>2015-05-24T10:46:06Z</time>
      </trkpt>
      <trkpt lat="43.33312" lon="-1.91397">
        <ele>130.4</ele>
        <time>2015-05-24T10:46:10Z</time>
      </trkpt>
      <trkpt lat="43.3331" lon="-1.9137">
        <ele>132.32</ele>
        <time>2015-05-24T10:46:24Z</time>
      </trkpt>
      <trkpt lat="43.33311" lon="-1.91349">
        <ele>135.2</ele>
        <time>2015-05-24T10:46:38Z</time>
      </trkpt>
      <trkpt lat="43.33306" lon="-1.9133">
        <ele>137.61</ele>
        <time>2015-05-24T10:46:47Z</time>
      </trkpt>
      <trkpt lat="43.33309" lon="-1.91309">
        <ele>139.05</ele>
        <time>2015-05-24T10:47:00Z</time>
      </trkpt>
      <trkpt lat="43.3331" lon="-1.91288">
        <ele>140.49</ele>
        <time>2015-05-24T10:47:12Z</time>
      </trkpt>
      <trkpt lat="43.33312" lon="-1.91267">
        <ele>142.41</ele>
        <time>2015-05-24T10:47:24Z</time>
      </trkpt>
      <trkpt lat="43.33315" lon="-1.91259">
        <ele>143.85</ele>
        <time>2015-05-24T10:47:28Z</time>
      </trkpt>
      <trkpt lat="43.33317" lon="-1.91251">
        <ele>144.82</ele>
        <time>2015-05-24T10:47:32Z</time>
      </trkpt>
      <trkpt lat="43.33315" lon="-1.91241">
        <ele>145.78</ele>
        <time>2015-05-24T10:47:38Z</time>
      </trkpt>
      <trkpt lat="43.33315" lon="-1.91231">
        <ele>146.26</ele>
        <time>2015-05-24T10:47:43Z</time>
      </trkpt>
      <trkpt lat="43.33314" lon="-1.91226">
        <ele>147.22</ele>
        <time>2015-05-24T10:47:46Z</time>
      </trkpt>
      <trkpt lat="43.33316" lon="-1.91211">
        <ele>148.66</ele>
        <time>2015-05-24T10:47:53Z</time>
      </trkpt>
      <trkpt lat="43.3332" lon="-1.91184">
        <ele>150.1</ele>
        <time>2015-05-24T10:48:06Z</time>
      </trkpt>
      <trkpt lat="43.33323" lon="-1.91172">
        <ele>151.06</ele>
        <time>2015-05-24T10:48:12Z</time>
      </trkpt>
      <trkpt lat="43.33329" lon="-1.91162">
        <ele>151.54</ele>
        <time>2015-05-24T10:48:18Z</time>
      </trkpt>
      <trkpt lat="43.33329" lon="-1.91144">
        <ele>152.03</ele>
        <time>2015-05-24T10:48:27Z</time>
      </trkpt>
      <trkpt lat="43.33328" lon="-1.91142">
        <ele>152.03</ele>
        <time>2015-05-24T10:48:28Z</time>
      </trkpt>
      <trkpt lat="43.33326" lon="-1.91135">
        <ele>152.03</ele>
        <time>2015-05-24T10:48:31Z</time>
      </trkpt>
      <trkpt lat="43.33327" lon="-1.9113">
        <ele>152.03</ele>
        <time>2015-05-24T10:48:34Z</time>
      </trkpt>
      <trkpt lat="43.33321" lon="-1.91111">
        <ele>153.47</ele>
        <time>2015-05-24T10:48:44Z</time>
      </trkpt>
      <trkpt lat="43.33328" lon="-1.9109">
        <ele>154.91</ele>
        <time>2015-05-24T10:48:55Z</time>
      </trkpt>
      <trkpt lat="43.33326" lon="-1.91081">
        <ele>155.39</ele>
        <time>2015-05-24T10:49:00Z</time>
      </trkpt>
      <trkpt lat="43.33327" lon="-1.91068">
        <ele>156.35</ele>
        <time>2015-05-24T10:49:06Z</time>
      </trkpt>
      <trkpt lat="43.33327" lon="-1.91057">
        <ele>157.31</ele>
        <time>2015-05-24T10:49:12Z</time>
      </trkpt>
      <trkpt lat="43.33324" lon="-1.91036">
        <ele>158.27</ele>
        <time>2015-05-24T10:49:22Z</time>
      </trkpt>
      <trkpt lat="43.33325" lon="-1.91027">
        <ele>158.75</ele>
        <time>2015-05-24T10:49:26Z</time>
      </trkpt>
      <trkpt lat="43.3333" lon="-1.91008">
        <ele>159.24</ele>
        <time>2015-05-24T10:49:34Z</time>
      </trkpt>
      <trkpt lat="43.33333" lon="-1.90972">
        <ele>160.2</ele>
        <time>2015-05-24T10:49:47Z</time>
      </trkpt>
      <trkpt lat="43.3333" lon="-1.90963">
        <ele>160.68</ele>
        <time>2015-05-24T10:49:52Z</time>
      </trkpt>
      <trkpt lat="43.33328" lon="-1.90952">
        <ele>161.64</ele>
        <time>2015-05-24T10:49:57Z</time>
      </trkpt>
      <trkpt lat="43.33328" lon="-1.90948">
        <ele>161.64</ele>
        <time>2015-05-24T10:49:59Z</time>
      </trkpt>
      <trkpt lat="43.33332" lon="-1.90923">
        <ele>164.04</ele>
        <time>2015-05-24T10:50:11Z</time>
      </trkpt>
      <trkpt lat="43.33333" lon="-1.90895">
        <ele>164.52</ele>
        <time>2015-05-24T10:50:25Z</time>
      </trkpt>
      <trkpt lat="43.33331" lon="-1.90876">
        <ele>165</ele>
        <time>2015-05-24T10:50:34Z</time>
      </trkpt>
      <trkpt lat="43.33333" lon="-1.90861">
        <ele>165.48</ele>
        <time>2015-05-24T10:50:40Z</time>
      </trkpt>
      <trkpt lat="43.33332" lon="-1.90832">
        <ele>167.89</ele>
        <time>2015-05-24T10:50:55Z</time>
      </trkpt>
      <trkpt lat="43.33331" lon="-1.90827">
        <ele>169.33</ele>
        <time>2015-05-24T10:50:59Z</time>
      </trkpt>
      <trkpt lat="43.3333" lon="-1.90825">
        <ele>169.81</ele>
        <time>2015-05-24T10:51:01Z</time>
      </trkpt>
      <trkpt lat="43.33327" lon="-1.90815">
        <ele>171.73</ele>
        <time>2015-05-24T10:51:07Z</time>
      </trkpt>
      <trkpt lat="43.33326" lon="-1.90808">
        <ele>172.21</ele>
        <time>2015-05-24T10:51:12Z</time>
      </trkpt>
      <trkpt lat="43.33326" lon="-1.90792">
        <ele>174.14</ele>
        <time>2015-05-24T10:51:26Z</time>
      </trkpt>
      <trkpt lat="43.33324" lon="-1.90787">
        <ele>175.1</ele>
        <time>2015-05-24T10:51:43Z</time>
      </trkpt>
      <trkpt lat="43.33322" lon="-1.9078">
        <ele>175.1</ele>
        <time>2015-05-24T10:52:02Z</time>
      </trkpt>
      <trkpt lat="43.33323" lon="-1.90779">
        <ele>175.1</ele>
        <time>2015-05-24T10:52:04Z</time>
      </trkpt>
      <trkpt lat="43.3332" lon="-1.90778">
        <ele>175.1</ele>
        <time>2015-05-24T10:52:07Z</time>
      </trkpt>
      <trkpt lat="43.33316" lon="-1.90783">
        <ele>175.58</ele>
        <time>2015-05-24T10:52:13Z</time>
      </trkpt>
      <trkpt lat="43.33315" lon="-1.90793">
        <ele>177.5</ele>
        <time>2015-05-24T10:52:25Z</time>
      </trkpt>
      <trkpt lat="43.33307" lon="-1.9082">
        <ele>180.87</ele>
        <time>2015-05-24T10:52:41Z</time>
      </trkpt>
      <trkpt lat="43.33294" lon="-1.90837">
        <ele>182.31</ele>
        <time>2015-05-24T10:52:55Z</time>
      </trkpt>
      <trkpt lat="43.33286" lon="-1.90847">
        <ele>183.75</ele>
        <time>2015-05-24T10:53:02Z</time>
      </trkpt>
      <trkpt lat="43.3327" lon="-1.90867">
        <ele>186.15</ele>
        <time>2015-05-24T10:53:18Z</time>
      </trkpt>
      <trkpt lat="43.33261" lon="-1.9089">
        <ele>189.52</ele>
        <time>2015-05-24T10:53:33Z</time>
      </trkpt>
      <trkpt lat="43.3325" lon="-1.90913">
        <ele>191.44</ele>
        <time>2015-05-24T10:53:48Z</time>
      </trkpt>
      <trkpt lat="43.33242" lon="-1.90938">
        <ele>193.36</ele>
        <time>2015-05-24T10:54:03Z</time>
      </trkpt>
      <trkpt lat="43.33241" lon="-1.90939">
        <ele>193.36</ele>
        <time>2015-05-24T10:54:04Z</time>
      </trkpt>
      <trkpt lat="43.33234" lon="-1.90937">
        <ele>194.8</ele>
        <time>2015-05-24T10:54:10Z</time>
      </trkpt>
      <trkpt lat="43.33233" lon="-1.90932">
        <ele>195.28</ele>
        <time>2015-05-24T10:54:13Z</time>
      </trkpt>
      <trkpt lat="43.33231" lon="-1.90912">
        <ele>198.17</ele>
        <time>2015-05-24T10:54:25Z</time>
      </trkpt>
      <trkpt lat="43.33231" lon="-1.909">
        <ele>199.61</ele>
        <time>2015-05-24T10:54:32Z</time>
      </trkpt>
      <trkpt lat="43.3323" lon="-1.90875">
        <ele>202.49</ele>
        <time>2015-05-24T10:54:47Z</time>
      </trkpt>
      <trkpt lat="43.33232" lon="-1.90848">
        <ele>204.9</ele>
        <time>2015-05-24T10:55:02Z</time>
      </trkpt>
      <trkpt lat="43.33231" lon="-1.90839">
        <ele>205.86</ele>
        <time>2015-05-24T10:55:07Z</time>
      </trkpt>
      <trkpt lat="43.3323" lon="-1.90815">
        <ele>208.26</ele>
        <time>2015-05-24T10:55:23Z</time>
      </trkpt>
      <trkpt lat="43.3323" lon="-1.90787">
        <ele>209.7</ele>
        <time>2015-05-24T10:55:38Z</time>
      </trkpt>
      <trkpt lat="43.33229" lon="-1.90757">
        <ele>211.15</ele>
        <time>2015-05-24T10:55:53Z</time>
      </trkpt>
      <trkpt lat="43.33227" lon="-1.90735">
        <ele>211.15</ele>
        <time>2015-05-24T10:56:03Z</time>
      </trkpt>
      <trkpt lat="43.3323" lon="-1.90719">
        <ele>212.11</ele>
        <time>2015-05-24T10:56:10Z</time>
      </trkpt>
      <trkpt lat="43.33232" lon="-1.9068">
        <ele>213.07</ele>
        <time>2015-05-24T10:56:26Z</time>
      </trkpt>
      <trkpt lat="43.33234" lon="-1.90646">
        <ele>214.51</ele>
        <time>2015-05-24T10:56:42Z</time>
      </trkpt>
      <trkpt lat="43.33238" lon="-1.90612">
        <ele>215.47</ele>
        <time>2015-05-24T10:56:57Z</time>
      </trkpt>
      <trkpt lat="43.33243" lon="-1.90573">
        <ele>215.95</ele>
        <time>2015-05-24T10:57:11Z</time>
      </trkpt>
      <trkpt lat="43.33247" lon="-1.90537">
        <ele>217.4</ele>
        <time>2015-05-24T10:57:25Z</time>
      </trkpt>
      <trkpt lat="43.3325" lon="-1.90508">
        <ele>219.8</ele>
        <time>2015-05-24T10:57:40Z</time>
      </trkpt>
      <trkpt lat="43.33254" lon="-1.90486">
        <ele>222.2</ele>
        <time>2015-05-24T10:57:52Z</time>
      </trkpt>
      <trkpt lat="43.33259" lon="-1.90465">
        <ele>224.61</ele>
        <time>2015-05-24T10:58:05Z</time>
      </trkpt>
      <trkpt lat="43.33259" lon="-1.90456">
        <ele>225.57</ele>
        <time>2015-05-24T10:58:11Z</time>
      </trkpt>
      <trkpt lat="43.33262" lon="-1.90449">
        <ele>226.53</ele>
        <time>2015-05-24T10:58:15Z</time>
      </trkpt>
      <trkpt lat="43.33263" lon="-1.90442">
        <ele>227.49</ele>
        <time>2015-05-24T10:58:20Z</time>
      </trkpt>
      <trkpt lat="43.33264" lon="-1.90437">
        <ele>227.49</ele>
        <time>2015-05-24T10:58:23Z</time>
      </trkpt>
      <trkpt lat="43.33263" lon="-1.90419">
        <ele>228.45</ele>
        <time>2015-05-24T10:58:35Z</time>
      </trkpt>
      <trkpt lat="43.3327" lon="-1.904">
        <ele>228.45</ele>
        <time>2015-05-24T10:58:48Z</time>
      </trkpt>
      <trkpt lat="43.33273" lon="-1.90373">
        <ele>230.37</ele>
        <time>2015-05-24T10:59:02Z</time>
      </trkpt>
      <trkpt lat="43.33273" lon="-1.90357">
        <ele>231.81</ele>
        <time>2015-05-24T10:59:11Z</time>
      </trkpt>
      <trkpt lat="43.33275" lon="-1.90328">
        <ele>234.7</ele>
        <time>2015-05-24T10:59:27Z</time>
      </trkpt>
      <trkpt lat="43.33276" lon="-1.90301">
        <ele>236.62</ele>
        <time>2015-05-24T10:59:42Z</time>
      </trkpt>
      <trkpt lat="43.33278" lon="-1.9028">
        <ele>239.02</ele>
        <time>2015-05-24T10:59:54Z</time>
      </trkpt>
      <trkpt lat="43.33276" lon="-1.90249">
        <ele>241.43</ele>
        <time>2015-05-24T11:00:09Z</time>
      </trkpt>
      <trkpt lat="43.33279" lon="-1.90212">
        <ele>244.31</ele>
        <time>2015-05-24T11:00:26Z</time>
      </trkpt>
      <trkpt lat="43.33284" lon="-1.90189">
        <ele>245.27</ele>
        <time>2015-05-24T11:00:39Z</time>
      </trkpt>
      <trkpt lat="43.33286" lon="-1.90179">
        <ele>245.75</ele>
        <time>2015-05-24T11:00:52Z</time>
      </trkpt>
      <trkpt lat="43.33284" lon="-1.90179">
        <ele>245.75</ele>
        <time>2015-05-24T11:01:18Z</time>
      </trkpt>
      <trkpt lat="43.33287" lon="-1.90184">
        <ele>245.75</ele>
        <time>2015-05-24T11:01:54Z</time>
      </trkpt>
      <trkpt lat="43.33286" lon="-1.90176">
        <ele>246.23</ele>
        <time>2015-05-24T11:02:29Z</time>
      </trkpt>
      <trkpt lat="43.33286" lon="-1.90175">
        <ele>246.23</ele>
        <time>2015-05-24T11:02:45Z</time>
      </trkpt>
      <trkpt lat="43.33283" lon="-1.90177">
        <ele>246.23</ele>
        <time>2015-05-24T11:02:59Z</time>
      </trkpt>
      <trkpt lat="43.33285" lon="-1.90176">
        <ele>246.23</ele>
        <time>2015-05-24T11:03:31Z</time>
      </trkpt>
      <trkpt lat="43.33286" lon="-1.9018">
        <ele>246.72</ele>
        <time>2015-05-24T11:04:11Z</time>
      </trkpt>
      <trkpt lat="43.33286" lon="-1.90181">
        <ele>246.72</ele>
        <time>2015-05-24T11:04:30Z</time>
      </trkpt>
      <trkpt lat="43.33289" lon="-1.90175">
        <ele>246.72</ele>
        <time>2015-05-24T11:04:46Z</time>
      </trkpt>
      <trkpt lat="43.33291" lon="-1.90171">
        <ele>246.72</ele>
        <time>2015-05-24T11:05:05Z</time>
      </trkpt>
      <trkpt lat="43.33292" lon="-1.90169">
        <ele>247.2</ele>
        <time>2015-05-24T11:05:06Z</time>
      </trkpt>
      <trkpt lat="43.33291" lon="-1.90154">
        <ele>247.68</ele>
        <time>2015-05-24T11:05:14Z</time>
      </trkpt>
      <trkpt lat="43.33289" lon="-1.90138">
        <ele>249.12</ele>
        <time>2015-05-24T11:05:23Z</time>
      </trkpt>
      <trkpt lat="43.33287" lon="-1.90126">
        <ele>250.08</ele>
        <time>2015-05-24T11:05:30Z</time>
      </trkpt>
      <trkpt lat="43.33283" lon="-1.90089">
        <ele>252</ele>
        <time>2015-05-24T11:05:46Z</time>
      </trkpt>
      <trkpt lat="43.33292" lon="-1.90064">
        <ele>252.96</ele>
        <time>2015-05-24T11:05:59Z</time>
      </trkpt>
      <trkpt lat="43.33316" lon="-1.90034">
        <ele>253.93</ele>
        <time>2015-05-24T11:06:14Z</time>
      </trkpt>
      <trkpt lat="43.33341" lon="-1.89981">
        <ele>255.37</ele>
        <time>2015-05-24T11:06:32Z</time>
      </trkpt>
      <trkpt lat="43.3334" lon="-1.89927">
        <ele>256.33</ele>
        <time>2015-05-24T11:06:49Z</time>
      </trkpt>
      <trkpt lat="43.33353" lon="-1.89878">
        <ele>257.29</ele>
        <time>2015-05-24T11:07:04Z</time>
      </trkpt>
      <trkpt lat="43.33371" lon="-1.89807">
        <ele>258.25</ele>
        <time>2015-05-24T11:07:24Z</time>
      </trkpt>
      <trkpt lat="43.33383" lon="-1.8972">
        <ele>259.21</ele>
        <time>2015-05-24T11:07:44Z</time>
      </trkpt>
      <trkpt lat="43.33398" lon="-1.89646">
        <ele>260.17</ele>
        <time>2015-05-24T11:08:02Z</time>
      </trkpt>
      <trkpt lat="43.33414" lon="-1.8958">
        <ele>261.62</ele>
        <time>2015-05-24T11:08:19Z</time>
      </trkpt>
      <trkpt lat="43.33424" lon="-1.89503">
        <ele>263.54</ele>
        <time>2015-05-24T11:08:39Z</time>
      </trkpt>
      <trkpt lat="43.33423" lon="-1.89446">
        <ele>265.46</ele>
        <time>2015-05-24T11:08:56Z</time>
      </trkpt>
      <trkpt lat="43.33415" lon="-1.89404">
        <ele>267.38</ele>
        <time>2015-05-24T11:09:13Z</time>
      </trkpt>
      <trkpt lat="43.3341" lon="-1.89392">
        <ele>267.86</ele>
        <time>2015-05-24T11:09:19Z</time>
      </trkpt>
      <trkpt lat="43.33405" lon="-1.89368">
        <ele>270.75</ele>
        <time>2015-05-24T11:09:33Z</time>
      </trkpt>
      <trkpt lat="43.33403" lon="-1.89355">
        <ele>271.71</ele>
        <time>2015-05-24T11:09:40Z</time>
      </trkpt>
      <trkpt lat="43.33398" lon="-1.89347">
        <ele>273.15</ele>
        <time>2015-05-24T11:09:46Z</time>
      </trkpt>
      <trkpt lat="43.33397" lon="-1.89333">
        <ele>273.15</ele>
        <time>2015-05-24T11:09:53Z</time>
      </trkpt>
      <trkpt lat="43.33382" lon="-1.89315">
        <ele>275.56</ele>
        <time>2015-05-24T11:10:06Z</time>
      </trkpt>
      <trkpt lat="43.33373" lon="-1.89294">
        <ele>278.44</ele>
        <time>2015-05-24T11:10:20Z</time>
      </trkpt>
      <trkpt lat="43.33373" lon="-1.89276">
        <ele>279.4</ele>
        <time>2015-05-24T11:10:31Z</time>
      </trkpt>
      <trkpt lat="43.33373" lon="-1.89272">
        <ele>279.4</ele>
        <time>2015-05-24T11:10:33Z</time>
      </trkpt>
      <trkpt lat="43.3338" lon="-1.89238">
        <ele>280.36</ele>
        <time>2015-05-24T11:10:47Z</time>
      </trkpt>
      <trkpt lat="43.33381" lon="-1.89236">
        <ele>279.88</ele>
        <time>2015-05-24T11:10:48Z</time>
      </trkpt>
      <trkpt lat="43.33383" lon="-1.89231">
        <ele>279.88</ele>
        <time>2015-05-24T11:10:51Z</time>
      </trkpt>
      <trkpt lat="43.33385" lon="-1.89224">
        <ele>280.84</ele>
        <time>2015-05-24T11:10:54Z</time>
      </trkpt>
      <trkpt lat="43.33389" lon="-1.89207">
        <ele>282.28</ele>
        <time>2015-05-24T11:11:01Z</time>
      </trkpt>
      <trkpt lat="43.3339" lon="-1.89202">
        <ele>282.77</ele>
        <time>2015-05-24T11:11:03Z</time>
      </trkpt>
      <trkpt lat="43.33392" lon="-1.89191">
        <ele>283.25</ele>
        <time>2015-05-24T11:11:08Z</time>
      </trkpt>
      <trkpt lat="43.33399" lon="-1.89161">
        <ele>283.25</ele>
        <time>2015-05-24T11:11:21Z</time>
      </trkpt>
      <trkpt lat="43.33402" lon="-1.89134">
        <ele>284.69</ele>
        <time>2015-05-24T11:11:32Z</time>
      </trkpt>
      <trkpt lat="43.33402" lon="-1.89114">
        <ele>287.09</ele>
        <time>2015-05-24T11:11:43Z</time>
      </trkpt>
      <trkpt lat="43.33403" lon="-1.891">
        <ele>289.01</ele>
        <time>2015-05-24T11:11:57Z</time>
      </trkpt>
      <trkpt lat="43.33404" lon="-1.89086">
        <ele>290.94</ele>
        <time>2015-05-24T11:12:12Z</time>
      </trkpt>
      <trkpt lat="43.33405" lon="-1.89074">
        <ele>291.42</ele>
        <time>2015-05-24T11:12:27Z</time>
      </trkpt>
      <trkpt lat="43.33406" lon="-1.89058">
        <ele>291.9</ele>
        <time>2015-05-24T11:12:46Z</time>
      </trkpt>
      <trkpt lat="43.33406" lon="-1.89057">
        <ele>292.38</ele>
        <time>2015-05-24T11:12:47Z</time>
      </trkpt>
      <trkpt lat="43.33406" lon="-1.89033">
        <ele>294.3</ele>
        <time>2015-05-24T11:12:59Z</time>
      </trkpt>
      <trkpt lat="43.33406" lon="-1.89012">
        <ele>296.22</ele>
        <time>2015-05-24T11:13:09Z</time>
      </trkpt>
      <trkpt lat="43.33414" lon="-1.88982">
        <ele>298.63</ele>
        <time>2015-05-24T11:13:22Z</time>
      </trkpt>
      <trkpt lat="43.3342" lon="-1.88966">
        <ele>300.55</ele>
        <time>2015-05-24T11:13:31Z</time>
      </trkpt>
      <trkpt lat="43.33423" lon="-1.88955">
        <ele>301.99</ele>
        <time>2015-05-24T11:13:37Z</time>
      </trkpt>
      <trkpt lat="43.33426" lon="-1.88948">
        <ele>302.95</ele>
        <time>2015-05-24T11:13:41Z</time>
      </trkpt>
      <trkpt lat="43.33428" lon="-1.88926">
        <ele>304.88</ele>
        <time>2015-05-24T11:13:52Z</time>
      </trkpt>
      <trkpt lat="43.33429" lon="-1.88914">
        <ele>306.32</ele>
        <time>2015-05-24T11:13:58Z</time>
      </trkpt>
      <trkpt lat="43.33434" lon="-1.88889">
        <ele>308.24</ele>
        <time>2015-05-24T11:14:12Z</time>
      </trkpt>
      <trkpt lat="43.33441" lon="-1.88865">
        <ele>310.16</ele>
        <time>2015-05-24T11:14:25Z</time>
      </trkpt>
      <trkpt lat="43.33443" lon="-1.88858">
        <ele>311.12</ele>
        <time>2015-05-24T11:14:30Z</time>
      </trkpt>
      <trkpt lat="43.33449" lon="-1.88837">
        <ele>313.53</ele>
        <time>2015-05-24T11:14:44Z</time>
      </trkpt>
      <trkpt lat="43.33456" lon="-1.88814">
        <ele>315.93</ele>
        <time>2015-05-24T11:14:58Z</time>
      </trkpt>
      <trkpt lat="43.33457" lon="-1.88806">
        <ele>316.41</ele>
        <time>2015-05-24T11:15:09Z</time>
      </trkpt>
      <trkpt lat="43.33458" lon="-1.88801">
        <ele>316.41</ele>
        <time>2015-05-24T11:15:37Z</time>
      </trkpt>
      <trkpt lat="43.3346" lon="-1.88799">
        <ele>316.89</ele>
        <time>2015-05-24T11:15:47Z</time>
      </trkpt>
      <trkpt lat="43.33462" lon="-1.88775">
        <ele>318.81</ele>
        <time>2015-05-24T11:16:00Z</time>
      </trkpt>
      <trkpt lat="43.33466" lon="-1.88748">
        <ele>320.26</ele>
        <time>2015-05-24T11:16:12Z</time>
      </trkpt>
      <trkpt lat="43.33475" lon="-1.88726">
        <ele>321.22</ele>
        <time>2015-05-24T11:16:23Z</time>
      </trkpt>
      <trkpt lat="43.33486" lon="-1.88699">
        <ele>320.74</ele>
        <time>2015-05-24T11:16:35Z</time>
      </trkpt>
      <trkpt lat="43.33488" lon="-1.88691">
        <ele>319.78</ele>
        <time>2015-05-24T11:16:37Z</time>
      </trkpt>
      <trkpt lat="43.33487" lon="-1.88673">
        <ele>317.37</ele>
        <time>2015-05-24T11:16:41Z</time>
      </trkpt>
      <trkpt lat="43.33487" lon="-1.8867">
        <ele>316.89</ele>
        <time>2015-05-24T11:16:42Z</time>
      </trkpt>
      <trkpt lat="43.33484" lon="-1.88657">
        <ele>316.41</ele>
        <time>2015-05-24T11:16:45Z</time>
      </trkpt>
      <trkpt lat="43.3348" lon="-1.88628">
        <ele>314.01</ele>
        <time>2015-05-24T11:16:51Z</time>
      </trkpt>
      <trkpt lat="43.33481" lon="-1.88603">
        <ele>311.12</ele>
        <time>2015-05-24T11:16:55Z</time>
      </trkpt>
      <trkpt lat="43.33484" lon="-1.88543">
        <ele>309.2</ele>
        <time>2015-05-24T11:17:07Z</time>
      </trkpt>
      <trkpt lat="43.33482" lon="-1.88536">
        <ele>309.2</ele>
        <time>2015-05-24T11:17:17Z</time>
      </trkpt>
      <trkpt lat="43.33485" lon="-1.88532">
        <ele>309.2</ele>
        <time>2015-05-24T11:17:30Z</time>
      </trkpt>
      <trkpt lat="43.33484" lon="-1.88531">
        <ele>309.2</ele>
        <time>2015-05-24T11:17:44Z</time>
      </trkpt>
      <trkpt lat="43.33482" lon="-1.8853">
        <ele>309.2</ele>
        <time>2015-05-24T11:17:54Z</time>
      </trkpt>
      <trkpt lat="43.33486" lon="-1.8853">
        <ele>309.2</ele>
        <time>2015-05-24T11:18:18Z</time>
      </trkpt>
      <trkpt lat="43.33481" lon="-1.88521">
        <ele>309.2</ele>
        <time>2015-05-24T11:18:29Z</time>
      </trkpt>
      <trkpt lat="43.3348" lon="-1.8852">
        <ele>309.68</ele>
        <time>2015-05-24T11:18:41Z</time>
      </trkpt>
      <trkpt lat="43.33486" lon="-1.8851">
        <ele>308.24</ele>
        <time>2015-05-24T11:18:47Z</time>
      </trkpt>
      <trkpt lat="43.3349" lon="-1.88506">
        <ele>307.76</ele>
        <time>2015-05-24T11:18:49Z</time>
      </trkpt>
      <trkpt lat="43.33502" lon="-1.88492">
        <ele>304.88</ele>
        <time>2015-05-24T11:18:55Z</time>
      </trkpt>
      <trkpt lat="43.3351" lon="-1.88497">
        <ele>304.88</ele>
        <time>2015-05-24T11:19:00Z</time>
      </trkpt>
      <trkpt lat="43.33525" lon="-1.88495">
        <ele>303.43</ele>
        <time>2015-05-24T11:19:06Z</time>
      </trkpt>
      <trkpt lat="43.33554" lon="-1.88489">
        <ele>298.63</ele>
        <time>2015-05-24T11:19:11Z</time>
      </trkpt>
      <trkpt lat="43.33604" lon="-1.88517">
        <ele>293.82</ele>
        <time>2015-05-24T11:19:19Z</time>
      </trkpt>
      <trkpt lat="43.33605" lon="-1.88574">
        <ele>290.46</ele>
        <time>2015-05-24T11:19:24Z</time>
      </trkpt>
      <trkpt lat="43.33601" lon="-1.88586">
        <ele>289.49</ele>
        <time>2015-05-24T11:19:25Z</time>
      </trkpt>
      <trkpt lat="43.33593" lon="-1.8861">
        <ele>288.05</ele>
        <time>2015-05-24T11:19:27Z</time>
      </trkpt>
      <trkpt lat="43.3358" lon="-1.88649">
        <ele>284.69</ele>
        <time>2015-05-24T11:19:30Z</time>
      </trkpt>
      <trkpt lat="43.33575" lon="-1.88699">
        <ele>280.84</ele>
        <time>2015-05-24T11:19:34Z</time>
      </trkpt>
      <trkpt lat="43.33587" lon="-1.88763">
        <ele>277.48</ele>
        <time>2015-05-24T11:19:39Z</time>
      </trkpt>
      <trkpt lat="43.33597" lon="-1.88813">
        <ele>274.59</ele>
        <time>2015-05-24T11:19:43Z</time>
      </trkpt>
      <trkpt lat="43.336" lon="-1.88835">
        <ele>273.63</ele>
        <time>2015-05-24T11:19:45Z</time>
      </trkpt>
      <trkpt lat="43.33598" lon="-1.8888">
        <ele>272.19</ele>
        <time>2015-05-24T11:19:50Z</time>
      </trkpt>
      <trkpt lat="43.33595" lon="-1.88891">
        <ele>271.71</ele>
        <time>2015-05-24T11:19:52Z</time>
      </trkpt>
      <trkpt lat="43.33601" lon="-1.88895">
        <ele>270.75</ele>
        <time>2015-05-24T11:19:56Z</time>
      </trkpt>
      <trkpt lat="43.33616" lon="-1.88857">
        <ele>267.86</ele>
        <time>2015-05-24T11:20:04Z</time>
      </trkpt>
      <trkpt lat="43.33632" lon="-1.88814">
        <ele>264.98</ele>
        <time>2015-05-24T11:20:11Z</time>
      </trkpt>
      <trkpt lat="43.33634" lon="-1.8881">
        <ele>264.5</ele>
        <time>2015-05-24T11:20:12Z</time>
      </trkpt>
      <trkpt lat="43.33636" lon="-1.88778">
        <ele>263.06</ele>
        <time>2015-05-24T11:20:17Z</time>
      </trkpt>
      <trkpt lat="43.33628" lon="-1.88751">
        <ele>262.1</ele>
        <time>2015-05-24T11:20:21Z</time>
      </trkpt>
      <trkpt lat="43.33624" lon="-1.88721">
        <ele>262.58</ele>
        <time>2015-05-24T11:20:26Z</time>
      </trkpt>
      <trkpt lat="43.33633" lon="-1.88697">
        <ele>262.58</ele>
        <time>2015-05-24T11:20:32Z</time>
      </trkpt>
      <trkpt lat="43.33665" lon="-1.88672">
        <ele>263.54</ele>
        <time>2015-05-24T11:20:45Z</time>
      </trkpt>
      <trkpt lat="43.33678" lon="-1.88638">
        <ele>266.42</ele>
        <time>2015-05-24T11:20:59Z</time>
      </trkpt>
      <trkpt lat="43.33687" lon="-1.88612">
        <ele>269.79</ele>
        <time>2015-05-24T11:21:13Z</time>
      </trkpt>
      <trkpt lat="43.33689" lon="-1.88608">
        <ele>270.27</ele>
        <time>2015-05-24T11:21:15Z</time>
      </trkpt>
      <trkpt lat="43.33691" lon="-1.88589">
        <ele>270.27</ele>
        <time>2015-05-24T11:21:23Z</time>
      </trkpt>
      <trkpt lat="43.33684" lon="-1.8855">
        <ele>270.75</ele>
        <time>2015-05-24T11:21:37Z</time>
      </trkpt>
      <trkpt lat="43.33686" lon="-1.88502">
        <ele>268.35</ele>
        <time>2015-05-24T11:21:48Z</time>
      </trkpt>
      <trkpt lat="43.33687" lon="-1.88489">
        <ele>267.86</ele>
        <time>2015-05-24T11:21:51Z</time>
      </trkpt>
      <trkpt lat="43.337" lon="-1.88469">
        <ele>268.83</ele>
        <time>2015-05-24T11:22:02Z</time>
      </trkpt>
      <trkpt lat="43.33723" lon="-1.88448">
        <ele>270.75</ele>
        <time>2015-05-24T11:22:18Z</time>
      </trkpt>
      <trkpt lat="43.33733" lon="-1.88409">
        <ele>271.23</ele>
        <time>2015-05-24T11:22:33Z</time>
      </trkpt>
      <trkpt lat="43.33745" lon="-1.88381">
        <ele>270.27</ele>
        <time>2015-05-24T11:22:42Z</time>
      </trkpt>
      <trkpt lat="43.3375" lon="-1.88368">
        <ele>268.83</ele>
        <time>2015-05-24T11:22:44Z</time>
      </trkpt>
      <trkpt lat="43.3376" lon="-1.88317">
        <ele>266.42</ele>
        <time>2015-05-24T11:22:50Z</time>
      </trkpt>
      <trkpt lat="43.33773" lon="-1.88265">
        <ele>267.86</ele>
        <time>2015-05-24T11:22:58Z</time>
      </trkpt>
      <trkpt lat="43.33788" lon="-1.88222">
        <ele>268.83</ele>
        <time>2015-05-24T11:23:09Z</time>
      </trkpt>
      <trkpt lat="43.33789" lon="-1.88213">
        <ele>268.83</ele>
        <time>2015-05-24T11:23:11Z</time>
      </trkpt>
      <trkpt lat="43.338" lon="-1.8819">
        <ele>268.83</ele>
        <time>2015-05-24T11:23:16Z</time>
      </trkpt>
      <trkpt lat="43.33824" lon="-1.88159">
        <ele>270.75</ele>
        <time>2015-05-24T11:23:30Z</time>
      </trkpt>
      <trkpt lat="43.33826" lon="-1.88147">
        <ele>272.19</ele>
        <time>2015-05-24T11:23:36Z</time>
      </trkpt>
      <trkpt lat="43.33828" lon="-1.88138">
        <ele>272.67</ele>
        <time>2015-05-24T11:23:41Z</time>
      </trkpt>
      <trkpt lat="43.33829" lon="-1.88135">
        <ele>272.67</ele>
        <time>2015-05-24T11:23:43Z</time>
      </trkpt>
      <trkpt lat="43.33832" lon="-1.88117">
        <ele>275.07</ele>
        <time>2015-05-24T11:23:53Z</time>
      </trkpt>
      <trkpt lat="43.33833" lon="-1.88108">
        <ele>276.04</ele>
        <time>2015-05-24T11:23:59Z</time>
      </trkpt>
      <trkpt lat="43.33832" lon="-1.88102">
        <ele>276.52</ele>
        <time>2015-05-24T11:24:02Z</time>
      </trkpt>
      <trkpt lat="43.33833" lon="-1.88093">
        <ele>277</ele>
        <time>2015-05-24T11:24:07Z</time>
      </trkpt>
      <trkpt lat="43.33843" lon="-1.88067">
        <ele>278.44</ele>
        <time>2015-05-24T11:24:23Z</time>
      </trkpt>
      <trkpt lat="43.33854" lon="-1.88042">
        <ele>278.92</ele>
        <time>2015-05-24T11:24:35Z</time>
      </trkpt>
      <trkpt lat="43.33868" lon="-1.88021">
        <ele>276.04</ele>
        <time>2015-05-24T11:24:40Z</time>
      </trkpt>
      <trkpt lat="43.33881" lon="-1.87991">
        <ele>272.67</ele>
        <time>2015-05-24T11:24:45Z</time>
      </trkpt>
      <trkpt lat="43.33883" lon="-1.87984">
        <ele>272.67</ele>
        <time>2015-05-24T11:24:46Z</time>
      </trkpt>
      <trkpt lat="43.33887" lon="-1.87968">
        <ele>271.23</ele>
        <time>2015-05-24T11:24:48Z</time>
      </trkpt>
      <trkpt lat="43.33907" lon="-1.87926">
        <ele>269.31</ele>
        <time>2015-05-24T11:24:54Z</time>
      </trkpt>
      <trkpt lat="43.33914" lon="-1.87903">
        <ele>267.86</ele>
        <time>2015-05-24T11:24:57Z</time>
      </trkpt>
      <trkpt lat="43.33929" lon="-1.8789">
        <ele>266.42</ele>
        <time>2015-05-24T11:25:00Z</time>
      </trkpt>
      <trkpt lat="43.33942" lon="-1.87888">
        <ele>264.5</ele>
        <time>2015-05-24T11:25:02Z</time>
      </trkpt>
      <trkpt lat="43.33963" lon="-1.87872">
        <ele>263.06</ele>
        <time>2015-05-24T11:25:06Z</time>
      </trkpt>
      <trkpt lat="43.3397" lon="-1.87861">
        <ele>262.58</ele>
        <time>2015-05-24T11:25:08Z</time>
      </trkpt>
      <trkpt lat="43.3398" lon="-1.87835">
        <ele>260.17</ele>
        <time>2015-05-24T11:25:12Z</time>
      </trkpt>
      <trkpt lat="43.33992" lon="-1.87799">
        <ele>256.81</ele>
        <time>2015-05-24T11:25:16Z</time>
      </trkpt>
      <trkpt lat="43.33995" lon="-1.87791">
        <ele>256.33</ele>
        <time>2015-05-24T11:25:17Z</time>
      </trkpt>
      <trkpt lat="43.34023" lon="-1.87785">
        <ele>255.85</ele>
        <time>2015-05-24T11:25:24Z</time>
      </trkpt>
      <trkpt lat="43.34023" lon="-1.87788">
        <ele>257.29</ele>
        <time>2015-05-24T11:25:25Z</time>
      </trkpt>
      <trkpt lat="43.34031" lon="-1.87839">
        <ele>257.77</ele>
        <time>2015-05-24T11:25:41Z</time>
      </trkpt>
      <trkpt lat="43.34042" lon="-1.87875">
        <ele>256.33</ele>
        <time>2015-05-24T11:25:52Z</time>
      </trkpt>
      <trkpt lat="43.34071" lon="-1.87919">
        <ele>256.81</ele>
        <time>2015-05-24T11:26:04Z</time>
      </trkpt>
      <trkpt lat="43.34082" lon="-1.87931">
        <ele>254.89</ele>
        <time>2015-05-24T11:26:07Z</time>
      </trkpt>
      <trkpt lat="43.34087" lon="-1.87935">
        <ele>253.93</ele>
        <time>2015-05-24T11:26:08Z</time>
      </trkpt>
      <trkpt lat="43.34108" lon="-1.87942">
        <ele>252</ele>
        <time>2015-05-24T11:26:12Z</time>
      </trkpt>
      <trkpt lat="43.34134" lon="-1.87928">
        <ele>251.52</ele>
        <time>2015-05-24T11:26:21Z</time>
      </trkpt>
      <trkpt lat="43.34133" lon="-1.87927">
        <ele>251.52</ele>
        <time>2015-05-24T11:26:27Z</time>
      </trkpt>
      <trkpt lat="43.34133" lon="-1.87924">
        <ele>251.52</ele>
        <time>2015-05-24T11:26:29Z</time>
      </trkpt>
      <trkpt lat="43.34124" lon="-1.87915">
        <ele>254.89</ele>
        <time>2015-05-24T11:26:44Z</time>
      </trkpt>
      <trkpt lat="43.34117" lon="-1.87908">
        <ele>256.81</ele>
        <time>2015-05-24T11:26:57Z</time>
      </trkpt>
      <trkpt lat="43.34109" lon="-1.87897">
        <ele>259.21</ele>
        <time>2015-05-24T11:27:12Z</time>
      </trkpt>
      <trkpt lat="43.34108" lon="-1.87892">
        <ele>260.65</ele>
        <time>2015-05-24T11:27:23Z</time>
      </trkpt>
      <trkpt lat="43.34117" lon="-1.87882">
        <ele>261.14</ele>
        <time>2015-05-24T11:27:37Z</time>
      </trkpt>
      <trkpt lat="43.34132" lon="-1.87864">
        <ele>260.65</ele>
        <time>2015-05-24T11:27:44Z</time>
      </trkpt>
      <trkpt lat="43.3414" lon="-1.87851">
        <ele>258.73</ele>
        <time>2015-05-24T11:27:47Z</time>
      </trkpt>
      <trkpt lat="43.34163" lon="-1.8779">
        <ele>255.37</ele>
        <time>2015-05-24T11:27:59Z</time>
      </trkpt>
      <trkpt lat="43.34176" lon="-1.87723">
        <ele>254.41</ele>
        <time>2015-05-24T11:28:13Z</time>
      </trkpt>
      <trkpt lat="43.34168" lon="-1.87684">
        <ele>254.41</ele>
        <time>2015-05-24T11:28:25Z</time>
      </trkpt>
      <trkpt lat="43.34168" lon="-1.8768">
        <ele>253.44</ele>
        <time>2015-05-24T11:28:26Z</time>
      </trkpt>
      <trkpt lat="43.34179" lon="-1.87667">
        <ele>252.48</ele>
        <time>2015-05-24T11:28:32Z</time>
      </trkpt>
      <trkpt lat="43.34187" lon="-1.87664">
        <ele>253.93</ele>
        <time>2015-05-24T11:28:36Z</time>
      </trkpt>
      <trkpt lat="43.34219" lon="-1.87644">
        <ele>253.93</ele>
        <time>2015-05-24T11:28:50Z</time>
      </trkpt>
      <trkpt lat="43.34223" lon="-1.87639">
        <ele>252.96</ele>
        <time>2015-05-24T11:28:52Z</time>
      </trkpt>
      <trkpt lat="43.34238" lon="-1.87622">
        <ele>252.48</ele>
        <time>2015-05-24T11:29:03Z</time>
      </trkpt>
      <trkpt lat="43.34258" lon="-1.87602">
        <ele>249.6</ele>
        <time>2015-05-24T11:29:14Z</time>
      </trkpt>
      <trkpt lat="43.34293" lon="-1.87608">
        <ele>249.6</ele>
        <time>2015-05-24T11:29:25Z</time>
      </trkpt>
      <trkpt lat="43.3433" lon="-1.87633">
        <ele>248.64</ele>
        <time>2015-05-24T11:29:38Z</time>
      </trkpt>
      <trkpt lat="43.3434" lon="-1.87634">
        <ele>250.08</ele>
        <time>2015-05-24T11:29:43Z</time>
      </trkpt>
      <trkpt lat="43.34364" lon="-1.87633">
        <ele>252.48</ele>
        <time>2015-05-24T11:29:57Z</time>
      </trkpt>
      <trkpt lat="43.34384" lon="-1.87627">
        <ele>252</ele>
        <time>2015-05-24T11:30:07Z</time>
      </trkpt>
      <trkpt lat="43.34383" lon="-1.87622">
        <ele>252</ele>
        <time>2015-05-24T11:30:11Z</time>
      </trkpt>
      <trkpt lat="43.34361" lon="-1.87613">
        <ele>252</ele>
        <time>2015-05-24T11:30:23Z</time>
      </trkpt>
      <trkpt lat="43.3435" lon="-1.87605">
        <ele>250.08</ele>
        <time>2015-05-24T11:30:28Z</time>
      </trkpt>
      <trkpt lat="43.34327" lon="-1.87593">
        <ele>246.23</ele>
        <time>2015-05-24T11:30:37Z</time>
      </trkpt>
      <trkpt lat="43.34323" lon="-1.8759">
        <ele>246.23</ele>
        <time>2015-05-24T11:30:38Z</time>
      </trkpt>
      <trkpt lat="43.34304" lon="-1.87574">
        <ele>246.23</ele>
        <time>2015-05-24T11:30:49Z</time>
      </trkpt>
      <trkpt lat="43.34301" lon="-1.87565">
        <ele>246.23</ele>
        <time>2015-05-24T11:31:00Z</time>
      </trkpt>
      <trkpt lat="43.34302" lon="-1.87564">
        <ele>244.79</ele>
        <time>2015-05-24T11:31:16Z</time>
      </trkpt>
      <trkpt lat="43.34305" lon="-1.87561">
        <ele>243.83</ele>
        <time>2015-05-24T11:31:30Z</time>
      </trkpt>
      <trkpt lat="43.34308" lon="-1.87556">
        <ele>241.91</ele>
        <time>2015-05-24T11:31:43Z</time>
      </trkpt>
      <trkpt lat="43.34311" lon="-1.87551">
        <ele>239.02</ele>
        <time>2015-05-24T11:31:55Z</time>
      </trkpt>
      <trkpt lat="43.34317" lon="-1.87545">
        <ele>236.14</ele>
        <time>2015-05-24T11:32:11Z</time>
      </trkpt>
      <trkpt lat="43.34315" lon="-1.87536">
        <ele>234.22</ele>
        <time>2015-05-24T11:32:25Z</time>
      </trkpt>
      <trkpt lat="43.3431" lon="-1.8753">
        <ele>233.26</ele>
        <time>2015-05-24T11:32:35Z</time>
      </trkpt>
      <trkpt lat="43.34306" lon="-1.87519">
        <ele>231.81</ele>
        <time>2015-05-24T11:32:47Z</time>
      </trkpt>
      <trkpt lat="43.34302" lon="-1.87506">
        <ele>230.85</ele>
        <time>2015-05-24T11:33:00Z</time>
      </trkpt>
      <trkpt lat="43.34297" lon="-1.87495">
        <ele>229.41</ele>
        <time>2015-05-24T11:33:11Z</time>
      </trkpt>
      <trkpt lat="43.34296" lon="-1.8749">
        <ele>228.93</ele>
        <time>2015-05-24T11:33:16Z</time>
      </trkpt>
      <trkpt lat="43.34295" lon="-1.87486">
        <ele>227.97</ele>
        <time>2015-05-24T11:33:19Z</time>
      </trkpt>
      <trkpt lat="43.34287" lon="-1.87473">
        <ele>227.01</ele>
        <time>2015-05-24T11:33:34Z</time>
      </trkpt>
      <trkpt lat="43.34283" lon="-1.87465">
        <ele>225.57</ele>
        <time>2015-05-24T11:33:47Z</time>
      </trkpt>
      <trkpt lat="43.34279" lon="-1.87455">
        <ele>224.61</ele>
        <time>2015-05-24T11:34:00Z</time>
      </trkpt>
      <trkpt lat="43.34273" lon="-1.87439">
        <ele>223.16</ele>
        <time>2015-05-24T11:34:16Z</time>
      </trkpt>
      <trkpt lat="43.34268" lon="-1.87423">
        <ele>222.68</ele>
        <time>2015-05-24T11:34:29Z</time>
      </trkpt>
      <trkpt lat="43.34265" lon="-1.87414">
        <ele>222.2</ele>
        <time>2015-05-24T11:34:42Z</time>
      </trkpt>
      <trkpt lat="43.34265" lon="-1.8741">
        <ele>222.2</ele>
        <time>2015-05-24T11:34:57Z</time>
      </trkpt>
      <trkpt lat="43.34266" lon="-1.87408">
        <ele>222.2</ele>
        <time>2015-05-24T11:35:15Z</time>
      </trkpt>
      <trkpt lat="43.3427" lon="-1.87409">
        <ele>222.2</ele>
        <time>2015-05-24T11:35:29Z</time>
      </trkpt>
      <trkpt lat="43.34274" lon="-1.87406">
        <ele>222.2</ele>
        <time>2015-05-24T11:35:43Z</time>
      </trkpt>
      <trkpt lat="43.34279" lon="-1.87409">
        <ele>224.61</ele>
        <time>2015-05-24T11:35:56Z</time>
      </trkpt>
      <trkpt lat="43.34281" lon="-1.87411">
        <ele>224.61</ele>
        <time>2015-05-24T11:35:59Z</time>
      </trkpt>
      <trkpt lat="43.34291" lon="-1.8742">
        <ele>224.61</ele>
        <time>2015-05-24T11:36:15Z</time>
      </trkpt>
      <trkpt lat="43.34297" lon="-1.87418">
        <ele>224.61</ele>
        <time>2015-05-24T11:36:22Z</time>
      </trkpt>
      <trkpt lat="43.34304" lon="-1.87416">
        <ele>224.61</ele>
        <time>2015-05-24T11:36:32Z</time>
      </trkpt>
      <trkpt lat="43.34314" lon="-1.87407">
        <ele>224.61</ele>
        <time>2015-05-24T11:36:47Z</time>
      </trkpt>
      <trkpt lat="43.34315" lon="-1.87406">
        <ele>224.61</ele>
        <time>2015-05-24T11:36:48Z</time>
      </trkpt>
      <trkpt lat="43.34325" lon="-1.874">
        <ele>225.09</ele>
        <time>2015-05-24T11:37:02Z</time>
      </trkpt>
      <trkpt lat="43.34326" lon="-1.87399">
        <ele>225.09</ele>
        <time>2015-05-24T11:37:03Z</time>
      </trkpt>
      <trkpt lat="43.34329" lon="-1.87398">
        <ele>225.09</ele>
        <time>2015-05-24T11:37:06Z</time>
      </trkpt>
      <trkpt lat="43.34339" lon="-1.87387">
        <ele>225.09</ele>
        <time>2015-05-24T11:37:21Z</time>
      </trkpt>
      <trkpt lat="43.34346" lon="-1.87374">
        <ele>223.64</ele>
        <time>2015-05-24T11:37:37Z</time>
      </trkpt>
      <trkpt lat="43.34348" lon="-1.87373">
        <ele>223.64</ele>
        <time>2015-05-24T11:37:39Z</time>
      </trkpt>
      <trkpt lat="43.34351" lon="-1.87364">
        <ele>223.64</ele>
        <time>2015-05-24T11:37:45Z</time>
      </trkpt>
      <trkpt lat="43.34353" lon="-1.87361">
        <ele>223.64</ele>
        <time>2015-05-24T11:37:48Z</time>
      </trkpt>
      <trkpt lat="43.34357" lon="-1.87357">
        <ele>223.64</ele>
        <time>2015-05-24T11:37:53Z</time>
      </trkpt>
      <trkpt lat="43.34361" lon="-1.87348">
        <ele>225.09</ele>
        <time>2015-05-24T11:38:00Z</time>
      </trkpt>
      <trkpt lat="43.34364" lon="-1.87341">
        <ele>225.09</ele>
        <time>2015-05-24T11:38:14Z</time>
      </trkpt>
      <trkpt lat="43.34364" lon="-1.87339">
        <ele>225.09</ele>
        <time>2015-05-24T11:38:17Z</time>
      </trkpt>
      <trkpt lat="43.34368" lon="-1.8733">
        <ele>225.57</ele>
        <time>2015-05-24T11:38:29Z</time>
      </trkpt>
      <trkpt lat="43.34371" lon="-1.87321">
        <ele>225.57</ele>
        <time>2015-05-24T11:38:42Z</time>
      </trkpt>
      <trkpt lat="43.34369" lon="-1.87321">
        <ele>226.05</ele>
        <time>2015-05-24T11:38:57Z</time>
      </trkpt>
      <trkpt lat="43.3437" lon="-1.8732">
        <ele>226.05</ele>
        <time>2015-05-24T11:39:25Z</time>
      </trkpt>
      <trkpt lat="43.34375" lon="-1.87311">
        <ele>226.05</ele>
        <time>2015-05-24T11:39:37Z</time>
      </trkpt>
      <trkpt lat="43.3438" lon="-1.87296">
        <ele>226.05</ele>
        <time>2015-05-24T11:39:50Z</time>
      </trkpt>
      <trkpt lat="43.34383" lon="-1.87283">
        <ele>226.53</ele>
        <time>2015-05-24T11:40:03Z</time>
      </trkpt>
      <trkpt lat="43.34386" lon="-1.87268">
        <ele>226.53</ele>
        <time>2015-05-24T11:40:16Z</time>
      </trkpt>
      <trkpt lat="43.34387" lon="-1.87254">
        <ele>229.41</ele>
        <time>2015-05-24T11:40:31Z</time>
      </trkpt>
      <trkpt lat="43.34387" lon="-1.8725">
        <ele>229.41</ele>
        <time>2015-05-24T11:40:41Z</time>
      </trkpt>
      <trkpt lat="43.34391" lon="-1.87243">
        <ele>229.41</ele>
        <time>2015-05-24T11:40:45Z</time>
      </trkpt>
      <trkpt lat="43.34391" lon="-1.87239">
        <ele>227.97</ele>
        <time>2015-05-24T11:40:48Z</time>
      </trkpt>
      <trkpt lat="43.34396" lon="-1.87228">
        <ele>226.05</ele>
        <time>2015-05-24T11:41:03Z</time>
      </trkpt>
      <trkpt lat="43.34399" lon="-1.87218">
        <ele>225.09</ele>
        <time>2015-05-24T11:41:18Z</time>
      </trkpt>
      <trkpt lat="43.34402" lon="-1.87215">
        <ele>226.53</ele>
        <time>2015-05-24T11:41:25Z</time>
      </trkpt>
      <trkpt lat="43.34406" lon="-1.87204">
        <ele>227.97</ele>
        <time>2015-05-24T11:41:38Z</time>
      </trkpt>
      <trkpt lat="43.34409" lon="-1.87193">
        <ele>229.41</ele>
        <time>2015-05-24T11:41:50Z</time>
      </trkpt>
      <trkpt lat="43.34414" lon="-1.87182">
        <ele>230.37</ele>
        <time>2015-05-24T11:42:05Z</time>
      </trkpt>
      <trkpt lat="43.34416" lon="-1.87178">
        <ele>229.89</ele>
        <time>2015-05-24T11:42:11Z</time>
      </trkpt>
      <trkpt lat="43.3442" lon="-1.87156">
        <ele>228.93</ele>
        <time>2015-05-24T11:42:28Z</time>
      </trkpt>
      <trkpt lat="43.34422" lon="-1.87151">
        <ele>228.45</ele>
        <time>2015-05-24T11:42:43Z</time>
      </trkpt>
      <trkpt lat="43.34421" lon="-1.87147">
        <ele>228.45</ele>
        <time>2015-05-24T11:42:57Z</time>
      </trkpt>
      <trkpt lat="43.34422" lon="-1.87146">
        <ele>228.45</ele>
        <time>2015-05-24T11:43:16Z</time>
      </trkpt>
      <trkpt lat="43.34423" lon="-1.87144">
        <ele>229.89</ele>
        <time>2015-05-24T11:43:22Z</time>
      </trkpt>
      <trkpt lat="43.34425" lon="-1.87144">
        <ele>230.85</ele>
        <time>2015-05-24T11:43:34Z</time>
      </trkpt>
      <trkpt lat="43.34429" lon="-1.8714">
        <ele>232.3</ele>
        <time>2015-05-24T11:43:48Z</time>
      </trkpt>
      <trkpt lat="43.34432" lon="-1.87144">
        <ele>233.74</ele>
        <time>2015-05-24T11:44:02Z</time>
      </trkpt>
      <trkpt lat="43.34433" lon="-1.87151">
        <ele>234.22</ele>
        <time>2015-05-24T11:44:12Z</time>
      </trkpt>
      <trkpt lat="43.34439" lon="-1.87162">
        <ele>235.66</ele>
        <time>2015-05-24T11:44:27Z</time>
      </trkpt>
      <trkpt lat="43.34442" lon="-1.87171">
        <ele>236.62</ele>
        <time>2015-05-24T11:44:39Z</time>
      </trkpt>
      <trkpt lat="43.34444" lon="-1.87172">
        <ele>236.62</ele>
        <time>2015-05-24T11:44:41Z</time>
      </trkpt>
      <trkpt lat="43.3445" lon="-1.8718">
        <ele>236.62</ele>
        <time>2015-05-24T11:44:57Z</time>
      </trkpt>
      <trkpt lat="43.34451" lon="-1.87185">
        <ele>236.62</ele>
        <time>2015-05-24T11:45:06Z</time>
      </trkpt>
      <trkpt lat="43.3446" lon="-1.87194">
        <ele>237.58</ele>
        <time>2015-05-24T11:45:22Z</time>
      </trkpt>
      <trkpt lat="43.34466" lon="-1.87201">
        <ele>240.47</ele>
        <time>2015-05-24T11:45:38Z</time>
      </trkpt>
      <trkpt lat="43.34468" lon="-1.87203">
        <ele>240.95</ele>
        <time>2015-05-24T11:45:50Z</time>
      </trkpt>
      <trkpt lat="43.34472" lon="-1.87211">
        <ele>241.91</ele>
        <time>2015-05-24T11:46:03Z</time>
      </trkpt>
      <trkpt lat="43.34475" lon="-1.87214">
        <ele>242.87</ele>
        <time>2015-05-24T11:46:19Z</time>
      </trkpt>
      <trkpt lat="43.34479" lon="-1.87222">
        <ele>244.31</ele>
        <time>2015-05-24T11:46:34Z</time>
      </trkpt>
      <trkpt lat="43.34483" lon="-1.87228">
        <ele>246.23</ele>
        <time>2015-05-24T11:46:47Z</time>
      </trkpt>
      <trkpt lat="43.34486" lon="-1.87233">
        <ele>246.23</ele>
        <time>2015-05-24T11:46:55Z</time>
      </trkpt>
      <trkpt lat="43.34489" lon="-1.87237">
        <ele>247.2</ele>
        <time>2015-05-24T11:47:05Z</time>
      </trkpt>
      <trkpt lat="43.34495" lon="-1.87241">
        <ele>247.2</ele>
        <time>2015-05-24T11:47:16Z</time>
      </trkpt>
      <trkpt lat="43.34498" lon="-1.87242">
        <ele>247.2</ele>
        <time>2015-05-24T11:47:20Z</time>
      </trkpt>
      <trkpt lat="43.34502" lon="-1.87243">
        <ele>246.23</ele>
        <time>2015-05-24T11:47:28Z</time>
      </trkpt>
      <trkpt lat="43.34509" lon="-1.87244">
        <ele>245.27</ele>
        <time>2015-05-24T11:47:42Z</time>
      </trkpt>
      <trkpt lat="43.34513" lon="-1.8725">
        <ele>245.27</ele>
        <time>2015-05-24T11:47:53Z</time>
      </trkpt>
      <trkpt lat="43.34522" lon="-1.87258">
        <ele>246.23</ele>
        <time>2015-05-24T11:48:07Z</time>
      </trkpt>
      <trkpt lat="43.34528" lon="-1.87262">
        <ele>246.72</ele>
        <time>2015-05-24T11:48:16Z</time>
      </trkpt>
      <trkpt lat="43.3454" lon="-1.87269">
        <ele>247.68</ele>
        <time>2015-05-24T11:48:32Z</time>
      </trkpt>
      <trkpt lat="43.34552" lon="-1.87273">
        <ele>247.68</ele>
        <time>2015-05-24T11:48:46Z</time>
      </trkpt>
      <trkpt lat="43.34564" lon="-1.87273">
        <ele>246.23</ele>
        <time>2015-05-24T11:49:01Z</time>
      </trkpt>
      <trkpt lat="43.34572" lon="-1.87272">
        <ele>245.75</ele>
        <time>2015-05-24T11:49:14Z</time>
      </trkpt>
      <trkpt lat="43.34591" lon="-1.87267">
        <ele>244.31</ele>
        <time>2015-05-24T11:49:25Z</time>
      </trkpt>
      <trkpt lat="43.34606" lon="-1.87261">
        <ele>244.31</ele>
        <time>2015-05-24T11:49:35Z</time>
      </trkpt>
      <trkpt lat="43.34627" lon="-1.87254">
        <ele>242.87</ele>
        <time>2015-05-24T11:49:46Z</time>
      </trkpt>
      <trkpt lat="43.34637" lon="-1.87245">
        <ele>242.39</ele>
        <time>2015-05-24T11:49:57Z</time>
      </trkpt>
      <trkpt lat="43.34653" lon="-1.87231">
        <ele>241.91</ele>
        <time>2015-05-24T11:50:08Z</time>
      </trkpt>
      <trkpt lat="43.34668" lon="-1.87224">
        <ele>241.91</ele>
        <time>2015-05-24T11:50:20Z</time>
      </trkpt>
      <trkpt lat="43.34676" lon="-1.8722">
        <ele>241.91</ele>
        <time>2015-05-24T11:50:34Z</time>
      </trkpt>
      <trkpt lat="43.34681" lon="-1.87218">
        <ele>241.91</ele>
        <time>2015-05-24T11:50:45Z</time>
      </trkpt>
      <trkpt lat="43.34692" lon="-1.87213">
        <ele>241.43</ele>
        <time>2015-05-24T11:50:59Z</time>
      </trkpt>
      <trkpt lat="43.34698" lon="-1.87219">
        <ele>241.43</ele>
        <time>2015-05-24T11:51:10Z</time>
      </trkpt>
      <trkpt lat="43.34705" lon="-1.87233">
        <ele>242.39</ele>
        <time>2015-05-24T11:51:26Z</time>
      </trkpt>
      <trkpt lat="43.34717" lon="-1.87239">
        <ele>242.39</ele>
        <time>2015-05-24T11:51:42Z</time>
      </trkpt>
      <trkpt lat="43.34723" lon="-1.87241">
        <ele>242.39</ele>
        <time>2015-05-24T11:51:53Z</time>
      </trkpt>
      <trkpt lat="43.34728" lon="-1.87241">
        <ele>240.95</ele>
        <time>2015-05-24T11:51:56Z</time>
      </trkpt>
      <trkpt lat="43.3473" lon="-1.87239">
        <ele>240.95</ele>
        <time>2015-05-24T11:51:57Z</time>
      </trkpt>
      <trkpt lat="43.34748" lon="-1.87216">
        <ele>239.99</ele>
        <time>2015-05-24T11:52:10Z</time>
      </trkpt>
      <trkpt lat="43.34766" lon="-1.87207">
        <ele>239.99</ele>
        <time>2015-05-24T11:52:20Z</time>
      </trkpt>
      <trkpt lat="43.34777" lon="-1.87199">
        <ele>239.99</ele>
        <time>2015-05-24T11:52:29Z</time>
      </trkpt>
      <trkpt lat="43.34781" lon="-1.87193">
        <ele>239.99</ele>
        <time>2015-05-24T11:52:33Z</time>
      </trkpt>
      <trkpt lat="43.34784" lon="-1.87194">
        <ele>240.95</ele>
        <time>2015-05-24T11:52:40Z</time>
      </trkpt>
      <trkpt lat="43.34799" lon="-1.87188">
        <ele>242.39</ele>
        <time>2015-05-24T11:52:57Z</time>
      </trkpt>
      <trkpt lat="43.34809" lon="-1.8718">
        <ele>243.35</ele>
        <time>2015-05-24T11:53:10Z</time>
      </trkpt>
      <trkpt lat="43.34811" lon="-1.87178">
        <ele>243.35</ele>
        <time>2015-05-24T11:53:15Z</time>
      </trkpt>
      <trkpt lat="43.34831" lon="-1.87167">
        <ele>242.39</ele>
        <time>2015-05-24T11:53:26Z</time>
      </trkpt>
      <trkpt lat="43.34847" lon="-1.87145">
        <ele>242.39</ele>
        <time>2015-05-24T11:53:38Z</time>
      </trkpt>
      <trkpt lat="43.34866" lon="-1.87113">
        <ele>240.47</ele>
        <time>2015-05-24T11:53:51Z</time>
      </trkpt>
      <trkpt lat="43.34875" lon="-1.87094">
        <ele>239.51</ele>
        <time>2015-05-24T11:54:02Z</time>
      </trkpt>
      <trkpt lat="43.34877" lon="-1.8709">
        <ele>238.54</ele>
        <time>2015-05-24T11:54:13Z</time>
      </trkpt>
      <trkpt lat="43.34879" lon="-1.87081">
        <ele>236.62</ele>
        <time>2015-05-24T11:54:28Z</time>
      </trkpt>
      <trkpt lat="43.34882" lon="-1.87047">
        <ele>234.22</ele>
        <time>2015-05-24T11:54:40Z</time>
      </trkpt>
      <trkpt lat="43.34883" lon="-1.8704">
        <ele>234.22</ele>
        <time>2015-05-24T11:54:42Z</time>
      </trkpt>
      <trkpt lat="43.34898" lon="-1.87027">
        <ele>233.74</ele>
        <time>2015-05-24T11:54:50Z</time>
      </trkpt>
      <trkpt lat="43.34912" lon="-1.87014">
        <ele>235.18</ele>
        <time>2015-05-24T11:54:57Z</time>
      </trkpt>
      <trkpt lat="43.34921" lon="-1.87006">
        <ele>235.18</ele>
        <time>2015-05-24T11:55:02Z</time>
      </trkpt>
      <trkpt lat="43.3493" lon="-1.87">
        <ele>235.18</ele>
        <time>2015-05-24T11:55:07Z</time>
      </trkpt>
      <trkpt lat="43.34958" lon="-1.86986">
        <ele>235.18</ele>
        <time>2015-05-24T11:55:20Z</time>
      </trkpt>
      <trkpt lat="43.34963" lon="-1.86983">
        <ele>235.66</ele>
        <time>2015-05-24T11:55:24Z</time>
      </trkpt>
      <trkpt lat="43.34971" lon="-1.86969">
        <ele>235.66</ele>
        <time>2015-05-24T11:55:31Z</time>
      </trkpt>
      <trkpt lat="43.34974" lon="-1.86963">
        <ele>235.66</ele>
        <time>2015-05-24T11:55:34Z</time>
      </trkpt>
      <trkpt lat="43.34975" lon="-1.86958">
        <ele>234.22</ele>
        <time>2015-05-24T11:55:36Z</time>
      </trkpt>
      <trkpt lat="43.34975" lon="-1.86954">
        <ele>233.74</ele>
        <time>2015-05-24T11:55:38Z</time>
      </trkpt>
      <trkpt lat="43.34971" lon="-1.86934">
        <ele>232.3</ele>
        <time>2015-05-24T11:55:46Z</time>
      </trkpt>
      <trkpt lat="43.3497" lon="-1.86925">
        <ele>231.33</ele>
        <time>2015-05-24T11:55:58Z</time>
      </trkpt>
      <trkpt lat="43.34963" lon="-1.86917">
        <ele>232.78</ele>
        <time>2015-05-24T11:56:12Z</time>
      </trkpt>
      <trkpt lat="43.34959" lon="-1.86913">
        <ele>231.33</ele>
        <time>2015-05-24T11:56:27Z</time>
      </trkpt>
      <trkpt lat="43.34959" lon="-1.86912">
        <ele>230.85</ele>
        <time>2015-05-24T11:56:44Z</time>
      </trkpt>
      <trkpt lat="43.34958" lon="-1.86907">
        <ele>229.41</ele>
        <time>2015-05-24T11:56:56Z</time>
      </trkpt>
      <trkpt lat="43.34959" lon="-1.869">
        <ele>228.93</ele>
        <time>2015-05-24T11:57:00Z</time>
      </trkpt>
      <trkpt lat="43.3496" lon="-1.86888">
        <ele>227.01</ele>
        <time>2015-05-24T11:57:12Z</time>
      </trkpt>
      <trkpt lat="43.34962" lon="-1.86879">
        <ele>224.12</ele>
        <time>2015-05-24T11:57:18Z</time>
      </trkpt>
      <trkpt lat="43.34963" lon="-1.86858">
        <ele>221.24</ele>
        <time>2015-05-24T11:57:29Z</time>
      </trkpt>
      <trkpt lat="43.34963" lon="-1.86848">
        <ele>219.32</ele>
        <time>2015-05-24T11:57:43Z</time>
      </trkpt>
      <trkpt lat="43.34961" lon="-1.86838">
        <ele>218.36</ele>
        <time>2015-05-24T11:57:52Z</time>
      </trkpt>
      <trkpt lat="43.34963" lon="-1.86829">
        <ele>215.95</ele>
        <time>2015-05-24T11:58:04Z</time>
      </trkpt>
      <trkpt lat="43.34964" lon="-1.86829">
        <ele>215.95</ele>
        <time>2015-05-24T11:58:08Z</time>
      </trkpt>
      <trkpt lat="43.34967" lon="-1.86832">
        <ele>214.51</ele>
        <time>2015-05-24T11:58:13Z</time>
      </trkpt>
      <trkpt lat="43.3497" lon="-1.86837">
        <ele>214.03</ele>
        <time>2015-05-24T11:58:17Z</time>
      </trkpt>
      <trkpt lat="43.34974" lon="-1.86842">
        <ele>212.11</ele>
        <time>2015-05-24T11:58:28Z</time>
      </trkpt>
      <trkpt lat="43.34975" lon="-1.86835">
        <ele>210.67</ele>
        <time>2015-05-24T11:58:39Z</time>
      </trkpt>
      <trkpt lat="43.34975" lon="-1.86829">
        <ele>209.22</ele>
        <time>2015-05-24T11:58:43Z</time>
      </trkpt>
      <trkpt lat="43.34974" lon="-1.86816">
        <ele>206.82</ele>
        <time>2015-05-24T11:58:56Z</time>
      </trkpt>
      <trkpt lat="43.34975" lon="-1.86813">
        <ele>206.82</ele>
        <time>2015-05-24T11:59:03Z</time>
      </trkpt>
      <trkpt lat="43.3498" lon="-1.86823">
        <ele>204.42</ele>
        <time>2015-05-24T11:59:15Z</time>
      </trkpt>
      <trkpt lat="43.34985" lon="-1.8683">
        <ele>202.49</ele>
        <time>2015-05-24T11:59:29Z</time>
      </trkpt>
      <trkpt lat="43.34989" lon="-1.86837">
        <ele>200.09</ele>
        <time>2015-05-24T11:59:44Z</time>
      </trkpt>
      <trkpt lat="43.34993" lon="-1.86837">
        <ele>199.13</ele>
        <time>2015-05-24T11:59:58Z</time>
      </trkpt>
      <trkpt lat="43.34993" lon="-1.86834">
        <ele>198.17</ele>
        <time>2015-05-24T12:00:03Z</time>
      </trkpt>
      <trkpt lat="43.34995" lon="-1.86817">
        <ele>195.28</ele>
        <time>2015-05-24T12:00:11Z</time>
      </trkpt>
      <trkpt lat="43.34991" lon="-1.86806">
        <ele>193.84</ele>
        <time>2015-05-24T12:00:22Z</time>
      </trkpt>
      <trkpt lat="43.34991" lon="-1.86796">
        <ele>193.36</ele>
        <time>2015-05-24T12:00:26Z</time>
      </trkpt>
      <trkpt lat="43.34993" lon="-1.86777">
        <ele>191.44</ele>
        <time>2015-05-24T12:00:34Z</time>
      </trkpt>
      <trkpt lat="43.3499" lon="-1.86773">
        <ele>190.48</ele>
        <time>2015-05-24T12:00:45Z</time>
      </trkpt>
      <trkpt lat="43.34988" lon="-1.86766">
        <ele>190</ele>
        <time>2015-05-24T12:00:56Z</time>
      </trkpt>
      <trkpt lat="43.3499" lon="-1.86764">
        <ele>189.52</ele>
        <time>2015-05-24T12:01:08Z</time>
      </trkpt>
      <trkpt lat="43.34991" lon="-1.86764">
        <ele>189.04</ele>
        <time>2015-05-24T12:01:21Z</time>
      </trkpt>
      <trkpt lat="43.34995" lon="-1.86759">
        <ele>189.04</ele>
        <time>2015-05-24T12:01:29Z</time>
      </trkpt>
      <trkpt lat="43.34999" lon="-1.8675">
        <ele>188.08</ele>
        <time>2015-05-24T12:01:43Z</time>
      </trkpt>
      <trkpt lat="43.35" lon="-1.86748">
        <ele>187.59</ele>
        <time>2015-05-24T12:01:53Z</time>
      </trkpt>
      <trkpt lat="43.35" lon="-1.86746">
        <ele>187.59</ele>
        <time>2015-05-24T12:02:13Z</time>
      </trkpt>
      <trkpt lat="43.34998" lon="-1.86745">
        <ele>187.59</ele>
        <time>2015-05-24T12:02:49Z</time>
      </trkpt>
      <trkpt lat="43.34999" lon="-1.86747">
        <ele>187.59</ele>
        <time>2015-05-24T12:03:23Z</time>
      </trkpt>
      <trkpt lat="43.34999" lon="-1.86747">
        <ele>187.11</ele>
        <time>2015-05-24T12:03:53Z</time>
      </trkpt>
      <trkpt lat="43.35001" lon="-1.86745">
        <ele>187.11</ele>
        <time>2015-05-24T12:04:18Z</time>
      </trkpt>
      <trkpt lat="43.35" lon="-1.86744">
        <ele>186.63</ele>
        <time>2015-05-24T12:04:31Z</time>
      </trkpt>
      <trkpt lat="43.35003" lon="-1.86737">
        <ele>185.19</ele>
        <time>2015-05-24T12:04:43Z</time>
      </trkpt>
      <trkpt lat="43.35006" lon="-1.86736">
        <ele>185.19</ele>
        <time>2015-05-24T12:04:57Z</time>
      </trkpt>
      <trkpt lat="43.35009" lon="-1.86739">
        <ele>185.19</ele>
        <time>2015-05-24T12:05:00Z</time>
      </trkpt>
      <trkpt lat="43.35014" lon="-1.86743">
        <ele>186.63</ele>
        <time>2015-05-24T12:05:04Z</time>
      </trkpt>
      <trkpt lat="43.35021" lon="-1.86749">
        <ele>189.04</ele>
        <time>2015-05-24T12:05:18Z</time>
      </trkpt>
      <trkpt lat="43.35028" lon="-1.86755">
        <ele>189.52</ele>
        <time>2015-05-24T12:05:31Z</time>
      </trkpt>
      <trkpt lat="43.35031" lon="-1.86761">
        <ele>189.52</ele>
        <time>2015-05-24T12:05:44Z</time>
      </trkpt>
      <trkpt lat="43.35034" lon="-1.86768">
        <ele>189.52</ele>
        <time>2015-05-24T12:05:56Z</time>
      </trkpt>
      <trkpt lat="43.35041" lon="-1.8678">
        <ele>189.52</ele>
        <time>2015-05-24T12:06:10Z</time>
      </trkpt>
      <trkpt lat="43.35048" lon="-1.86786">
        <ele>190.96</ele>
        <time>2015-05-24T12:06:22Z</time>
      </trkpt>
      <trkpt lat="43.35052" lon="-1.86793">
        <ele>192.88</ele>
        <time>2015-05-24T12:06:35Z</time>
      </trkpt>
      <trkpt lat="43.35061" lon="-1.86796">
        <ele>193.84</ele>
        <time>2015-05-24T12:06:49Z</time>
      </trkpt>
      <trkpt lat="43.35065" lon="-1.86798">
        <ele>194.8</ele>
        <time>2015-05-24T12:07:01Z</time>
      </trkpt>
      <trkpt lat="43.35066" lon="-1.868">
        <ele>194.8</ele>
        <time>2015-05-24T12:07:33Z</time>
      </trkpt>
      <trkpt lat="43.35065" lon="-1.86801">
        <ele>194.8</ele>
        <time>2015-05-24T12:07:56Z</time>
      </trkpt>
      <trkpt lat="43.35065" lon="-1.868">
        <ele>194.8</ele>
        <time>2015-05-24T12:08:33Z</time>
      </trkpt>
      <trkpt lat="43.35066" lon="-1.86799">
        <ele>194.8</ele>
        <time>2015-05-24T12:09:04Z</time>
      </trkpt>
      <trkpt lat="43.35067" lon="-1.86803">
        <ele>195.77</ele>
        <time>2015-05-24T12:09:18Z</time>
      </trkpt>
      <trkpt lat="43.35072" lon="-1.86806">
        <ele>196.25</ele>
        <time>2015-05-24T12:09:33Z</time>
      </trkpt>
      <trkpt lat="43.35077" lon="-1.86807">
        <ele>198.17</ele>
        <time>2015-05-24T12:09:47Z</time>
      </trkpt>
      <trkpt lat="43.3508" lon="-1.8681">
        <ele>199.61</ele>
        <time>2015-05-24T12:10:00Z</time>
      </trkpt>
      <trkpt lat="43.35084" lon="-1.86817">
        <ele>199.61</ele>
        <time>2015-05-24T12:10:13Z</time>
      </trkpt>
      <trkpt lat="43.35084" lon="-1.86816">
        <ele>198.17</ele>
        <time>2015-05-24T12:10:19Z</time>
      </trkpt>
      <trkpt lat="43.35089" lon="-1.86824">
        <ele>198.17</ele>
        <time>2015-05-24T12:10:26Z</time>
      </trkpt>
      <trkpt lat="43.35096" lon="-1.86835">
        <ele>198.17</ele>
        <time>2015-05-24T12:10:39Z</time>
      </trkpt>
      <trkpt lat="43.35103" lon="-1.86842">
        <ele>198.17</ele>
        <time>2015-05-24T12:10:51Z</time>
      </trkpt>
      <trkpt lat="43.35105" lon="-1.86843">
        <ele>199.61</ele>
        <time>2015-05-24T12:10:55Z</time>
      </trkpt>
      <trkpt lat="43.35111" lon="-1.86847">
        <ele>201.05</ele>
        <time>2015-05-24T12:11:08Z</time>
      </trkpt>
      <trkpt lat="43.35115" lon="-1.8685">
        <ele>202.01</ele>
        <time>2015-05-24T12:11:21Z</time>
      </trkpt>
      <trkpt lat="43.3512" lon="-1.86856">
        <ele>203.46</ele>
        <time>2015-05-24T12:11:33Z</time>
      </trkpt>
      <trkpt lat="43.35128" lon="-1.86865">
        <ele>203.94</ele>
        <time>2015-05-24T12:11:47Z</time>
      </trkpt>
      <trkpt lat="43.35132" lon="-1.86863">
        <ele>203.94</ele>
        <time>2015-05-24T12:11:53Z</time>
      </trkpt>
      <trkpt lat="43.35141" lon="-1.8686">
        <ele>203.94</ele>
        <time>2015-05-24T12:11:59Z</time>
      </trkpt>
      <trkpt lat="43.35147" lon="-1.86853">
        <ele>203.94</ele>
        <time>2015-05-24T12:12:03Z</time>
      </trkpt>
      <trkpt lat="43.35159" lon="-1.86842">
        <ele>202.49</ele>
        <time>2015-05-24T12:12:08Z</time>
      </trkpt>
      <trkpt lat="43.35179" lon="-1.86821">
        <ele>202.49</ele>
        <time>2015-05-24T12:12:19Z</time>
      </trkpt>
      <trkpt lat="43.3519" lon="-1.86812">
        <ele>201.53</ele>
        <time>2015-05-24T12:12:23Z</time>
      </trkpt>
      <trkpt lat="43.35224" lon="-1.86784">
        <ele>200.57</ele>
        <time>2015-05-24T12:12:37Z</time>
      </trkpt>
      <trkpt lat="43.35238" lon="-1.86777">
        <ele>200.57</ele>
        <time>2015-05-24T12:12:43Z</time>
      </trkpt>
      <trkpt lat="43.35252" lon="-1.8678">
        <ele>201.53</ele>
        <time>2015-05-24T12:12:49Z</time>
      </trkpt>
      <trkpt lat="43.35264" lon="-1.86774">
        <ele>200.57</ele>
        <time>2015-05-24T12:12:54Z</time>
      </trkpt>
      <trkpt lat="43.35269" lon="-1.86766">
        <ele>199.13</ele>
        <time>2015-05-24T12:12:56Z</time>
      </trkpt>
      <trkpt lat="43.35279" lon="-1.86743">
        <ele>197.21</ele>
        <time>2015-05-24T12:13:01Z</time>
      </trkpt>
      <trkpt lat="43.35283" lon="-1.86737">
        <ele>196.73</ele>
        <time>2015-05-24T12:13:03Z</time>
      </trkpt>
      <trkpt lat="43.35314" lon="-1.86712">
        <ele>192.88</ele>
        <time>2015-05-24T12:13:12Z</time>
      </trkpt>
      <trkpt lat="43.35345" lon="-1.8669">
        <ele>189.04</ele>
        <time>2015-05-24T12:13:19Z</time>
      </trkpt>
      <trkpt lat="43.3536" lon="-1.8668">
        <ele>187.11</ele>
        <time>2015-05-24T12:13:23Z</time>
      </trkpt>
      <trkpt lat="43.35375" lon="-1.86661">
        <ele>184.23</ele>
        <time>2015-05-24T12:13:28Z</time>
      </trkpt>
      <trkpt lat="43.35383" lon="-1.86637">
        <ele>181.35</ele>
        <time>2015-05-24T12:13:33Z</time>
      </trkpt>
      <trkpt lat="43.35389" lon="-1.86633">
        <ele>180.87</ele>
        <time>2015-05-24T12:13:35Z</time>
      </trkpt>
      <trkpt lat="43.35411" lon="-1.86632">
        <ele>182.79</ele>
        <time>2015-05-24T12:13:43Z</time>
      </trkpt>
      <trkpt lat="43.35434" lon="-1.86661">
        <ele>184.23</ele>
        <time>2015-05-24T12:13:56Z</time>
      </trkpt>
      <trkpt lat="43.35458" lon="-1.86701">
        <ele>185.67</ele>
        <time>2015-05-24T12:14:11Z</time>
      </trkpt>
      <trkpt lat="43.35489" lon="-1.86675">
        <ele>186.63</ele>
        <time>2015-05-24T12:14:24Z</time>
      </trkpt>
      <trkpt lat="43.35516" lon="-1.86644">
        <ele>187.59</ele>
        <time>2015-05-24T12:14:38Z</time>
      </trkpt>
      <trkpt lat="43.35541" lon="-1.86606">
        <ele>189.04</ele>
        <time>2015-05-24T12:14:52Z</time>
      </trkpt>
      <trkpt lat="43.35545" lon="-1.86591">
        <ele>190</ele>
        <time>2015-05-24T12:14:57Z</time>
      </trkpt>
      <trkpt lat="43.35539" lon="-1.8656">
        <ele>190.96</ele>
        <time>2015-05-24T12:15:08Z</time>
      </trkpt>
      <trkpt lat="43.35549" lon="-1.86548">
        <ele>190.96</ele>
        <time>2015-05-24T12:15:15Z</time>
      </trkpt>
      <trkpt lat="43.35577" lon="-1.86526">
        <ele>192.4</ele>
        <time>2015-05-24T12:15:31Z</time>
      </trkpt>
      <trkpt lat="43.35589" lon="-1.8649">
        <ele>193.84</ele>
        <time>2015-05-24T12:15:46Z</time>
      </trkpt>
      <trkpt lat="43.35601" lon="-1.86455">
        <ele>194.8</ele>
        <time>2015-05-24T12:16:01Z</time>
      </trkpt>
      <trkpt lat="43.35623" lon="-1.86463">
        <ele>195.28</ele>
        <time>2015-05-24T12:16:12Z</time>
      </trkpt>
      <trkpt lat="43.35644" lon="-1.86475">
        <ele>196.73</ele>
        <time>2015-05-24T12:16:24Z</time>
      </trkpt>
      <trkpt lat="43.35665" lon="-1.86486">
        <ele>197.69</ele>
        <time>2015-05-24T12:16:37Z</time>
      </trkpt>
      <trkpt lat="43.35691" lon="-1.86498">
        <ele>198.65</ele>
        <time>2015-05-24T12:16:51Z</time>
      </trkpt>
      <trkpt lat="43.3573" lon="-1.86492">
        <ele>197.21</ele>
        <time>2015-05-24T12:17:03Z</time>
      </trkpt>
      <trkpt lat="43.3575" lon="-1.86481">
        <ele>195.28</ele>
        <time>2015-05-24T12:17:08Z</time>
      </trkpt>
      <trkpt lat="43.35771" lon="-1.86444">
        <ele>193.36</ele>
        <time>2015-05-24T12:17:17Z</time>
      </trkpt>
      <trkpt lat="43.35768" lon="-1.86427">
        <ele>192.88</ele>
        <time>2015-05-24T12:17:20Z</time>
      </trkpt>
      <trkpt lat="43.35753" lon="-1.86398">
        <ele>190.48</ele>
        <time>2015-05-24T12:17:26Z</time>
      </trkpt>
      <trkpt lat="43.35744" lon="-1.86365">
        <ele>190.48</ele>
        <time>2015-05-24T12:17:32Z</time>
      </trkpt>
      <trkpt lat="43.35714" lon="-1.86329">
        <ele>190.48</ele>
        <time>2015-05-24T12:17:43Z</time>
      </trkpt>
      <trkpt lat="43.35681" lon="-1.86283">
        <ele>190.96</ele>
        <time>2015-05-24T12:17:57Z</time>
      </trkpt>
      <trkpt lat="43.35641" lon="-1.86255">
        <ele>189.52</ele>
        <time>2015-05-24T12:18:09Z</time>
      </trkpt>
      <trkpt lat="43.3562" lon="-1.86237">
        <ele>188.56</ele>
        <time>2015-05-24T12:18:15Z</time>
      </trkpt>
      <trkpt lat="43.35609" lon="-1.86227">
        <ele>186.63</ele>
        <time>2015-05-24T12:18:18Z</time>
      </trkpt>
      <trkpt lat="43.35589" lon="-1.86207">
        <ele>184.71</ele>
        <time>2015-05-24T12:18:24Z</time>
      </trkpt>
      <trkpt lat="43.3559" lon="-1.86183">
        <ele>184.23</ele>
        <time>2015-05-24T12:18:33Z</time>
      </trkpt>
      <trkpt lat="43.35592" lon="-1.86184">
        <ele>184.23</ele>
        <time>2015-05-24T12:18:34Z</time>
      </trkpt>
      <trkpt lat="43.35605" lon="-1.86187">
        <ele>185.67</ele>
        <time>2015-05-24T12:18:40Z</time>
      </trkpt>
      <trkpt lat="43.35626" lon="-1.86179">
        <ele>187.59</ele>
        <time>2015-05-24T12:18:52Z</time>
      </trkpt>
      <trkpt lat="43.35646" lon="-1.86163">
        <ele>189.04</ele>
        <time>2015-05-24T12:19:06Z</time>
      </trkpt>
      <trkpt lat="43.35666" lon="-1.86147">
        <ele>190.96</ele>
        <time>2015-05-24T12:19:22Z</time>
      </trkpt>
      <trkpt lat="43.35685" lon="-1.86136">
        <ele>193.36</ele>
        <time>2015-05-24T12:19:36Z</time>
      </trkpt>
      <trkpt lat="43.35704" lon="-1.86126">
        <ele>195.28</ele>
        <time>2015-05-24T12:19:50Z</time>
      </trkpt>
      <trkpt lat="43.35709" lon="-1.86122">
        <ele>195.77</ele>
        <time>2015-05-24T12:19:54Z</time>
      </trkpt>
      <trkpt lat="43.35727" lon="-1.86119">
        <ele>197.21</ele>
        <time>2015-05-24T12:20:06Z</time>
      </trkpt>
      <trkpt lat="43.35734" lon="-1.86131">
        <ele>197.69</ele>
        <time>2015-05-24T12:20:14Z</time>
      </trkpt>
      <trkpt lat="43.3575" lon="-1.86148">
        <ele>199.61</ele>
        <time>2015-05-24T12:20:28Z</time>
      </trkpt>
      <trkpt lat="43.3577" lon="-1.86151">
        <ele>201.05</ele>
        <time>2015-05-24T12:20:42Z</time>
      </trkpt>
      <trkpt lat="43.35791" lon="-1.86149">
        <ele>202.98</ele>
        <time>2015-05-24T12:20:58Z</time>
      </trkpt>
      <trkpt lat="43.35792" lon="-1.86149">
        <ele>202.98</ele>
        <time>2015-05-24T12:20:59Z</time>
      </trkpt>
      <trkpt lat="43.35811" lon="-1.86158">
        <ele>205.38</ele>
        <time>2015-05-24T12:21:14Z</time>
      </trkpt>
      <trkpt lat="43.35818" lon="-1.86159">
        <ele>205.86</ele>
        <time>2015-05-24T12:21:19Z</time>
      </trkpt>
      <trkpt lat="43.35838" lon="-1.86169">
        <ele>207.78</ele>
        <time>2015-05-24T12:21:34Z</time>
      </trkpt>
      <trkpt lat="43.35846" lon="-1.86174">
        <ele>208.26</ele>
        <time>2015-05-24T12:21:39Z</time>
      </trkpt>
      <trkpt lat="43.3586" lon="-1.86182">
        <ele>209.7</ele>
        <time>2015-05-24T12:21:49Z</time>
      </trkpt>
      <trkpt lat="43.35864" lon="-1.86184">
        <ele>210.19</ele>
        <time>2015-05-24T12:21:52Z</time>
      </trkpt>
      <trkpt lat="43.35883" lon="-1.86163">
        <ele>211.15</ele>
        <time>2015-05-24T12:22:08Z</time>
      </trkpt>
      <trkpt lat="43.35885" lon="-1.8612">
        <ele>212.11</ele>
        <time>2015-05-24T12:22:25Z</time>
      </trkpt>
      <trkpt lat="43.3588" lon="-1.86079">
        <ele>212.59</ele>
        <time>2015-05-24T12:22:41Z</time>
      </trkpt>
      <trkpt lat="43.35875" lon="-1.86049">
        <ele>213.07</ele>
        <time>2015-05-24T12:22:53Z</time>
      </trkpt>
      <trkpt lat="43.35873" lon="-1.86019">
        <ele>214.03</ele>
        <time>2015-05-24T12:23:04Z</time>
      </trkpt>
      <trkpt lat="43.35878" lon="-1.86013">
        <ele>214.03</ele>
        <time>2015-05-24T12:23:08Z</time>
      </trkpt>
      <trkpt lat="43.35909" lon="-1.86016">
        <ele>215.47</ele>
        <time>2015-05-24T12:23:26Z</time>
      </trkpt>
      <trkpt lat="43.35936" lon="-1.86009">
        <ele>216.91</ele>
        <time>2015-05-24T12:23:41Z</time>
      </trkpt>
      <trkpt lat="43.3595" lon="-1.85978">
        <ele>216.91</ele>
        <time>2015-05-24T12:23:53Z</time>
      </trkpt>
      <trkpt lat="43.3595" lon="-1.85951">
        <ele>214.03</ele>
        <time>2015-05-24T12:24:00Z</time>
      </trkpt>
      <trkpt lat="43.35942" lon="-1.85921">
        <ele>211.63</ele>
        <time>2015-05-24T12:24:08Z</time>
      </trkpt>
      <trkpt lat="43.35926" lon="-1.85869">
        <ele>208.26</ele>
        <time>2015-05-24T12:24:18Z</time>
      </trkpt>
      <trkpt lat="43.35922" lon="-1.85843">
        <ele>207.3</ele>
        <time>2015-05-24T12:24:23Z</time>
      </trkpt>
      <trkpt lat="43.35912" lon="-1.85808">
        <ele>205.38</ele>
        <time>2015-05-24T12:24:31Z</time>
      </trkpt>
      <trkpt lat="43.35879" lon="-1.85773">
        <ele>202.49</ele>
        <time>2015-05-24T12:24:42Z</time>
      </trkpt>
      <trkpt lat="43.35876" lon="-1.85763">
        <ele>202.01</ele>
        <time>2015-05-24T12:24:45Z</time>
      </trkpt>
      <trkpt lat="43.35882" lon="-1.85755">
        <ele>203.94</ele>
        <time>2015-05-24T12:24:50Z</time>
      </trkpt>
      <trkpt lat="43.35904" lon="-1.85742">
        <ele>206.34</ele>
        <time>2015-05-24T12:25:04Z</time>
      </trkpt>
      <trkpt lat="43.35908" lon="-1.8574">
        <ele>206.82</ele>
        <time>2015-05-24T12:25:06Z</time>
      </trkpt>
      <trkpt lat="43.35919" lon="-1.85733">
        <ele>208.26</ele>
        <time>2015-05-24T12:25:14Z</time>
      </trkpt>
      <trkpt lat="43.35936" lon="-1.85713">
        <ele>210.67</ele>
        <time>2015-05-24T12:25:30Z</time>
      </trkpt>
      <trkpt lat="43.35947" lon="-1.85701">
        <ele>212.11</ele>
        <time>2015-05-24T12:25:41Z</time>
      </trkpt>
      <trkpt lat="43.35957" lon="-1.85693">
        <ele>213.55</ele>
        <time>2015-05-24T12:25:50Z</time>
      </trkpt>
      <trkpt lat="43.35963" lon="-1.85691">
        <ele>214.51</ele>
        <time>2015-05-24T12:25:55Z</time>
      </trkpt>
      <trkpt lat="43.35982" lon="-1.85681">
        <ele>216.43</ele>
        <time>2015-05-24T12:26:10Z</time>
      </trkpt>
      <trkpt lat="43.35996" lon="-1.85675">
        <ele>218.36</ele>
        <time>2015-05-24T12:26:20Z</time>
      </trkpt>
      <trkpt lat="43.3601" lon="-1.85662">
        <ele>220.76</ele>
        <time>2015-05-24T12:26:33Z</time>
      </trkpt>
      <trkpt lat="43.3601" lon="-1.85634">
        <ele>221.24</ele>
        <time>2015-05-24T12:26:48Z</time>
      </trkpt>
      <trkpt lat="43.36011" lon="-1.85625">
        <ele>222.2</ele>
        <time>2015-05-24T12:26:53Z</time>
      </trkpt>
      <trkpt lat="43.36015" lon="-1.85616">
        <ele>222.2</ele>
        <time>2015-05-24T12:26:58Z</time>
      </trkpt>
      <trkpt lat="43.3603" lon="-1.85588">
        <ele>222.68</ele>
        <time>2015-05-24T12:27:12Z</time>
      </trkpt>
      <trkpt lat="43.36038" lon="-1.85556">
        <ele>223.16</ele>
        <time>2015-05-24T12:27:24Z</time>
      </trkpt>
      <trkpt lat="43.36041" lon="-1.85516">
        <ele>223.64</ele>
        <time>2015-05-24T12:27:38Z</time>
      </trkpt>
      <trkpt lat="43.36041" lon="-1.85476">
        <ele>223.64</ele>
        <time>2015-05-24T12:27:49Z</time>
      </trkpt>
      <trkpt lat="43.36039" lon="-1.85449">
        <ele>223.64</ele>
        <time>2015-05-24T12:27:54Z</time>
      </trkpt>
      <trkpt lat="43.36035" lon="-1.85433">
        <ele>222.2</ele>
        <time>2015-05-24T12:27:57Z</time>
      </trkpt>
      <trkpt lat="43.36024" lon="-1.85394">
        <ele>223.64</ele>
        <time>2015-05-24T12:28:07Z</time>
      </trkpt>
      <trkpt lat="43.36008" lon="-1.8535">
        <ele>223.64</ele>
        <time>2015-05-24T12:28:20Z</time>
      </trkpt>
      <trkpt lat="43.35986" lon="-1.85334">
        <ele>223.64</ele>
        <time>2015-05-24T12:28:29Z</time>
      </trkpt>
      <trkpt lat="43.35981" lon="-1.8533">
        <ele>223.64</ele>
        <time>2015-05-24T12:28:31Z</time>
      </trkpt>
      <trkpt lat="43.35955" lon="-1.85321">
        <ele>223.64</ele>
        <time>2015-05-24T12:28:41Z</time>
      </trkpt>
      <trkpt lat="43.35948" lon="-1.85313">
        <ele>224.12</ele>
        <time>2015-05-24T12:28:44Z</time>
      </trkpt>
      <trkpt lat="43.35919" lon="-1.8529">
        <ele>224.61</ele>
        <time>2015-05-24T12:28:57Z</time>
      </trkpt>
      <trkpt lat="43.35914" lon="-1.85284">
        <ele>225.09</ele>
        <time>2015-05-24T12:29:01Z</time>
      </trkpt>
      <trkpt lat="43.35902" lon="-1.85272">
        <ele>225.09</ele>
        <time>2015-05-24T12:29:10Z</time>
      </trkpt>
      <trkpt lat="43.35868" lon="-1.85254">
        <ele>226.05</ele>
        <time>2015-05-24T12:29:24Z</time>
      </trkpt>
      <trkpt lat="43.35857" lon="-1.85221">
        <ele>226.53</ele>
        <time>2015-05-24T12:29:34Z</time>
      </trkpt>
      <trkpt lat="43.3585" lon="-1.85191">
        <ele>226.53</ele>
        <time>2015-05-24T12:29:45Z</time>
      </trkpt>
      <trkpt lat="43.35838" lon="-1.85169">
        <ele>226.53</ele>
        <time>2015-05-24T12:29:55Z</time>
      </trkpt>
      <trkpt lat="43.35815" lon="-1.85153">
        <ele>227.01</ele>
        <time>2015-05-24T12:30:06Z</time>
      </trkpt>
      <trkpt lat="43.35786" lon="-1.85121">
        <ele>227.01</ele>
        <time>2015-05-24T12:30:21Z</time>
      </trkpt>
      <trkpt lat="43.35764" lon="-1.85083">
        <ele>227.49</ele>
        <time>2015-05-24T12:30:36Z</time>
      </trkpt>
      <trkpt lat="43.35742" lon="-1.85056">
        <ele>227.97</ele>
        <time>2015-05-24T12:30:47Z</time>
      </trkpt>
      <trkpt lat="43.35717" lon="-1.85034">
        <ele>227.97</ele>
        <time>2015-05-24T12:30:57Z</time>
      </trkpt>
      <trkpt lat="43.35716" lon="-1.85019">
        <ele>226.53</ele>
        <time>2015-05-24T12:31:01Z</time>
      </trkpt>
      <trkpt lat="43.35719" lon="-1.85014">
        <ele>226.53</ele>
        <time>2015-05-24T12:31:03Z</time>
      </trkpt>
      <trkpt lat="43.3575" lon="-1.84995">
        <ele>226.05</ele>
        <time>2015-05-24T12:31:15Z</time>
      </trkpt>
      <trkpt lat="43.35778" lon="-1.84993">
        <ele>226.05</ele>
        <time>2015-05-24T12:31:26Z</time>
      </trkpt>
      <trkpt lat="43.35813" lon="-1.84993">
        <ele>227.01</ele>
        <time>2015-05-24T12:31:39Z</time>
      </trkpt>
      <trkpt lat="43.35859" lon="-1.84967">
        <ele>227.01</ele>
        <time>2015-05-24T12:31:53Z</time>
      </trkpt>
      <trkpt lat="43.35895" lon="-1.8494">
        <ele>227.97</ele>
        <time>2015-05-24T12:32:06Z</time>
      </trkpt>
      <trkpt lat="43.35936" lon="-1.8491">
        <ele>228.45</ele>
        <time>2015-05-24T12:32:21Z</time>
      </trkpt>
      <trkpt lat="43.35951" lon="-1.84876">
        <ele>228.45</ele>
        <time>2015-05-24T12:32:31Z</time>
      </trkpt>
      <trkpt lat="43.3595" lon="-1.84864">
        <ele>228.45</ele>
        <time>2015-05-24T12:32:34Z</time>
      </trkpt>
      <trkpt lat="43.35945" lon="-1.84852">
        <ele>228.45</ele>
        <time>2015-05-24T12:32:38Z</time>
      </trkpt>
      <trkpt lat="43.35938" lon="-1.84806">
        <ele>228.45</ele>
        <time>2015-05-24T12:32:48Z</time>
      </trkpt>
      <trkpt lat="43.35933" lon="-1.84796">
        <ele>227.01</ele>
        <time>2015-05-24T12:32:50Z</time>
      </trkpt>
      <trkpt lat="43.35923" lon="-1.84775">
        <ele>226.53</ele>
        <time>2015-05-24T12:32:54Z</time>
      </trkpt>
      <trkpt lat="43.35917" lon="-1.84746">
        <ele>226.05</ele>
        <time>2015-05-24T12:32:59Z</time>
      </trkpt>
      <trkpt lat="43.35918" lon="-1.84737">
        <ele>226.05</ele>
        <time>2015-05-24T12:33:01Z</time>
      </trkpt>
      <trkpt lat="43.35931" lon="-1.84728">
        <ele>225.57</ele>
        <time>2015-05-24T12:33:05Z</time>
      </trkpt>
      <trkpt lat="43.35939" lon="-1.84728">
        <ele>225.57</ele>
        <time>2015-05-24T12:33:07Z</time>
      </trkpt>
      <trkpt lat="43.35948" lon="-1.8473">
        <ele>225.57</ele>
        <time>2015-05-24T12:33:09Z</time>
      </trkpt>
      <trkpt lat="43.35991" lon="-1.84752">
        <ele>225.57</ele>
        <time>2015-05-24T12:33:21Z</time>
      </trkpt>
      <trkpt lat="43.36006" lon="-1.84761">
        <ele>227.01</ele>
        <time>2015-05-24T12:33:26Z</time>
      </trkpt>
      <trkpt lat="43.36025" lon="-1.84773">
        <ele>227.49</ele>
        <time>2015-05-24T12:33:33Z</time>
      </trkpt>
      <trkpt lat="43.36064" lon="-1.848">
        <ele>227.49</ele>
        <time>2015-05-24T12:33:47Z</time>
      </trkpt>
      <trkpt lat="43.36092" lon="-1.84814">
        <ele>227.49</ele>
        <time>2015-05-24T12:33:58Z</time>
      </trkpt>
      <trkpt lat="43.36103" lon="-1.84811">
        <ele>227.49</ele>
        <time>2015-05-24T12:34:02Z</time>
      </trkpt>
      <trkpt lat="43.36115" lon="-1.84771">
        <ele>227.49</ele>
        <time>2015-05-24T12:34:13Z</time>
      </trkpt>
      <trkpt lat="43.36118" lon="-1.84763">
        <ele>226.53</ele>
        <time>2015-05-24T12:34:15Z</time>
      </trkpt>
      <trkpt lat="43.36141" lon="-1.84757">
        <ele>226.53</ele>
        <time>2015-05-24T12:34:24Z</time>
      </trkpt>
      <trkpt lat="43.36147" lon="-1.84757">
        <ele>226.53</ele>
        <time>2015-05-24T12:34:26Z</time>
      </trkpt>
      <trkpt lat="43.36161" lon="-1.84743">
        <ele>226.53</ele>
        <time>2015-05-24T12:34:32Z</time>
      </trkpt>
      <trkpt lat="43.36174" lon="-1.84698">
        <ele>226.53</ele>
        <time>2015-05-24T12:34:45Z</time>
      </trkpt>
      <trkpt lat="43.36183" lon="-1.84653">
        <ele>223.64</ele>
        <time>2015-05-24T12:34:54Z</time>
      </trkpt>
      <trkpt lat="43.36179" lon="-1.84596">
        <ele>220.76</ele>
        <time>2015-05-24T12:35:05Z</time>
      </trkpt>
      <trkpt lat="43.36183" lon="-1.84579">
        <ele>219.8</ele>
        <time>2015-05-24T12:35:08Z</time>
      </trkpt>
      <trkpt lat="43.36188" lon="-1.84534">
        <ele>217.88</ele>
        <time>2015-05-24T12:35:18Z</time>
      </trkpt>
      <trkpt lat="43.3619" lon="-1.84513">
        <ele>216.91</ele>
        <time>2015-05-24T12:35:22Z</time>
      </trkpt>
      <trkpt lat="43.36221" lon="-1.84495">
        <ele>214.03</ele>
        <time>2015-05-24T12:35:32Z</time>
      </trkpt>
      <trkpt lat="43.36259" lon="-1.84489">
        <ele>211.15</ele>
        <time>2015-05-24T12:35:44Z</time>
      </trkpt>
      <trkpt lat="43.36275" lon="-1.84481">
        <ele>208.74</ele>
        <time>2015-05-24T12:35:49Z</time>
      </trkpt>
      <trkpt lat="43.36301" lon="-1.84468">
        <ele>206.82</ele>
        <time>2015-05-24T12:36:01Z</time>
      </trkpt>
      <trkpt lat="43.36325" lon="-1.84461">
        <ele>204.9</ele>
        <time>2015-05-24T12:36:12Z</time>
      </trkpt>
      <trkpt lat="43.36357" lon="-1.84454">
        <ele>202.01</ele>
        <time>2015-05-24T12:36:24Z</time>
      </trkpt>
      <trkpt lat="43.36382" lon="-1.84455">
        <ele>200.09</ele>
        <time>2015-05-24T12:36:34Z</time>
      </trkpt>
      <trkpt lat="43.36384" lon="-1.84456">
        <ele>200.09</ele>
        <time>2015-05-24T12:36:40Z</time>
      </trkpt>
      <trkpt lat="43.36387" lon="-1.84455">
        <ele>200.09</ele>
        <time>2015-05-24T12:36:45Z</time>
      </trkpt>
      <trkpt lat="43.36414" lon="-1.84455">
        <ele>198.17</ele>
        <time>2015-05-24T12:36:56Z</time>
      </trkpt>
      <trkpt lat="43.36428" lon="-1.84444">
        <ele>196.73</ele>
        <time>2015-05-24T12:37:00Z</time>
      </trkpt>
      <trkpt lat="43.3644" lon="-1.84418">
        <ele>195.77</ele>
        <time>2015-05-24T12:37:05Z</time>
      </trkpt>
      <trkpt lat="43.36454" lon="-1.84391">
        <ele>193.36</ele>
        <time>2015-05-24T12:37:10Z</time>
      </trkpt>
      <trkpt lat="43.36467" lon="-1.84379">
        <ele>191.92</ele>
        <time>2015-05-24T12:37:13Z</time>
      </trkpt>
      <trkpt lat="43.36477" lon="-1.84375">
        <ele>190.48</ele>
        <time>2015-05-24T12:37:15Z</time>
      </trkpt>
      <trkpt lat="43.36493" lon="-1.84372">
        <ele>189.52</ele>
        <time>2015-05-24T12:37:18Z</time>
      </trkpt>
      <trkpt lat="43.36527" lon="-1.84374">
        <ele>186.63</ele>
        <time>2015-05-24T12:37:24Z</time>
      </trkpt>
      <trkpt lat="43.36561" lon="-1.84371">
        <ele>183.27</ele>
        <time>2015-05-24T12:37:30Z</time>
      </trkpt>
      <trkpt lat="43.36578" lon="-1.84373">
        <ele>181.35</ele>
        <time>2015-05-24T12:37:33Z</time>
      </trkpt>
      <trkpt lat="43.36613" lon="-1.84375">
        <ele>177.98</ele>
        <time>2015-05-24T12:37:41Z</time>
      </trkpt>
      <trkpt lat="43.36618" lon="-1.84375">
        <ele>177.98</ele>
        <time>2015-05-24T12:37:42Z</time>
      </trkpt>
      <trkpt lat="43.36637" lon="-1.84377">
        <ele>176.54</ele>
        <time>2015-05-24T12:37:46Z</time>
      </trkpt>
      <trkpt lat="43.36655" lon="-1.84383">
        <ele>175.1</ele>
        <time>2015-05-24T12:37:50Z</time>
      </trkpt>
      <trkpt lat="43.36671" lon="-1.84395">
        <ele>173.66</ele>
        <time>2015-05-24T12:37:54Z</time>
      </trkpt>
      <trkpt lat="43.36688" lon="-1.84397">
        <ele>172.21</ele>
        <time>2015-05-24T12:37:58Z</time>
      </trkpt>
      <trkpt lat="43.3672" lon="-1.84418">
        <ele>168.85</ele>
        <time>2015-05-24T12:38:07Z</time>
      </trkpt>
      <trkpt lat="43.36741" lon="-1.84427">
        <ele>166.93</ele>
        <time>2015-05-24T12:38:12Z</time>
      </trkpt>
      <trkpt lat="43.36754" lon="-1.84429">
        <ele>166.45</ele>
        <time>2015-05-24T12:38:15Z</time>
      </trkpt>
      <trkpt lat="43.36788" lon="-1.84416">
        <ele>162.6</ele>
        <time>2015-05-24T12:38:22Z</time>
      </trkpt>
      <trkpt lat="43.36805" lon="-1.84418">
        <ele>161.16</ele>
        <time>2015-05-24T12:38:25Z</time>
      </trkpt>
      <trkpt lat="43.36835" lon="-1.84428">
        <ele>159.72</ele>
        <time>2015-05-24T12:38:30Z</time>
      </trkpt>
      <trkpt lat="43.36872" lon="-1.84455">
        <ele>159.72</ele>
        <time>2015-05-24T12:38:40Z</time>
      </trkpt>
      <trkpt lat="43.36901" lon="-1.8448">
        <ele>159.72</ele>
        <time>2015-05-24T12:38:50Z</time>
      </trkpt>
      <trkpt lat="43.36913" lon="-1.84497">
        <ele>158.27</ele>
        <time>2015-05-24T12:38:54Z</time>
      </trkpt>
      <trkpt lat="43.3694" lon="-1.84526">
        <ele>159.24</ele>
        <time>2015-05-24T12:39:03Z</time>
      </trkpt>
      <trkpt lat="43.36957" lon="-1.84557">
        <ele>161.64</ele>
        <time>2015-05-24T12:39:15Z</time>
      </trkpt>
      <trkpt lat="43.3696" lon="-1.84566">
        <ele>161.64</ele>
        <time>2015-05-24T12:39:18Z</time>
      </trkpt>
      <trkpt lat="43.36973" lon="-1.84576">
        <ele>163.08</ele>
        <time>2015-05-24T12:39:25Z</time>
      </trkpt>
      <trkpt lat="43.3698" lon="-1.84579">
        <ele>163.56</ele>
        <time>2015-05-24T12:39:29Z</time>
      </trkpt>
      <trkpt lat="43.37005" lon="-1.84588">
        <ele>161.16</ele>
        <time>2015-05-24T12:39:39Z</time>
      </trkpt>
      <trkpt lat="43.37026" lon="-1.84595">
        <ele>157.79</ele>
        <time>2015-05-24T12:39:44Z</time>
      </trkpt>
      <trkpt lat="43.37031" lon="-1.84596">
        <ele>156.83</ele>
        <time>2015-05-24T12:39:45Z</time>
      </trkpt>
      <trkpt lat="43.37056" lon="-1.846">
        <ele>152.51</ele>
        <time>2015-05-24T12:39:51Z</time>
      </trkpt>
      <trkpt lat="43.37072" lon="-1.84601">
        <ele>150.1</ele>
        <time>2015-05-24T12:39:54Z</time>
      </trkpt>
      <trkpt lat="43.37092" lon="-1.84602">
        <ele>148.66</ele>
        <time>2015-05-24T12:39:58Z</time>
      </trkpt>
      <trkpt lat="43.37108" lon="-1.84601">
        <ele>147.22</ele>
        <time>2015-05-24T12:40:01Z</time>
      </trkpt>
      <trkpt lat="43.37119" lon="-1.84599">
        <ele>145.78</ele>
        <time>2015-05-24T12:40:03Z</time>
      </trkpt>
      <trkpt lat="43.3714" lon="-1.84598">
        <ele>143.85</ele>
        <time>2015-05-24T12:40:07Z</time>
      </trkpt>
      <trkpt lat="43.37161" lon="-1.84607">
        <ele>140.49</ele>
        <time>2015-05-24T12:40:12Z</time>
      </trkpt>
      <trkpt lat="43.37181" lon="-1.84619">
        <ele>136.64</ele>
        <time>2015-05-24T12:40:16Z</time>
      </trkpt>
      <trkpt lat="43.37203" lon="-1.8463">
        <ele>133.28</ele>
        <time>2015-05-24T12:40:20Z</time>
      </trkpt>
      <trkpt lat="43.37215" lon="-1.84633">
        <ele>131.84</ele>
        <time>2015-05-24T12:40:22Z</time>
      </trkpt>
      <trkpt lat="43.37261" lon="-1.84634">
        <ele>128.95</ele>
        <time>2015-05-24T12:40:30Z</time>
      </trkpt>
      <trkpt lat="43.37271" lon="-1.84634">
        <ele>127.51</ele>
        <time>2015-05-24T12:40:32Z</time>
      </trkpt>
      <trkpt lat="43.37297" lon="-1.84639">
        <ele>124.63</ele>
        <time>2015-05-24T12:40:37Z</time>
      </trkpt>
      <trkpt lat="43.3732" lon="-1.84641">
        <ele>121.26</ele>
        <time>2015-05-24T12:40:41Z</time>
      </trkpt>
      <trkpt lat="43.37353" lon="-1.84643">
        <ele>117.9</ele>
        <time>2015-05-24T12:40:47Z</time>
      </trkpt>
      <trkpt lat="43.37376" lon="-1.84655">
        <ele>114.05</ele>
        <time>2015-05-24T12:40:52Z</time>
      </trkpt>
      <trkpt lat="43.37399" lon="-1.84666">
        <ele>109.73</ele>
        <time>2015-05-24T12:40:57Z</time>
      </trkpt>
      <trkpt lat="43.37423" lon="-1.84677">
        <ele>105.88</ele>
        <time>2015-05-24T12:41:02Z</time>
      </trkpt>
      <trkpt lat="43.37442" lon="-1.84685">
        <ele>101.56</ele>
        <time>2015-05-24T12:41:06Z</time>
      </trkpt>
      <trkpt lat="43.37447" lon="-1.84686">
        <ele>101.56</ele>
        <time>2015-05-24T12:41:07Z</time>
      </trkpt>
      <trkpt lat="43.37456" lon="-1.8469">
        <ele>99.15</ele>
        <time>2015-05-24T12:41:09Z</time>
      </trkpt>
      <trkpt lat="43.37482" lon="-1.84704">
        <ele>94.35</ele>
        <time>2015-05-24T12:41:15Z</time>
      </trkpt>
      <trkpt lat="43.37495" lon="-1.84711">
        <ele>90.98</ele>
        <time>2015-05-24T12:41:18Z</time>
      </trkpt>
      <trkpt lat="43.37513" lon="-1.8472">
        <ele>87.62</ele>
        <time>2015-05-24T12:41:22Z</time>
      </trkpt>
      <trkpt lat="43.37517" lon="-1.84723">
        <ele>87.14</ele>
        <time>2015-05-24T12:41:23Z</time>
      </trkpt>
      <trkpt lat="43.3753" lon="-1.84726">
        <ele>84.73</ele>
        <time>2015-05-24T12:41:27Z</time>
      </trkpt>
      <trkpt lat="43.37536" lon="-1.84727">
        <ele>83.29</ele>
        <time>2015-05-24T12:41:29Z</time>
      </trkpt>
      <trkpt lat="43.37556" lon="-1.84734">
        <ele>79.45</ele>
        <time>2015-05-24T12:41:35Z</time>
      </trkpt>
      <trkpt lat="43.37566" lon="-1.84739">
        <ele>76.56</ele>
        <time>2015-05-24T12:41:39Z</time>
      </trkpt>
      <trkpt lat="43.37577" lon="-1.84745">
        <ele>73.2</ele>
        <time>2015-05-24T12:41:44Z</time>
      </trkpt>
      <trkpt lat="43.37579" lon="-1.84745">
        <ele>72.24</ele>
        <time>2015-05-24T12:41:45Z</time>
      </trkpt>
      <trkpt lat="43.37586" lon="-1.84746">
        <ele>70.79</ele>
        <time>2015-05-24T12:41:48Z</time>
      </trkpt>
      <trkpt lat="43.37587" lon="-1.84747">
        <ele>70.31</ele>
        <time>2015-05-24T12:41:58Z</time>
      </trkpt>
      <trkpt lat="43.37588" lon="-1.84745">
        <ele>70.31</ele>
        <time>2015-05-24T12:42:12Z</time>
      </trkpt>
      <trkpt lat="43.37588" lon="-1.84745">
        <ele>70.31</ele>
        <time>2015-05-24T12:42:48Z</time>
      </trkpt>
      <trkpt lat="43.37588" lon="-1.84745">
        <ele>70.31</ele>
        <time>2015-05-24T12:43:24Z</time>
      </trkpt>
      <trkpt lat="43.37589" lon="-1.84746">
        <ele>70.31</ele>
        <time>2015-05-24T12:43:53Z</time>
      </trkpt>
      <trkpt lat="43.37589" lon="-1.84745">
        <ele>69.83</ele>
        <time>2015-05-24T12:44:34Z</time>
      </trkpt>
      <trkpt lat="43.37589" lon="-1.84745">
        <ele>69.83</ele>
        <time>2015-05-24T12:45:06Z</time>
      </trkpt>
      <trkpt lat="43.37589" lon="-1.84746">
        <ele>69.83</ele>
        <time>2015-05-24T12:45:31Z</time>
      </trkpt>
      <trkpt lat="43.37597" lon="-1.84747">
        <ele>69.35</ele>
        <time>2015-05-24T12:45:36Z</time>
      </trkpt>
      <trkpt lat="43.37607" lon="-1.84756">
        <ele>65.99</ele>
        <time>2015-05-24T12:45:40Z</time>
      </trkpt>
      <trkpt lat="43.37616" lon="-1.84769">
        <ele>63.1</ele>
        <time>2015-05-24T12:45:44Z</time>
      </trkpt>
      <trkpt lat="43.37627" lon="-1.8479">
        <ele>59.74</ele>
        <time>2015-05-24T12:45:50Z</time>
      </trkpt>
      <trkpt lat="43.37639" lon="-1.84808">
        <ele>55.89</ele>
        <time>2015-05-24T12:45:55Z</time>
      </trkpt>
      <trkpt lat="43.37644" lon="-1.84824">
        <ele>53.01</ele>
        <time>2015-05-24T12:45:58Z</time>
      </trkpt>
      <trkpt lat="43.37651" lon="-1.84838">
        <ele>52.05</ele>
        <time>2015-05-24T12:46:01Z</time>
      </trkpt>
      <trkpt lat="43.37657" lon="-1.84843">
        <ele>51.57</ele>
        <time>2015-05-24T12:46:03Z</time>
      </trkpt>
      <trkpt lat="43.37668" lon="-1.84851">
        <ele>48.68</ele>
        <time>2015-05-24T12:46:06Z</time>
      </trkpt>
      <trkpt lat="43.37677" lon="-1.84855">
        <ele>47.24</ele>
        <time>2015-05-24T12:46:08Z</time>
      </trkpt>
      <trkpt lat="43.37696" lon="-1.84864">
        <ele>44.36</ele>
        <time>2015-05-24T12:46:12Z</time>
      </trkpt>
      <trkpt lat="43.377" lon="-1.84866">
        <ele>43.88</ele>
        <time>2015-05-24T12:46:13Z</time>
      </trkpt>
      <trkpt lat="43.37708" lon="-1.84871">
        <ele>42.92</ele>
        <time>2015-05-24T12:46:15Z</time>
      </trkpt>
      <trkpt lat="43.37736" lon="-1.84889">
        <ele>39.55</ele>
        <time>2015-05-24T12:46:23Z</time>
      </trkpt>
      <trkpt lat="43.3774" lon="-1.84894">
        <ele>39.55</ele>
        <time>2015-05-24T12:46:25Z</time>
      </trkpt>
      <trkpt lat="43.37749" lon="-1.8489">
        <ele>39.07</ele>
        <time>2015-05-24T12:46:36Z</time>
      </trkpt>
      <trkpt lat="43.37748" lon="-1.8489">
        <ele>39.07</ele>
        <time>2015-05-24T12:46:38Z</time>
      </trkpt>
      <trkpt lat="43.37746" lon="-1.84885">
        <ele>39.07</ele>
        <time>2015-05-24T12:46:42Z</time>
      </trkpt>
      <trkpt lat="43.37738" lon="-1.84876">
        <ele>39.07</ele>
        <time>2015-05-24T12:46:47Z</time>
      </trkpt>
      <trkpt lat="43.37731" lon="-1.84861">
        <ele>40.51</ele>
        <time>2015-05-24T12:46:53Z</time>
      </trkpt>
      <trkpt lat="43.37719" lon="-1.84837">
        <ele>39.07</ele>
        <time>2015-05-24T12:47:00Z</time>
      </trkpt>
      <trkpt lat="43.3771" lon="-1.8483">
        <ele>38.59</ele>
        <time>2015-05-24T12:47:08Z</time>
      </trkpt>
      <trkpt lat="43.37701" lon="-1.84826">
        <ele>38.59</ele>
        <time>2015-05-24T12:47:20Z</time>
      </trkpt>
      <trkpt lat="43.37701" lon="-1.84821">
        <ele>38.11</ele>
        <time>2015-05-24T12:47:28Z</time>
      </trkpt>
      <trkpt lat="43.37709" lon="-1.84799">
        <ele>38.11</ele>
        <time>2015-05-24T12:47:37Z</time>
      </trkpt>
      <trkpt lat="43.37708" lon="-1.84795">
        <ele>39.07</ele>
        <time>2015-05-24T12:47:43Z</time>
      </trkpt>
      <trkpt lat="43.37704" lon="-1.84767">
        <ele>39.07</ele>
        <time>2015-05-24T12:47:53Z</time>
      </trkpt>
      <trkpt lat="43.37702" lon="-1.84757">
        <ele>39.07</ele>
        <time>2015-05-24T12:48:02Z</time>
      </trkpt>
      <trkpt lat="43.37702" lon="-1.84755">
        <ele>38.11</ele>
        <time>2015-05-24T12:48:07Z</time>
      </trkpt>
      <trkpt lat="43.37697" lon="-1.84751">
        <ele>37.63</ele>
        <time>2015-05-24T12:48:17Z</time>
      </trkpt>
      <trkpt lat="43.37701" lon="-1.84728">
        <ele>37.63</ele>
        <time>2015-05-24T12:48:32Z</time>
      </trkpt>
      <trkpt lat="43.37702" lon="-1.84723">
        <ele>39.07</ele>
        <time>2015-05-24T12:48:36Z</time>
      </trkpt>
      <trkpt lat="43.37703" lon="-1.84717">
        <ele>39.55</ele>
        <time>2015-05-24T12:48:47Z</time>
      </trkpt>
      <trkpt lat="43.37697" lon="-1.84699">
        <ele>39.55</ele>
        <time>2015-05-24T12:48:55Z</time>
      </trkpt>
      <trkpt lat="43.37685" lon="-1.84668">
        <ele>37.15</ele>
        <time>2015-05-24T12:49:07Z</time>
      </trkpt>
      <trkpt lat="43.37683" lon="-1.84667">
        <ele>36.19</ele>
        <time>2015-05-24T12:49:09Z</time>
      </trkpt>
      <trkpt lat="43.37669" lon="-1.84666">
        <ele>34.74</ele>
        <time>2015-05-24T12:49:15Z</time>
      </trkpt>
      <trkpt lat="43.37654" lon="-1.84648">
        <ele>32.82</ele>
        <time>2015-05-24T12:49:23Z</time>
      </trkpt>
      <trkpt lat="43.37651" lon="-1.84652">
        <ele>33.3</ele>
        <time>2015-05-24T12:49:35Z</time>
      </trkpt>
      <trkpt lat="43.37645" lon="-1.84653">
        <ele>31.86</ele>
        <time>2015-05-24T12:49:47Z</time>
      </trkpt>
      <trkpt lat="43.3764" lon="-1.84653">
        <ele>31.86</ele>
        <time>2015-05-24T12:50:00Z</time>
      </trkpt>
      <trkpt lat="43.37634" lon="-1.84652">
        <ele>29.94</ele>
        <time>2015-05-24T12:50:11Z</time>
      </trkpt>
      <trkpt lat="43.37629" lon="-1.84649">
        <ele>29.46</ele>
        <time>2015-05-24T12:50:15Z</time>
      </trkpt>
      <trkpt lat="43.37628" lon="-1.84645">
        <ele>29.46</ele>
        <time>2015-05-24T12:50:23Z</time>
      </trkpt>
      <trkpt lat="43.37624" lon="-1.84628">
        <ele>29.46</ele>
        <time>2015-05-24T12:50:31Z</time>
      </trkpt>
      <trkpt lat="43.37622" lon="-1.84625">
        <ele>28.98</ele>
        <time>2015-05-24T12:50:42Z</time>
      </trkpt>
      <trkpt lat="43.3762" lon="-1.84623">
        <ele>28.98</ele>
        <time>2015-05-24T12:50:44Z</time>
      </trkpt>
      <trkpt lat="43.37615" lon="-1.84623">
        <ele>28.02</ele>
        <time>2015-05-24T12:50:48Z</time>
      </trkpt>
      <trkpt lat="43.37607" lon="-1.84619">
        <ele>28.02</ele>
        <time>2015-05-24T12:50:58Z</time>
      </trkpt>
      <trkpt lat="43.37599" lon="-1.84616">
        <ele>28.02</ele>
        <time>2015-05-24T12:51:10Z</time>
      </trkpt>
      <trkpt lat="43.37591" lon="-1.84605">
        <ele>29.46</ele>
        <time>2015-05-24T12:51:23Z</time>
      </trkpt>
      <trkpt lat="43.3759" lon="-1.84602">
        <ele>30.9</ele>
        <time>2015-05-24T12:51:28Z</time>
      </trkpt>
      <trkpt lat="43.37587" lon="-1.84592">
        <ele>31.86</ele>
        <time>2015-05-24T12:51:41Z</time>
      </trkpt>
      <trkpt lat="43.37579" lon="-1.84583">
        <ele>32.82</ele>
        <time>2015-05-24T12:51:56Z</time>
      </trkpt>
      <trkpt lat="43.37576" lon="-1.8458">
        <ele>32.82</ele>
        <time>2015-05-24T12:52:08Z</time>
      </trkpt>
      <trkpt lat="43.37575" lon="-1.84581">
        <ele>32.82</ele>
        <time>2015-05-24T12:52:10Z</time>
      </trkpt>
      <trkpt lat="43.37564" lon="-1.84585">
        <ele>31.38</ele>
        <time>2015-05-24T12:52:24Z</time>
      </trkpt>
      <trkpt lat="43.37559" lon="-1.84581">
        <ele>29.46</ele>
        <time>2015-05-24T12:52:38Z</time>
      </trkpt>
      <trkpt lat="43.37558" lon="-1.84572">
        <ele>28.5</ele>
        <time>2015-05-24T12:52:51Z</time>
      </trkpt>
      <trkpt lat="43.3756" lon="-1.84568">
        <ele>27.53</ele>
        <time>2015-05-24T12:52:57Z</time>
      </trkpt>
      <trkpt lat="43.37563" lon="-1.84561">
        <ele>26.57</ele>
        <time>2015-05-24T12:53:04Z</time>
      </trkpt>
      <trkpt lat="43.37563" lon="-1.84559">
        <ele>26.09</ele>
        <time>2015-05-24T12:53:06Z</time>
      </trkpt>
      <trkpt lat="43.37564" lon="-1.84544">
        <ele>24.65</ele>
        <time>2015-05-24T12:53:14Z</time>
      </trkpt>
      <trkpt lat="43.37556" lon="-1.84538">
        <ele>24.65</ele>
        <time>2015-05-24T12:53:24Z</time>
      </trkpt>
      <trkpt lat="43.37552" lon="-1.84535">
        <ele>23.21</ele>
        <time>2015-05-24T12:53:35Z</time>
      </trkpt>
      <trkpt lat="43.37538" lon="-1.84528">
        <ele>21.29</ele>
        <time>2015-05-24T12:53:44Z</time>
      </trkpt>
      <trkpt lat="43.37529" lon="-1.84524">
        <ele>21.29</ele>
        <time>2015-05-24T12:53:54Z</time>
      </trkpt>
      <trkpt lat="43.37514" lon="-1.84511">
        <ele>18.88</ele>
        <time>2015-05-24T12:54:02Z</time>
      </trkpt>
      <trkpt lat="43.37495" lon="-1.845">
        <ele>16</ele>
        <time>2015-05-24T12:54:10Z</time>
      </trkpt>
      <trkpt lat="43.3749" lon="-1.84496">
        <ele>15.04</ele>
        <time>2015-05-24T12:54:18Z</time>
      </trkpt>
      <trkpt lat="43.37486" lon="-1.8449">
        <ele>13.12</ele>
        <time>2015-05-24T12:54:28Z</time>
      </trkpt>
      <trkpt lat="43.37489" lon="-1.84483">
        <ele>12.15</ele>
        <time>2015-05-24T12:54:40Z</time>
      </trkpt>
      <trkpt lat="43.37491" lon="-1.84482">
        <ele>12.15</ele>
        <time>2015-05-24T12:54:44Z</time>
      </trkpt>
      <trkpt lat="43.375" lon="-1.84471">
        <ele>13.6</ele>
        <time>2015-05-24T12:54:56Z</time>
      </trkpt>
      <trkpt lat="43.37511" lon="-1.84465">
        <ele>15.04</ele>
        <time>2015-05-24T12:55:14Z</time>
      </trkpt>
      <trkpt lat="43.37514" lon="-1.84461">
        <ele>15.04</ele>
        <time>2015-05-24T12:55:28Z</time>
      </trkpt>
      <trkpt lat="43.37516" lon="-1.8446">
        <ele>15.04</ele>
        <time>2015-05-24T12:55:31Z</time>
      </trkpt>
      <trkpt lat="43.37521" lon="-1.84451">
        <ele>16</ele>
        <time>2015-05-24T12:55:43Z</time>
      </trkpt>
      <trkpt lat="43.37523" lon="-1.84444">
        <ele>17.44</ele>
        <time>2015-05-24T12:55:51Z</time>
      </trkpt>
      <trkpt lat="43.37539" lon="-1.84445">
        <ele>17.92</ele>
        <time>2015-05-24T12:56:05Z</time>
      </trkpt>
      <trkpt lat="43.37549" lon="-1.8444">
        <ele>20.32</ele>
        <time>2015-05-24T12:56:19Z</time>
      </trkpt>
      <trkpt lat="43.37563" lon="-1.84434">
        <ele>22.25</ele>
        <time>2015-05-24T12:56:34Z</time>
      </trkpt>
      <trkpt lat="43.37571" lon="-1.84423">
        <ele>25.13</ele>
        <time>2015-05-24T12:56:50Z</time>
      </trkpt>
      <trkpt lat="43.3758" lon="-1.84417">
        <ele>27.05</ele>
        <time>2015-05-24T12:57:04Z</time>
      </trkpt>
      <trkpt lat="43.37586" lon="-1.84419">
        <ele>28.5</ele>
        <time>2015-05-24T12:57:11Z</time>
      </trkpt>
      <trkpt lat="43.3759" lon="-1.84431">
        <ele>29.46</ele>
        <time>2015-05-24T12:57:21Z</time>
      </trkpt>
      <trkpt lat="43.37597" lon="-1.84434">
        <ele>30.42</ele>
        <time>2015-05-24T12:57:30Z</time>
      </trkpt>
      <trkpt lat="43.37601" lon="-1.84431">
        <ele>30.42</ele>
        <time>2015-05-24T12:57:35Z</time>
      </trkpt>
      <trkpt lat="43.37609" lon="-1.84421">
        <ele>32.34</ele>
        <time>2015-05-24T12:57:49Z</time>
      </trkpt>
      <trkpt lat="43.3761" lon="-1.84411">
        <ele>33.3</ele>
        <time>2015-05-24T12:58:03Z</time>
      </trkpt>
      <trkpt lat="43.37611" lon="-1.84407">
        <ele>35.23</ele>
        <time>2015-05-24T12:58:20Z</time>
      </trkpt>
      <trkpt lat="43.37617" lon="-1.84396">
        <ele>37.63</ele>
        <time>2015-05-24T12:58:34Z</time>
      </trkpt>
      <trkpt lat="43.37619" lon="-1.84384">
        <ele>40.03</ele>
        <time>2015-05-24T12:58:48Z</time>
      </trkpt>
      <trkpt lat="43.3762" lon="-1.84384">
        <ele>39.55</ele>
        <time>2015-05-24T12:58:49Z</time>
      </trkpt>
      <trkpt lat="43.37632" lon="-1.84386">
        <ele>39.55</ele>
        <time>2015-05-24T12:58:56Z</time>
      </trkpt>
      <trkpt lat="43.3764" lon="-1.84385">
        <ele>38.11</ele>
        <time>2015-05-24T12:58:59Z</time>
      </trkpt>
      <trkpt lat="43.37655" lon="-1.84376">
        <ele>39.55</ele>
        <time>2015-05-24T12:59:08Z</time>
      </trkpt>
      <trkpt lat="43.37666" lon="-1.84362">
        <ele>42.92</ele>
        <time>2015-05-24T12:59:20Z</time>
      </trkpt>
      <trkpt lat="43.37669" lon="-1.84353">
        <ele>44.84</ele>
        <time>2015-05-24T12:59:34Z</time>
      </trkpt>
      <trkpt lat="43.3767" lon="-1.84344">
        <ele>47.24</ele>
        <time>2015-05-24T12:59:47Z</time>
      </trkpt>
      <trkpt lat="43.37674" lon="-1.84331">
        <ele>48.2</ele>
        <time>2015-05-24T13:00:00Z</time>
      </trkpt>
      <trkpt lat="43.37673" lon="-1.84313">
        <ele>49.65</ele>
        <time>2015-05-24T13:00:16Z</time>
      </trkpt>
      <trkpt lat="43.37672" lon="-1.84298">
        <ele>51.57</ele>
        <time>2015-05-24T13:00:31Z</time>
      </trkpt>
      <trkpt lat="43.37671" lon="-1.84286">
        <ele>53.01</ele>
        <time>2015-05-24T13:00:48Z</time>
      </trkpt>
      <trkpt lat="43.37671" lon="-1.84286">
        <ele>53.49</ele>
        <time>2015-05-24T13:00:49Z</time>
      </trkpt>
      <trkpt lat="43.37667" lon="-1.84271">
        <ele>53.49</ele>
        <time>2015-05-24T13:01:04Z</time>
      </trkpt>
      <trkpt lat="43.37665" lon="-1.84261">
        <ele>53.49</ele>
        <time>2015-05-24T13:01:16Z</time>
      </trkpt>
      <trkpt lat="43.37668" lon="-1.84231">
        <ele>53.49</ele>
        <time>2015-05-24T13:01:28Z</time>
      </trkpt>
      <trkpt lat="43.37674" lon="-1.84199">
        <ele>56.86</ele>
        <time>2015-05-24T13:01:43Z</time>
      </trkpt>
      <trkpt lat="43.37673" lon="-1.84193">
        <ele>57.34</ele>
        <time>2015-05-24T13:01:46Z</time>
      </trkpt>
      <trkpt lat="43.37673" lon="-1.8419">
        <ele>58.3</ele>
        <time>2015-05-24T13:02:00Z</time>
      </trkpt>
      <trkpt lat="43.37673" lon="-1.8419">
        <ele>58.3</ele>
        <time>2015-05-24T13:02:26Z</time>
      </trkpt>
      <trkpt lat="43.37675" lon="-1.84189">
        <ele>57.82</ele>
        <time>2015-05-24T13:02:53Z</time>
      </trkpt>
      <trkpt lat="43.37678" lon="-1.84183">
        <ele>55.89</ele>
        <time>2015-05-24T13:03:07Z</time>
      </trkpt>
      <trkpt lat="43.37663" lon="-1.84157">
        <ele>53.01</ele>
        <time>2015-05-24T13:03:16Z</time>
      </trkpt>
      <trkpt lat="43.3766" lon="-1.84152">
        <ele>53.01</ele>
        <time>2015-05-24T13:03:18Z</time>
      </trkpt>
      <trkpt lat="43.37662" lon="-1.84144">
        <ele>53.01</ele>
        <time>2015-05-24T13:03:27Z</time>
      </trkpt>
      <trkpt lat="43.37664" lon="-1.84139">
        <ele>54.45</ele>
        <time>2015-05-24T13:03:32Z</time>
      </trkpt>
      <trkpt lat="43.37671" lon="-1.84133">
        <ele>53.01</ele>
        <time>2015-05-24T13:03:36Z</time>
      </trkpt>
      <trkpt lat="43.3768" lon="-1.84123">
        <ele>53.01</ele>
        <time>2015-05-24T13:03:40Z</time>
      </trkpt>
      <trkpt lat="43.37701" lon="-1.8409">
        <ele>52.53</ele>
        <time>2015-05-24T13:03:51Z</time>
      </trkpt>
      <trkpt lat="43.37721" lon="-1.84056">
        <ele>52.05</ele>
        <time>2015-05-24T13:04:03Z</time>
      </trkpt>
      <trkpt lat="43.37724" lon="-1.84053">
        <ele>51.09</ele>
        <time>2015-05-24T13:04:04Z</time>
      </trkpt>
      <trkpt lat="43.37728" lon="-1.84043">
        <ele>48.68</ele>
        <time>2015-05-24T13:04:06Z</time>
      </trkpt>
      <trkpt lat="43.37735" lon="-1.84032">
        <ele>47.72</ele>
        <time>2015-05-24T13:04:08Z</time>
      </trkpt>
      <trkpt lat="43.37738" lon="-1.84027">
        <ele>47.72</ele>
        <time>2015-05-24T13:04:09Z</time>
      </trkpt>
      <trkpt lat="43.3774" lon="-1.83996">
        <ele>46.28</ele>
        <time>2015-05-24T13:04:16Z</time>
      </trkpt>
      <trkpt lat="43.37736" lon="-1.83991">
        <ele>45.8</ele>
        <time>2015-05-24T13:04:19Z</time>
      </trkpt>
      <trkpt lat="43.37741" lon="-1.8398">
        <ele>44.84</ele>
        <time>2015-05-24T13:04:24Z</time>
      </trkpt>
      <trkpt lat="43.37767" lon="-1.83963">
        <ele>41.47</ele>
        <time>2015-05-24T13:04:32Z</time>
      </trkpt>
      <trkpt lat="43.37771" lon="-1.8396">
        <ele>41.95</ele>
        <time>2015-05-24T13:04:33Z</time>
      </trkpt>
      <trkpt lat="43.37783" lon="-1.83946">
        <ele>41.47</ele>
        <time>2015-05-24T13:04:37Z</time>
      </trkpt>
      <trkpt lat="43.37791" lon="-1.83938">
        <ele>40.03</ele>
        <time>2015-05-24T13:04:40Z</time>
      </trkpt>
      <trkpt lat="43.37806" lon="-1.83932">
        <ele>36.19</ele>
        <time>2015-05-24T13:04:44Z</time>
      </trkpt>
      <trkpt lat="43.3781" lon="-1.83935">
        <ele>34.74</ele>
        <time>2015-05-24T13:04:56Z</time>
      </trkpt>
      <trkpt lat="43.3781" lon="-1.83936">
        <ele>33.78</ele>
        <time>2015-05-24T13:05:10Z</time>
      </trkpt>
      <trkpt lat="43.37824" lon="-1.83939">
        <ele>30.9</ele>
        <time>2015-05-24T13:05:22Z</time>
      </trkpt>
      <trkpt lat="43.37839" lon="-1.83937">
        <ele>27.53</ele>
        <time>2015-05-24T13:05:27Z</time>
      </trkpt>
      <trkpt lat="43.37842" lon="-1.83937">
        <ele>27.53</ele>
        <time>2015-05-24T13:05:28Z</time>
      </trkpt>
      <trkpt lat="43.3785" lon="-1.83931">
        <ele>27.05</ele>
        <time>2015-05-24T13:05:34Z</time>
      </trkpt>
      <trkpt lat="43.37853" lon="-1.83936">
        <ele>25.61</ele>
        <time>2015-05-24T13:05:44Z</time>
      </trkpt>
      <trkpt lat="43.37851" lon="-1.83947">
        <ele>23.21</ele>
        <time>2015-05-24T13:05:59Z</time>
      </trkpt>
      <trkpt lat="43.37849" lon="-1.83947">
        <ele>23.21</ele>
        <time>2015-05-24T13:06:01Z</time>
      </trkpt>
      <trkpt lat="43.37846" lon="-1.83956">
        <ele>21.29</ele>
        <time>2015-05-24T13:06:12Z</time>
      </trkpt>
      <trkpt lat="43.3784" lon="-1.83973">
        <ele>17.44</ele>
        <time>2015-05-24T13:06:17Z</time>
      </trkpt>
      <trkpt lat="43.37839" lon="-1.83976">
        <ele>17.44</ele>
        <time>2015-05-24T13:06:18Z</time>
      </trkpt>
      <trkpt lat="43.37838" lon="-1.83981">
        <ele>16</ele>
        <time>2015-05-24T13:06:20Z</time>
      </trkpt>
      <trkpt lat="43.37839" lon="-1.83985">
        <ele>15.52</ele>
        <time>2015-05-24T13:06:22Z</time>
      </trkpt>
      <trkpt lat="43.37841" lon="-1.83989">
        <ele>14.56</ele>
        <time>2015-05-24T13:06:24Z</time>
      </trkpt>
      <trkpt lat="43.37842" lon="-1.83994">
        <ele>13.6</ele>
        <time>2015-05-24T13:06:26Z</time>
      </trkpt>
      <trkpt lat="43.37843" lon="-1.83996">
        <ele>12.63</ele>
        <time>2015-05-24T13:06:27Z</time>
      </trkpt>
      <trkpt lat="43.37847" lon="-1.84007">
        <ele>9.27</ele>
        <time>2015-05-24T13:06:32Z</time>
      </trkpt>
      <trkpt lat="43.37853" lon="-1.84015">
        <ele>7.83</ele>
        <time>2015-05-24T13:06:43Z</time>
      </trkpt>
      <trkpt lat="43.37858" lon="-1.84016">
        <ele>8.31</ele>
        <time>2015-05-24T13:06:56Z</time>
      </trkpt>
      <trkpt lat="43.37862" lon="-1.84015">
        <ele>8.31</ele>
        <time>2015-05-24T13:07:09Z</time>
      </trkpt>
      <trkpt lat="43.37863" lon="-1.84014">
        <ele>8.31</ele>
        <time>2015-05-24T13:07:12Z</time>
      </trkpt>
      <trkpt lat="43.37865" lon="-1.84012">
        <ele>8.31</ele>
        <time>2015-05-24T13:07:14Z</time>
      </trkpt>
      <trkpt lat="43.37871" lon="-1.84008">
        <ele>9.27</ele>
        <time>2015-05-24T13:07:21Z</time>
      </trkpt>
      <trkpt lat="43.37875" lon="-1.84007">
        <ele>11.19</ele>
        <time>2015-05-24T13:07:34Z</time>
      </trkpt>
      <trkpt lat="43.37883" lon="-1.83999">
        <ele>14.56</ele>
        <time>2015-05-24T13:07:49Z</time>
      </trkpt>
      <trkpt lat="43.37889" lon="-1.83988">
        <ele>15.52</ele>
        <time>2015-05-24T13:08:03Z</time>
      </trkpt>
      <trkpt lat="43.379" lon="-1.83976">
        <ele>16.96</ele>
        <time>2015-05-24T13:08:20Z</time>
      </trkpt>
      <trkpt lat="43.37908" lon="-1.83962">
        <ele>18.4</ele>
        <time>2015-05-24T13:08:38Z</time>
      </trkpt>
      <trkpt lat="43.37913" lon="-1.83956">
        <ele>20.32</ele>
        <time>2015-05-24T13:08:52Z</time>
      </trkpt>
      <trkpt lat="43.37914" lon="-1.83953">
        <ele>20.32</ele>
        <time>2015-05-24T13:08:55Z</time>
      </trkpt>
      <trkpt lat="43.37919" lon="-1.83936">
        <ele>23.69</ele>
        <time>2015-05-24T13:09:13Z</time>
      </trkpt>
      <trkpt lat="43.37918" lon="-1.83926">
        <ele>25.61</ele>
        <time>2015-05-24T13:09:27Z</time>
      </trkpt>
      <trkpt lat="43.37919" lon="-1.83917">
        <ele>27.53</ele>
        <time>2015-05-24T13:09:43Z</time>
      </trkpt>
      <trkpt lat="43.3792" lon="-1.83907">
        <ele>28.98</ele>
        <time>2015-05-24T13:09:56Z</time>
      </trkpt>
      <trkpt lat="43.37921" lon="-1.83898">
        <ele>30.9</ele>
        <time>2015-05-24T13:10:09Z</time>
      </trkpt>
      <trkpt lat="43.37924" lon="-1.83889">
        <ele>32.82</ele>
        <time>2015-05-24T13:10:24Z</time>
      </trkpt>
      <trkpt lat="43.37926" lon="-1.8388">
        <ele>35.23</ele>
        <time>2015-05-24T13:10:38Z</time>
      </trkpt>
      <trkpt lat="43.37933" lon="-1.83875">
        <ele>36.67</ele>
        <time>2015-05-24T13:10:53Z</time>
      </trkpt>
      <trkpt lat="43.37944" lon="-1.83868">
        <ele>38.59</ele>
        <time>2015-05-24T13:11:09Z</time>
      </trkpt>
      <trkpt lat="43.37955" lon="-1.83862">
        <ele>40.51</ele>
        <time>2015-05-24T13:11:25Z</time>
      </trkpt>
      <trkpt lat="43.37955" lon="-1.83862">
        <ele>41.47</ele>
        <time>2015-05-24T13:11:37Z</time>
      </trkpt>
      <trkpt lat="43.37958" lon="-1.83863">
        <ele>41.47</ele>
        <time>2015-05-24T13:11:42Z</time>
      </trkpt>
      <trkpt lat="43.3798" lon="-1.8388">
        <ele>40.51</ele>
        <time>2015-05-24T13:11:54Z</time>
      </trkpt>
      <trkpt lat="43.3799" lon="-1.83877">
        <ele>38.59</ele>
        <time>2015-05-24T13:11:57Z</time>
      </trkpt>
      <trkpt lat="43.38043" lon="-1.83837">
        <ele>36.19</ele>
        <time>2015-05-24T13:12:11Z</time>
      </trkpt>
      <trkpt lat="43.38055" lon="-1.83829">
        <ele>35.23</ele>
        <time>2015-05-24T13:12:14Z</time>
      </trkpt>
      <trkpt lat="43.38072" lon="-1.838">
        <ele>34.26</ele>
        <time>2015-05-24T13:12:20Z</time>
      </trkpt>
      <trkpt lat="43.38089" lon="-1.83736">
        <ele>33.78</ele>
        <time>2015-05-24T13:12:34Z</time>
      </trkpt>
      <trkpt lat="43.38084" lon="-1.8368">
        <ele>34.74</ele>
        <time>2015-05-24T13:12:48Z</time>
      </trkpt>
      <trkpt lat="43.38095" lon="-1.83634">
        <ele>35.23</ele>
        <time>2015-05-24T13:13:02Z</time>
      </trkpt>
      <trkpt lat="43.38095" lon="-1.83617">
        <ele>35.23</ele>
        <time>2015-05-24T13:13:07Z</time>
      </trkpt>
      <trkpt lat="43.38088" lon="-1.83612">
        <ele>35.71</ele>
        <time>2015-05-24T13:13:18Z</time>
      </trkpt>
      <trkpt lat="43.38086" lon="-1.83611">
        <ele>36.19</ele>
        <time>2015-05-24T13:13:23Z</time>
      </trkpt>
      <trkpt lat="43.3809" lon="-1.83587">
        <ele>31.86</ele>
        <time>2015-05-24T13:13:30Z</time>
      </trkpt>
      <trkpt lat="43.38102" lon="-1.83574">
        <ele>28.98</ele>
        <time>2015-05-24T13:13:35Z</time>
      </trkpt>
      <trkpt lat="43.38111" lon="-1.83559">
        <ele>28.02</ele>
        <time>2015-05-24T13:13:45Z</time>
      </trkpt>
      <trkpt lat="43.3811" lon="-1.83554">
        <ele>27.05</ele>
        <time>2015-05-24T13:13:54Z</time>
      </trkpt>
      <trkpt lat="43.38114" lon="-1.83534">
        <ele>26.09</ele>
        <time>2015-05-24T13:14:06Z</time>
      </trkpt>
      <trkpt lat="43.38114" lon="-1.83533">
        <ele>26.09</ele>
        <time>2015-05-24T13:14:07Z</time>
      </trkpt>
      <trkpt lat="43.38116" lon="-1.83526">
        <ele>26.57</ele>
        <time>2015-05-24T13:14:15Z</time>
      </trkpt>
      <trkpt lat="43.38119" lon="-1.83525">
        <ele>26.57</ele>
        <time>2015-05-24T13:14:20Z</time>
      </trkpt>
      <trkpt lat="43.38125" lon="-1.83521">
        <ele>25.61</ele>
        <time>2015-05-24T13:14:24Z</time>
      </trkpt>
      <trkpt lat="43.38145" lon="-1.835">
        <ele>24.17</ele>
        <time>2015-05-24T13:14:35Z</time>
      </trkpt>
      <trkpt lat="43.38145" lon="-1.83494">
        <ele>23.21</ele>
        <time>2015-05-24T13:14:49Z</time>
      </trkpt>
      <trkpt lat="43.38146" lon="-1.83494">
        <ele>23.21</ele>
        <time>2015-05-24T13:14:51Z</time>
      </trkpt>
      <trkpt lat="43.38154" lon="-1.83492">
        <ele>22.25</ele>
        <time>2015-05-24T13:14:56Z</time>
      </trkpt>
      <trkpt lat="43.38165" lon="-1.8349">
        <ele>19.36</ele>
        <time>2015-05-24T13:15:01Z</time>
      </trkpt>
      <trkpt lat="43.38171" lon="-1.83482">
        <ele>18.4</ele>
        <time>2015-05-24T13:15:10Z</time>
      </trkpt>
      <trkpt lat="43.38174" lon="-1.83479">
        <ele>17.92</ele>
        <time>2015-05-24T13:15:16Z</time>
      </trkpt>
      <trkpt lat="43.38178" lon="-1.83475">
        <ele>18.4</ele>
        <time>2015-05-24T13:15:21Z</time>
      </trkpt>
      <trkpt lat="43.38185" lon="-1.8346">
        <ele>20.32</ele>
        <time>2015-05-24T13:15:36Z</time>
      </trkpt>
      <trkpt lat="43.38191" lon="-1.83452">
        <ele>23.21</ele>
        <time>2015-05-24T13:15:49Z</time>
      </trkpt>
      <trkpt lat="43.38196" lon="-1.83441">
        <ele>25.13</ele>
        <time>2015-05-24T13:16:03Z</time>
      </trkpt>
      <trkpt lat="43.38203" lon="-1.8343">
        <ele>27.05</ele>
        <time>2015-05-24T13:16:20Z</time>
      </trkpt>
      <trkpt lat="43.38212" lon="-1.83417">
        <ele>29.46</ele>
        <time>2015-05-24T13:16:38Z</time>
      </trkpt>
      <trkpt lat="43.38218" lon="-1.83408">
        <ele>31.38</ele>
        <time>2015-05-24T13:16:49Z</time>
      </trkpt>
      <trkpt lat="43.38219" lon="-1.83407">
        <ele>31.38</ele>
        <time>2015-05-24T13:16:51Z</time>
      </trkpt>
      <trkpt lat="43.38224" lon="-1.83397">
        <ele>32.34</ele>
        <time>2015-05-24T13:17:03Z</time>
      </trkpt>
      <trkpt lat="43.38238" lon="-1.83359">
        <ele>33.3</ele>
        <time>2015-05-24T13:17:19Z</time>
      </trkpt>
      <trkpt lat="43.38242" lon="-1.83342">
        <ele>31.38</ele>
        <time>2015-05-24T13:17:25Z</time>
      </trkpt>
      <trkpt lat="43.38254" lon="-1.83314">
        <ele>29.94</ele>
        <time>2015-05-24T13:17:34Z</time>
      </trkpt>
      <trkpt lat="43.38256" lon="-1.83313">
        <ele>29.94</ele>
        <time>2015-05-24T13:17:35Z</time>
      </trkpt>
      <trkpt lat="43.38274" lon="-1.83295">
        <ele>31.38</ele>
        <time>2015-05-24T13:17:44Z</time>
      </trkpt>
      <trkpt lat="43.3828" lon="-1.83263">
        <ele>29.94</ele>
        <time>2015-05-24T13:17:52Z</time>
      </trkpt>
      <trkpt lat="43.38284" lon="-1.83236">
        <ele>30.42</ele>
        <time>2015-05-24T13:17:59Z</time>
      </trkpt>
      <trkpt lat="43.38285" lon="-1.8323">
        <ele>30.42</ele>
        <time>2015-05-24T13:18:02Z</time>
      </trkpt>
      <trkpt lat="43.3829" lon="-1.83219">
        <ele>28.5</ele>
        <time>2015-05-24T13:18:05Z</time>
      </trkpt>
      <trkpt lat="43.38309" lon="-1.83197">
        <ele>29.46</ele>
        <time>2015-05-24T13:18:14Z</time>
      </trkpt>
      <trkpt lat="43.38317" lon="-1.83183">
        <ele>27.53</ele>
        <time>2015-05-24T13:18:19Z</time>
      </trkpt>
      <trkpt lat="43.38309" lon="-1.83156">
        <ele>27.53</ele>
        <time>2015-05-24T13:18:28Z</time>
      </trkpt>
      <trkpt lat="43.38296" lon="-1.83123">
        <ele>25.13</ele>
        <time>2015-05-24T13:18:41Z</time>
      </trkpt>
      <trkpt lat="43.38296" lon="-1.83104">
        <ele>23.21</ele>
        <time>2015-05-24T13:18:45Z</time>
      </trkpt>
      <trkpt lat="43.38292" lon="-1.83083">
        <ele>25.61</ele>
        <time>2015-05-24T13:18:54Z</time>
      </trkpt>
      <trkpt lat="43.38293" lon="-1.83078">
        <ele>26.09</ele>
        <time>2015-05-24T13:18:59Z</time>
      </trkpt>
      <trkpt lat="43.38298" lon="-1.8306">
        <ele>28.5</ele>
        <time>2015-05-24T13:19:13Z</time>
      </trkpt>
      <trkpt lat="43.38306" lon="-1.83045">
        <ele>28.98</ele>
        <time>2015-05-24T13:19:26Z</time>
      </trkpt>
      <trkpt lat="43.38319" lon="-1.83026">
        <ele>28.98</ele>
        <time>2015-05-24T13:19:35Z</time>
      </trkpt>
      <trkpt lat="43.38329" lon="-1.83013">
        <ele>28.02</ele>
        <time>2015-05-24T13:19:40Z</time>
      </trkpt>
      <trkpt lat="43.38326" lon="-1.83006">
        <ele>26.57</ele>
        <time>2015-05-24T13:19:44Z</time>
      </trkpt>
      <trkpt lat="43.38316" lon="-1.82999">
        <ele>23.21</ele>
        <time>2015-05-24T13:19:51Z</time>
      </trkpt>
      <trkpt lat="43.38315" lon="-1.82998">
        <ele>23.21</ele>
        <time>2015-05-24T13:19:52Z</time>
      </trkpt>
      <trkpt lat="43.38314" lon="-1.82993">
        <ele>21.77</ele>
        <time>2015-05-24T13:19:54Z</time>
      </trkpt>
      <trkpt lat="43.38323" lon="-1.82976">
        <ele>21.29</ele>
        <time>2015-05-24T13:20:00Z</time>
      </trkpt>
      <trkpt lat="43.38332" lon="-1.82963">
        <ele>24.17</ele>
        <time>2015-05-24T13:20:07Z</time>
      </trkpt>
      <trkpt lat="43.38338" lon="-1.82944">
        <ele>23.21</ele>
        <time>2015-05-24T13:20:14Z</time>
      </trkpt>
      <trkpt lat="43.38347" lon="-1.82915">
        <ele>21.29</ele>
        <time>2015-05-24T13:20:21Z</time>
      </trkpt>
      <trkpt lat="43.38352" lon="-1.82876">
        <ele>20.32</ele>
        <time>2015-05-24T13:20:30Z</time>
      </trkpt>
      <trkpt lat="43.38349" lon="-1.82859">
        <ele>19.84</ele>
        <time>2015-05-24T13:20:39Z</time>
      </trkpt>
      <trkpt lat="43.38345" lon="-1.82851">
        <ele>22.73</ele>
        <time>2015-05-24T13:20:53Z</time>
      </trkpt>
      <trkpt lat="43.38344" lon="-1.82837">
        <ele>25.13</ele>
        <time>2015-05-24T13:21:07Z</time>
      </trkpt>
      <trkpt lat="43.38343" lon="-1.82823">
        <ele>25.61</ele>
        <time>2015-05-24T13:21:20Z</time>
      </trkpt>
      <trkpt lat="43.38345" lon="-1.82812">
        <ele>27.53</ele>
        <time>2015-05-24T13:21:34Z</time>
      </trkpt>
      <trkpt lat="43.38346" lon="-1.828">
        <ele>29.46</ele>
        <time>2015-05-24T13:21:47Z</time>
      </trkpt>
      <trkpt lat="43.38348" lon="-1.82785">
        <ele>30.9</ele>
        <time>2015-05-24T13:22:01Z</time>
      </trkpt>
      <trkpt lat="43.38353" lon="-1.8277">
        <ele>34.26</ele>
        <time>2015-05-24T13:22:15Z</time>
      </trkpt>
      <trkpt lat="43.38353" lon="-1.82765">
        <ele>34.74</ele>
        <time>2015-05-24T13:22:19Z</time>
      </trkpt>
      <trkpt lat="43.38352" lon="-1.82748">
        <ele>36.19</ele>
        <time>2015-05-24T13:22:34Z</time>
      </trkpt>
      <trkpt lat="43.38351" lon="-1.82745">
        <ele>36.19</ele>
        <time>2015-05-24T13:22:37Z</time>
      </trkpt>
      <trkpt lat="43.38349" lon="-1.8274">
        <ele>36.67</ele>
        <time>2015-05-24T13:22:42Z</time>
      </trkpt>
      <trkpt lat="43.38341" lon="-1.8272">
        <ele>38.11</ele>
        <time>2015-05-24T13:22:58Z</time>
      </trkpt>
      <trkpt lat="43.38337" lon="-1.827">
        <ele>40.03</ele>
        <time>2015-05-24T13:23:16Z</time>
      </trkpt>
      <trkpt lat="43.38336" lon="-1.82689">
        <ele>40.51</ele>
        <time>2015-05-24T13:23:31Z</time>
      </trkpt>
      <trkpt lat="43.38333" lon="-1.82656">
        <ele>43.4</ele>
        <time>2015-05-24T13:23:46Z</time>
      </trkpt>
      <trkpt lat="43.3833" lon="-1.82605">
        <ele>43.88</ele>
        <time>2015-05-24T13:24:03Z</time>
      </trkpt>
      <trkpt lat="43.38328" lon="-1.82556">
        <ele>43.88</ele>
        <time>2015-05-24T13:24:18Z</time>
      </trkpt>
      <trkpt lat="43.38324" lon="-1.8255">
        <ele>43.88</ele>
        <time>2015-05-24T13:24:21Z</time>
      </trkpt>
      <trkpt lat="43.38323" lon="-1.82532">
        <ele>39.55</ele>
        <time>2015-05-24T13:24:27Z</time>
      </trkpt>
      <trkpt lat="43.3832" lon="-1.82527">
        <ele>38.59</ele>
        <time>2015-05-24T13:24:29Z</time>
      </trkpt>
      <trkpt lat="43.3832" lon="-1.82522">
        <ele>38.59</ele>
        <time>2015-05-24T13:24:33Z</time>
      </trkpt>
      <trkpt lat="43.38326" lon="-1.82501">
        <ele>38.59</ele>
        <time>2015-05-24T13:24:42Z</time>
      </trkpt>
      <trkpt lat="43.38329" lon="-1.82485">
        <ele>38.59</ele>
        <time>2015-05-24T13:24:46Z</time>
      </trkpt>
      <trkpt lat="43.38334" lon="-1.8244">
        <ele>39.55</ele>
        <time>2015-05-24T13:24:57Z</time>
      </trkpt>
      <trkpt lat="43.38337" lon="-1.82433">
        <ele>40.99</ele>
        <time>2015-05-24T13:25:06Z</time>
      </trkpt>
      <trkpt lat="43.38344" lon="-1.82421">
        <ele>42.44</ele>
        <time>2015-05-24T13:25:21Z</time>
      </trkpt>
      <trkpt lat="43.3837" lon="-1.82395">
        <ele>41.95</ele>
        <time>2015-05-24T13:25:34Z</time>
      </trkpt>
      <trkpt lat="43.38389" lon="-1.82375">
        <ele>40.99</ele>
        <time>2015-05-24T13:25:40Z</time>
      </trkpt>
      <trkpt lat="43.38415" lon="-1.82346">
        <ele>42.92</ele>
        <time>2015-05-24T13:25:51Z</time>
      </trkpt>
      <trkpt lat="43.3843" lon="-1.82314">
        <ele>39.55</ele>
        <time>2015-05-24T13:26:00Z</time>
      </trkpt>
      <trkpt lat="43.38442" lon="-1.82294">
        <ele>36.19</ele>
        <time>2015-05-24T13:26:05Z</time>
      </trkpt>
      <trkpt lat="43.38443" lon="-1.8229">
        <ele>36.19</ele>
        <time>2015-05-24T13:26:06Z</time>
      </trkpt>
      <trkpt lat="43.38445" lon="-1.82284">
        <ele>36.19</ele>
        <time>2015-05-24T13:26:08Z</time>
      </trkpt>
      <trkpt lat="43.38432" lon="-1.82261">
        <ele>33.3</ele>
        <time>2015-05-24T13:26:15Z</time>
      </trkpt>
      <trkpt lat="43.38411" lon="-1.82226">
        <ele>32.82</ele>
        <time>2015-05-24T13:26:26Z</time>
      </trkpt>
      <trkpt lat="43.3841" lon="-1.82217">
        <ele>32.82</ele>
        <time>2015-05-24T13:26:41Z</time>
      </trkpt>
      <trkpt lat="43.38408" lon="-1.82212">
        <ele>32.34</ele>
        <time>2015-05-24T13:26:47Z</time>
      </trkpt>
      <trkpt lat="43.38403" lon="-1.82211">
        <ele>30.42</ele>
        <time>2015-05-24T13:26:56Z</time>
      </trkpt>
      <trkpt lat="43.38391" lon="-1.82219">
        <ele>28.98</ele>
        <time>2015-05-24T13:27:10Z</time>
      </trkpt>
      <trkpt lat="43.38384" lon="-1.82225">
        <ele>26.57</ele>
        <time>2015-05-24T13:27:25Z</time>
      </trkpt>
      <trkpt lat="43.38378" lon="-1.82227">
        <ele>25.13</ele>
        <time>2015-05-24T13:27:38Z</time>
      </trkpt>
      <trkpt lat="43.38367" lon="-1.82225">
        <ele>24.17</ele>
        <time>2015-05-24T13:27:48Z</time>
      </trkpt>
      <trkpt lat="43.38362" lon="-1.8222">
        <ele>24.17</ele>
        <time>2015-05-24T13:27:58Z</time>
      </trkpt>
      <trkpt lat="43.3836" lon="-1.82216">
        <ele>22.73</ele>
        <time>2015-05-24T13:28:12Z</time>
      </trkpt>
      <trkpt lat="43.38356" lon="-1.82212">
        <ele>21.77</ele>
        <time>2015-05-24T13:28:23Z</time>
      </trkpt>
      <trkpt lat="43.3835" lon="-1.82212">
        <ele>20.32</ele>
        <time>2015-05-24T13:28:33Z</time>
      </trkpt>
      <trkpt lat="43.38342" lon="-1.82214">
        <ele>18.4</ele>
        <time>2015-05-24T13:28:46Z</time>
      </trkpt>
      <trkpt lat="43.38326" lon="-1.82224">
        <ele>17.44</ele>
        <time>2015-05-24T13:28:56Z</time>
      </trkpt>
      <trkpt lat="43.38305" lon="-1.82241">
        <ele>15.52</ele>
        <time>2015-05-24T13:29:05Z</time>
      </trkpt>
      <trkpt lat="43.38296" lon="-1.82249">
        <ele>15.04</ele>
        <time>2015-05-24T13:29:15Z</time>
      </trkpt>
      <trkpt lat="43.38289" lon="-1.82256">
        <ele>12.15</ele>
        <time>2015-05-24T13:29:32Z</time>
      </trkpt>
      <trkpt lat="43.3828" lon="-1.8226">
        <ele>11.19</ele>
        <time>2015-05-24T13:29:44Z</time>
      </trkpt>
      <trkpt lat="43.38274" lon="-1.82264">
        <ele>9.75</ele>
        <time>2015-05-24T13:29:55Z</time>
      </trkpt>
      <trkpt lat="43.38271" lon="-1.82266">
        <ele>8.31</ele>
        <time>2015-05-24T13:29:59Z</time>
      </trkpt>
      <trkpt lat="43.38257" lon="-1.82266">
        <ele>7.35</ele>
        <time>2015-05-24T13:30:14Z</time>
      </trkpt>
      <trkpt lat="43.38255" lon="-1.82265">
        <ele>7.35</ele>
        <time>2015-05-24T13:30:17Z</time>
      </trkpt>
      <trkpt lat="43.38253" lon="-1.8226">
        <ele>7.35</ele>
        <time>2015-05-24T13:30:21Z</time>
      </trkpt>
      <trkpt lat="43.38259" lon="-1.8224">
        <ele>7.35</ele>
        <time>2015-05-24T13:30:37Z</time>
      </trkpt>
      <trkpt lat="43.38264" lon="-1.82225">
        <ele>10.23</ele>
        <time>2015-05-24T13:30:51Z</time>
      </trkpt>
      <trkpt lat="43.38266" lon="-1.82211">
        <ele>12.63</ele>
        <time>2015-05-24T13:31:07Z</time>
      </trkpt>
      <trkpt lat="43.38267" lon="-1.82203">
        <ele>13.12</ele>
        <time>2015-05-24T13:31:13Z</time>
      </trkpt>
      <trkpt lat="43.38268" lon="-1.82193">
        <ele>13.6</ele>
        <time>2015-05-24T13:31:23Z</time>
      </trkpt>
      <trkpt lat="43.38274" lon="-1.8217">
        <ele>16</ele>
        <time>2015-05-24T13:31:38Z</time>
      </trkpt>
      <trkpt lat="43.38279" lon="-1.8215">
        <ele>18.88</ele>
        <time>2015-05-24T13:31:48Z</time>
      </trkpt>
      <trkpt lat="43.3828" lon="-1.82141">
        <ele>19.84</ele>
        <time>2015-05-24T13:31:54Z</time>
      </trkpt>
      <trkpt lat="43.38283" lon="-1.82132">
        <ele>19.84</ele>
        <time>2015-05-24T13:32:00Z</time>
      </trkpt>
      <trkpt lat="43.38296" lon="-1.82114">
        <ele>20.32</ele>
        <time>2015-05-24T13:32:12Z</time>
      </trkpt>
      <trkpt lat="43.38318" lon="-1.82101">
        <ele>19.36</ele>
        <time>2015-05-24T13:32:25Z</time>
      </trkpt>
      <trkpt lat="43.38331" lon="-1.82096">
        <ele>16</ele>
        <time>2015-05-24T13:32:29Z</time>
      </trkpt>
      <trkpt lat="43.3835" lon="-1.82097">
        <ele>13.6</ele>
        <time>2015-05-24T13:32:34Z</time>
      </trkpt>
      <trkpt lat="43.3836" lon="-1.82095">
        <ele>11.67</ele>
        <time>2015-05-24T13:32:37Z</time>
      </trkpt>
      <trkpt lat="43.38369" lon="-1.82086">
        <ele>10.71</ele>
        <time>2015-05-24T13:32:40Z</time>
      </trkpt>
      <trkpt lat="43.38376" lon="-1.82079">
        <ele>11.67</ele>
        <time>2015-05-24T13:32:43Z</time>
      </trkpt>
      <trkpt lat="43.38377" lon="-1.82075">
        <ele>13.12</ele>
        <time>2015-05-24T13:32:45Z</time>
      </trkpt>
      <trkpt lat="43.3837" lon="-1.82072">
        <ele>15.04</ele>
        <time>2015-05-24T13:32:57Z</time>
      </trkpt>
      <trkpt lat="43.38367" lon="-1.82066">
        <ele>16.96</ele>
        <time>2015-05-24T13:33:08Z</time>
      </trkpt>
      <trkpt lat="43.38369" lon="-1.82056">
        <ele>19.84</ele>
        <time>2015-05-24T13:33:22Z</time>
      </trkpt>
      <trkpt lat="43.38371" lon="-1.82049">
        <ele>21.29</ele>
        <time>2015-05-24T13:33:37Z</time>
      </trkpt>
      <trkpt lat="43.3838" lon="-1.82039">
        <ele>24.17</ele>
        <time>2015-05-24T13:33:55Z</time>
      </trkpt>
      <trkpt lat="43.38383" lon="-1.82023">
        <ele>26.09</ele>
        <time>2015-05-24T13:34:11Z</time>
      </trkpt>
      <trkpt lat="43.38386" lon="-1.8201">
        <ele>28.5</ele>
        <time>2015-05-24T13:34:28Z</time>
      </trkpt>
      <trkpt lat="43.38395" lon="-1.82009">
        <ele>30.42</ele>
        <time>2015-05-24T13:34:43Z</time>
      </trkpt>
      <trkpt lat="43.38397" lon="-1.82008">
        <ele>30.9</ele>
        <time>2015-05-24T13:34:48Z</time>
      </trkpt>
      <trkpt lat="43.38412" lon="-1.81987">
        <ele>28.02</ele>
        <time>2015-05-24T13:34:56Z</time>
      </trkpt>
      <trkpt lat="43.38419" lon="-1.81982">
        <ele>27.05</ele>
        <time>2015-05-24T13:34:59Z</time>
      </trkpt>
      <trkpt lat="43.38427" lon="-1.81978">
        <ele>26.09</ele>
        <time>2015-05-24T13:35:01Z</time>
      </trkpt>
      <trkpt lat="43.38439" lon="-1.81969">
        <ele>28.02</ele>
        <time>2015-05-24T13:35:07Z</time>
      </trkpt>
      <trkpt lat="43.38451" lon="-1.81949">
        <ele>28.5</ele>
        <time>2015-05-24T13:35:16Z</time>
      </trkpt>
      <trkpt lat="43.38464" lon="-1.8194">
        <ele>29.94</ele>
        <time>2015-05-24T13:35:27Z</time>
      </trkpt>
      <trkpt lat="43.38467" lon="-1.81933">
        <ele>32.34</ele>
        <time>2015-05-24T13:35:38Z</time>
      </trkpt>
      <trkpt lat="43.38466" lon="-1.81924">
        <ele>34.26</ele>
        <time>2015-05-24T13:35:54Z</time>
      </trkpt>
      <trkpt lat="43.38466" lon="-1.81916">
        <ele>36.19</ele>
        <time>2015-05-24T13:36:12Z</time>
      </trkpt>
      <trkpt lat="43.38466" lon="-1.81905">
        <ele>37.63</ele>
        <time>2015-05-24T13:36:34Z</time>
      </trkpt>
      <trkpt lat="43.38465" lon="-1.81892">
        <ele>40.51</ele>
        <time>2015-05-24T13:36:49Z</time>
      </trkpt>
      <trkpt lat="43.38465" lon="-1.81891">
        <ele>40.99</ele>
        <time>2015-05-24T13:36:50Z</time>
      </trkpt>
      <trkpt lat="43.38465" lon="-1.81878">
        <ele>43.4</ele>
        <time>2015-05-24T13:37:06Z</time>
      </trkpt>
      <trkpt lat="43.38466" lon="-1.81878">
        <ele>43.4</ele>
        <time>2015-05-24T13:37:07Z</time>
      </trkpt>
      <trkpt lat="43.3847" lon="-1.81869">
        <ele>43.4</ele>
        <time>2015-05-24T13:37:12Z</time>
      </trkpt>
      <trkpt lat="43.3848" lon="-1.81854">
        <ele>41.95</ele>
        <time>2015-05-24T13:37:18Z</time>
      </trkpt>
      <trkpt lat="43.38493" lon="-1.81835">
        <ele>39.55</ele>
        <time>2015-05-24T13:37:24Z</time>
      </trkpt>
      <trkpt lat="43.38479" lon="-1.8182">
        <ele>38.11</ele>
        <time>2015-05-24T13:37:32Z</time>
      </trkpt>
      <trkpt lat="43.38486" lon="-1.81801">
        <ele>36.67</ele>
        <time>2015-05-24T13:37:37Z</time>
      </trkpt>
      <trkpt lat="43.38495" lon="-1.81768">
        <ele>33.3</ele>
        <time>2015-05-24T13:37:44Z</time>
      </trkpt>
      <trkpt lat="43.38495" lon="-1.81748">
        <ele>29.94</ele>
        <time>2015-05-24T13:37:49Z</time>
      </trkpt>
      <trkpt lat="43.38515" lon="-1.81727">
        <ele>27.53</ele>
        <time>2015-05-24T13:37:55Z</time>
      </trkpt>
      <trkpt lat="43.38534" lon="-1.81691">
        <ele>28.02</ele>
        <time>2015-05-24T13:38:05Z</time>
      </trkpt>
      <trkpt lat="43.38538" lon="-1.81681">
        <ele>26.09</ele>
        <time>2015-05-24T13:38:08Z</time>
      </trkpt>
      <trkpt lat="43.38547" lon="-1.81668">
        <ele>23.21</ele>
        <time>2015-05-24T13:38:13Z</time>
      </trkpt>
      <trkpt lat="43.38552" lon="-1.81662">
        <ele>21.29</ele>
        <time>2015-05-24T13:38:16Z</time>
      </trkpt>
      <trkpt lat="43.3855" lon="-1.81651">
        <ele>19.36</ele>
        <time>2015-05-24T13:38:20Z</time>
      </trkpt>
      <trkpt lat="43.38547" lon="-1.81645">
        <ele>19.36</ele>
        <time>2015-05-24T13:38:22Z</time>
      </trkpt>
      <trkpt lat="43.38545" lon="-1.81632">
        <ele>20.32</ele>
        <time>2015-05-24T13:38:29Z</time>
      </trkpt>
      <trkpt lat="43.38541" lon="-1.81628">
        <ele>22.25</ele>
        <time>2015-05-24T13:38:42Z</time>
      </trkpt>
      <trkpt lat="43.38539" lon="-1.81622">
        <ele>24.17</ele>
        <time>2015-05-24T13:38:55Z</time>
      </trkpt>
      <trkpt lat="43.38534" lon="-1.81618">
        <ele>26.57</ele>
        <time>2015-05-24T13:39:09Z</time>
      </trkpt>
      <trkpt lat="43.3853" lon="-1.81613">
        <ele>28.98</ele>
        <time>2015-05-24T13:39:24Z</time>
      </trkpt>
      <trkpt lat="43.38525" lon="-1.81602">
        <ele>31.38</ele>
        <time>2015-05-24T13:39:40Z</time>
      </trkpt>
      <trkpt lat="43.38526" lon="-1.8159">
        <ele>32.34</ele>
        <time>2015-05-24T13:39:54Z</time>
      </trkpt>
      <trkpt lat="43.38526" lon="-1.81578">
        <ele>33.3</ele>
        <time>2015-05-24T13:40:08Z</time>
      </trkpt>
      <trkpt lat="43.38532" lon="-1.81557">
        <ele>29.94</ele>
        <time>2015-05-24T13:40:15Z</time>
      </trkpt>
      <trkpt lat="43.3854" lon="-1.81545">
        <ele>29.94</ele>
        <time>2015-05-24T13:40:20Z</time>
      </trkpt>
      <trkpt lat="43.38543" lon="-1.81541">
        <ele>31.38</ele>
        <time>2015-05-24T13:40:23Z</time>
      </trkpt>
      <trkpt lat="43.38546" lon="-1.81534">
        <ele>33.3</ele>
        <time>2015-05-24T13:40:27Z</time>
      </trkpt>
      <trkpt lat="43.3855" lon="-1.8153">
        <ele>33.3</ele>
        <time>2015-05-24T13:40:30Z</time>
      </trkpt>
      <trkpt lat="43.38552" lon="-1.81512">
        <ele>30.9</ele>
        <time>2015-05-24T13:40:35Z</time>
      </trkpt>
      <trkpt lat="43.38549" lon="-1.81489">
        <ele>33.3</ele>
        <time>2015-05-24T13:40:46Z</time>
      </trkpt>
      <trkpt lat="43.38548" lon="-1.81473">
        <ele>35.71</ele>
        <time>2015-05-24T13:41:03Z</time>
      </trkpt>
      <trkpt lat="43.38544" lon="-1.81466">
        <ele>38.11</ele>
        <time>2015-05-24T13:41:18Z</time>
      </trkpt>
      <trkpt lat="43.38543" lon="-1.81462">
        <ele>36.67</ele>
        <time>2015-05-24T13:41:23Z</time>
      </trkpt>
      <trkpt lat="43.38544" lon="-1.81461">
        <ele>36.67</ele>
        <time>2015-05-24T13:41:27Z</time>
      </trkpt>
      <trkpt lat="43.38547" lon="-1.81447">
        <ele>33.78</ele>
        <time>2015-05-24T13:41:34Z</time>
      </trkpt>
      <trkpt lat="43.38559" lon="-1.81445">
        <ele>29.94</ele>
        <time>2015-05-24T13:41:39Z</time>
      </trkpt>
      <trkpt lat="43.38573" lon="-1.81445">
        <ele>26.57</ele>
        <time>2015-05-24T13:41:43Z</time>
      </trkpt>
      <trkpt lat="43.38582" lon="-1.81445">
        <ele>24.17</ele>
        <time>2015-05-24T13:41:46Z</time>
      </trkpt>
      <trkpt lat="43.38584" lon="-1.8143">
        <ele>20.81</ele>
        <time>2015-05-24T13:41:56Z</time>
      </trkpt>
      <trkpt lat="43.38588" lon="-1.81429">
        <ele>18.88</ele>
        <time>2015-05-24T13:42:07Z</time>
      </trkpt>
      <trkpt lat="43.38589" lon="-1.81425">
        <ele>18.88</ele>
        <time>2015-05-24T13:42:19Z</time>
      </trkpt>
      <trkpt lat="43.38595" lon="-1.81424">
        <ele>15.52</ele>
        <time>2015-05-24T13:42:32Z</time>
      </trkpt>
      <trkpt lat="43.38603" lon="-1.81423">
        <ele>12.63</ele>
        <time>2015-05-24T13:42:48Z</time>
      </trkpt>
      <trkpt lat="43.38604" lon="-1.81422">
        <ele>13.6</ele>
        <time>2015-05-24T13:42:55Z</time>
      </trkpt>
      <trkpt lat="43.38605" lon="-1.8142">
        <ele>13.6</ele>
        <time>2015-05-24T13:43:08Z</time>
      </trkpt>
      <trkpt lat="43.38606" lon="-1.81418">
        <ele>13.6</ele>
        <time>2015-05-24T13:43:11Z</time>
      </trkpt>
      <trkpt lat="43.38607" lon="-1.81415">
        <ele>12.63</ele>
        <time>2015-05-24T13:43:13Z</time>
      </trkpt>
      <trkpt lat="43.38612" lon="-1.81407">
        <ele>10.71</ele>
        <time>2015-05-24T13:43:25Z</time>
      </trkpt>
      <trkpt lat="43.38613" lon="-1.81403">
        <ele>12.15</ele>
        <time>2015-05-24T13:43:29Z</time>
      </trkpt>
      <trkpt lat="43.38612" lon="-1.81402">
        <ele>13.12</ele>
        <time>2015-05-24T13:43:44Z</time>
      </trkpt>
      <trkpt lat="43.38611" lon="-1.81398">
        <ele>13.6</ele>
        <time>2015-05-24T13:43:57Z</time>
      </trkpt>
      <trkpt lat="43.38611" lon="-1.8139">
        <ele>15.04</ele>
        <time>2015-05-24T13:44:09Z</time>
      </trkpt>
      <trkpt lat="43.38608" lon="-1.8138">
        <ele>16.96</ele>
        <time>2015-05-24T13:44:23Z</time>
      </trkpt>
      <trkpt lat="43.38606" lon="-1.81365">
        <ele>19.36</ele>
        <time>2015-05-24T13:44:41Z</time>
      </trkpt>
      <trkpt lat="43.38606" lon="-1.81354">
        <ele>21.29</ele>
        <time>2015-05-24T13:44:57Z</time>
      </trkpt>
      <trkpt lat="43.38605" lon="-1.81342">
        <ele>23.69</ele>
        <time>2015-05-24T13:45:13Z</time>
      </trkpt>
      <trkpt lat="43.38611" lon="-1.81339">
        <ele>24.65</ele>
        <time>2015-05-24T13:45:21Z</time>
      </trkpt>
      <trkpt lat="43.38618" lon="-1.81348">
        <ele>24.65</ele>
        <time>2015-05-24T13:45:32Z</time>
      </trkpt>
      <trkpt lat="43.38622" lon="-1.81366">
        <ele>26.57</ele>
        <time>2015-05-24T13:45:49Z</time>
      </trkpt>
      <trkpt lat="43.38628" lon="-1.81373">
        <ele>28.98</ele>
        <time>2015-05-24T13:46:03Z</time>
      </trkpt>
      <trkpt lat="43.38637" lon="-1.81377">
        <ele>30.9</ele>
        <time>2015-05-24T13:46:20Z</time>
      </trkpt>
      <trkpt lat="43.38635" lon="-1.81368">
        <ele>33.78</ele>
        <time>2015-05-24T13:46:34Z</time>
      </trkpt>
      <trkpt lat="43.3863" lon="-1.81355">
        <ele>35.23</ele>
        <time>2015-05-24T13:46:50Z</time>
      </trkpt>
      <trkpt lat="43.38635" lon="-1.81353">
        <ele>37.15</ele>
        <time>2015-05-24T13:47:04Z</time>
      </trkpt>
      <trkpt lat="43.38634" lon="-1.81345">
        <ele>39.07</ele>
        <time>2015-05-24T13:47:17Z</time>
      </trkpt>
      <trkpt lat="43.38636" lon="-1.81337">
        <ele>40.99</ele>
        <time>2015-05-24T13:47:32Z</time>
      </trkpt>
      <trkpt lat="43.38648" lon="-1.81332">
        <ele>42.92</ele>
        <time>2015-05-24T13:47:50Z</time>
      </trkpt>
      <trkpt lat="43.38653" lon="-1.81318">
        <ele>44.84</ele>
        <time>2015-05-24T13:48:07Z</time>
      </trkpt>
      <trkpt lat="43.38649" lon="-1.81304">
        <ele>46.76</ele>
        <time>2015-05-24T13:48:22Z</time>
      </trkpt>
      <trkpt lat="43.38648" lon="-1.8129">
        <ele>48.2</ele>
        <time>2015-05-24T13:48:37Z</time>
      </trkpt>
      <trkpt lat="43.38647" lon="-1.81279">
        <ele>49.16</ele>
        <time>2015-05-24T13:48:52Z</time>
      </trkpt>
      <trkpt lat="43.38649" lon="-1.81262">
        <ele>51.09</ele>
        <time>2015-05-24T13:49:03Z</time>
      </trkpt>
      <trkpt lat="43.38645" lon="-1.81256">
        <ele>52.53</ele>
        <time>2015-05-24T13:49:08Z</time>
      </trkpt>
      <trkpt lat="43.38639" lon="-1.81251">
        <ele>54.45</ele>
        <time>2015-05-24T13:49:15Z</time>
      </trkpt>
      <trkpt lat="43.38635" lon="-1.8124">
        <ele>55.89</ele>
        <time>2015-05-24T13:49:27Z</time>
      </trkpt>
      <trkpt lat="43.38634" lon="-1.81228">
        <ele>57.34</ele>
        <time>2015-05-24T13:49:43Z</time>
      </trkpt>
      <trkpt lat="43.38633" lon="-1.81216">
        <ele>60.22</ele>
        <time>2015-05-24T13:49:59Z</time>
      </trkpt>
      <trkpt lat="43.38629" lon="-1.81203">
        <ele>61.18</ele>
        <time>2015-05-24T13:50:13Z</time>
      </trkpt>
      <trkpt lat="43.38625" lon="-1.81186">
        <ele>63.1</ele>
        <time>2015-05-24T13:50:28Z</time>
      </trkpt>
      <trkpt lat="43.38624" lon="-1.81183">
        <ele>63.1</ele>
        <time>2015-05-24T13:50:34Z</time>
      </trkpt>
      <trkpt lat="43.38617" lon="-1.81159">
        <ele>63.58</ele>
        <time>2015-05-24T13:50:47Z</time>
      </trkpt>
      <trkpt lat="43.38607" lon="-1.81137">
        <ele>64.55</ele>
        <time>2015-05-24T13:51:01Z</time>
      </trkpt>
      <trkpt lat="43.38607" lon="-1.81135">
        <ele>64.55</ele>
        <time>2015-05-24T13:51:02Z</time>
      </trkpt>
      <trkpt lat="43.38615" lon="-1.81102">
        <ele>65.99</ele>
        <time>2015-05-24T13:51:18Z</time>
      </trkpt>
      <trkpt lat="43.38623" lon="-1.81068">
        <ele>68.39</ele>
        <time>2015-05-24T13:51:33Z</time>
      </trkpt>
      <trkpt lat="43.3863" lon="-1.81043">
        <ele>69.35</ele>
        <time>2015-05-24T13:51:47Z</time>
      </trkpt>
      <trkpt lat="43.38635" lon="-1.81027">
        <ele>70.31</ele>
        <time>2015-05-24T13:51:55Z</time>
      </trkpt>
      <trkpt lat="43.38638" lon="-1.8101">
        <ele>71.27</ele>
        <time>2015-05-24T13:52:05Z</time>
      </trkpt>
      <trkpt lat="43.38635" lon="-1.80978">
        <ele>71.76</ele>
        <time>2015-05-24T13:52:18Z</time>
      </trkpt>
      <trkpt lat="43.38632" lon="-1.80967">
        <ele>70.31</ele>
        <time>2015-05-24T13:52:20Z</time>
      </trkpt>
      <trkpt lat="43.38627" lon="-1.80951">
        <ele>68.87</ele>
        <time>2015-05-24T13:52:23Z</time>
      </trkpt>
      <trkpt lat="43.38624" lon="-1.80916">
        <ele>65.99</ele>
        <time>2015-05-24T13:52:28Z</time>
      </trkpt>
      <trkpt lat="43.38634" lon="-1.8087">
        <ele>63.1</ele>
        <time>2015-05-24T13:52:33Z</time>
      </trkpt>
      <trkpt lat="43.38652" lon="-1.80788">
        <ele>59.26</ele>
        <time>2015-05-24T13:52:42Z</time>
      </trkpt>
      <trkpt lat="43.38654" lon="-1.80779">
        <ele>59.26</ele>
        <time>2015-05-24T13:52:43Z</time>
      </trkpt>
      <trkpt lat="43.38657" lon="-1.80762">
        <ele>58.78</ele>
        <time>2015-05-24T13:52:45Z</time>
      </trkpt>
      <trkpt lat="43.38665" lon="-1.80714">
        <ele>55.89</ele>
        <time>2015-05-24T13:52:54Z</time>
      </trkpt>
      <trkpt lat="43.38658" lon="-1.80692">
        <ele>53.97</ele>
        <time>2015-05-24T13:52:59Z</time>
      </trkpt>
      <trkpt lat="43.38648" lon="-1.80676">
        <ele>52.53</ele>
        <time>2015-05-24T13:53:02Z</time>
      </trkpt>
      <trkpt lat="43.38619" lon="-1.80644">
        <ele>51.09</ele>
        <time>2015-05-24T13:53:10Z</time>
      </trkpt>
      <trkpt lat="43.38605" lon="-1.80648">
        <ele>49.16</ele>
        <time>2015-05-24T13:53:13Z</time>
      </trkpt>
      <trkpt lat="43.38599" lon="-1.8065">
        <ele>49.16</ele>
        <time>2015-05-24T13:53:14Z</time>
      </trkpt>
      <trkpt lat="43.3857" lon="-1.80629">
        <ele>49.16</ele>
        <time>2015-05-24T13:53:22Z</time>
      </trkpt>
      <trkpt lat="43.38573" lon="-1.80616">
        <ele>49.16</ele>
        <time>2015-05-24T13:53:25Z</time>
      </trkpt>
      <trkpt lat="43.38596" lon="-1.80573">
        <ele>49.16</ele>
        <time>2015-05-24T13:53:37Z</time>
      </trkpt>
      <trkpt lat="43.38616" lon="-1.80532">
        <ele>49.16</ele>
        <time>2015-05-24T13:53:49Z</time>
      </trkpt>
      <trkpt lat="43.38643" lon="-1.8049">
        <ele>50.13</ele>
        <time>2015-05-24T13:54:01Z</time>
      </trkpt>
      <trkpt lat="43.38661" lon="-1.80444">
        <ele>50.61</ele>
        <time>2015-05-24T13:54:12Z</time>
      </trkpt>
      <trkpt lat="43.38658" lon="-1.80395">
        <ele>50.61</ele>
        <time>2015-05-24T13:54:24Z</time>
      </trkpt>
      <trkpt lat="43.38641" lon="-1.80379">
        <ele>51.57</ele>
        <time>2015-05-24T13:54:34Z</time>
      </trkpt>
      <trkpt lat="43.38618" lon="-1.80398">
        <ele>52.05</ele>
        <time>2015-05-24T13:54:45Z</time>
      </trkpt>
      <trkpt lat="43.38614" lon="-1.80403">
        <ele>52.05</ele>
        <time>2015-05-24T13:54:47Z</time>
      </trkpt>
      <trkpt lat="43.38607" lon="-1.80417">
        <ele>52.05</ele>
        <time>2015-05-24T13:54:52Z</time>
      </trkpt>
      <trkpt lat="43.38583" lon="-1.80433">
        <ele>52.05</ele>
        <time>2015-05-24T13:55:00Z</time>
      </trkpt>
      <trkpt lat="43.3857" lon="-1.80433">
        <ele>52.05</ele>
        <time>2015-05-24T13:55:06Z</time>
      </trkpt>
      <trkpt lat="43.38541" lon="-1.80447">
        <ele>52.05</ele>
        <time>2015-05-24T13:55:18Z</time>
      </trkpt>
      <trkpt lat="43.38511" lon="-1.80455">
        <ele>50.61</ele>
        <time>2015-05-24T13:55:27Z</time>
      </trkpt>
      <trkpt lat="43.38467" lon="-1.80472">
        <ele>49.16</ele>
        <time>2015-05-24T13:55:37Z</time>
      </trkpt>
      <trkpt lat="43.38457" lon="-1.80475">
        <ele>48.68</ele>
        <time>2015-05-24T13:55:39Z</time>
      </trkpt>
      <trkpt lat="43.38441" lon="-1.80479">
        <ele>48.2</ele>
        <time>2015-05-24T13:55:42Z</time>
      </trkpt>
      <trkpt lat="43.38429" lon="-1.80464">
        <ele>47.72</ele>
        <time>2015-05-24T13:55:49Z</time>
      </trkpt>
      <trkpt lat="43.38437" lon="-1.80445">
        <ele>46.76</ele>
        <time>2015-05-24T13:55:53Z</time>
      </trkpt>
      <trkpt lat="43.38463" lon="-1.80392">
        <ele>43.4</ele>
        <time>2015-05-24T13:56:03Z</time>
      </trkpt>
      <trkpt lat="43.38466" lon="-1.80386">
        <ele>42.92</ele>
        <time>2015-05-24T13:56:04Z</time>
      </trkpt>
      <trkpt lat="43.38483" lon="-1.8037">
        <ele>40.51</ele>
        <time>2015-05-24T13:56:09Z</time>
      </trkpt>
      <trkpt lat="43.3851" lon="-1.80351">
        <ele>37.63</ele>
        <time>2015-05-24T13:56:15Z</time>
      </trkpt>
      <trkpt lat="43.3854" lon="-1.80324">
        <ele>34.74</ele>
        <time>2015-05-24T13:56:22Z</time>
      </trkpt>
      <trkpt lat="43.38545" lon="-1.80314">
        <ele>33.78</ele>
        <time>2015-05-24T13:56:25Z</time>
      </trkpt>
      <trkpt lat="43.38565" lon="-1.80284">
        <ele>32.34</ele>
        <time>2015-05-24T13:56:33Z</time>
      </trkpt>
      <trkpt lat="43.38578" lon="-1.80278">
        <ele>32.34</ele>
        <time>2015-05-24T13:56:36Z</time>
      </trkpt>
      <trkpt lat="43.38592" lon="-1.80272">
        <ele>32.34</ele>
        <time>2015-05-24T13:56:39Z</time>
      </trkpt>
      <trkpt lat="43.38608" lon="-1.80263">
        <ele>32.34</ele>
        <time>2015-05-24T13:56:44Z</time>
      </trkpt>
      <trkpt lat="43.38616" lon="-1.80259">
        <ele>33.3</ele>
        <time>2015-05-24T13:56:47Z</time>
      </trkpt>
      <trkpt lat="43.38623" lon="-1.80255">
        <ele>34.26</ele>
        <time>2015-05-24T13:56:50Z</time>
      </trkpt>
      <trkpt lat="43.38651" lon="-1.80245">
        <ele>36.19</ele>
        <time>2015-05-24T13:57:03Z</time>
      </trkpt>
      <trkpt lat="43.38664" lon="-1.80237">
        <ele>37.63</ele>
        <time>2015-05-24T13:57:10Z</time>
      </trkpt>
      <trkpt lat="43.38676" lon="-1.80219">
        <ele>38.59</ele>
        <time>2015-05-24T13:57:20Z</time>
      </trkpt>
      <trkpt lat="43.38689" lon="-1.80185">
        <ele>40.51</ele>
        <time>2015-05-24T13:57:36Z</time>
      </trkpt>
      <trkpt lat="43.38693" lon="-1.80156">
        <ele>41.95</ele>
        <time>2015-05-24T13:57:49Z</time>
      </trkpt>
      <trkpt lat="43.38699" lon="-1.80121">
        <ele>43.4</ele>
        <time>2015-05-24T13:58:03Z</time>
      </trkpt>
      <trkpt lat="43.38708" lon="-1.80079">
        <ele>44.36</ele>
        <time>2015-05-24T13:58:18Z</time>
      </trkpt>
      <trkpt lat="43.3872" lon="-1.80053">
        <ele>44.36</ele>
        <time>2015-05-24T13:58:25Z</time>
      </trkpt>
      <trkpt lat="43.38735" lon="-1.8007">
        <ele>44.36</ele>
        <time>2015-05-24T13:58:31Z</time>
      </trkpt>
      <trkpt lat="43.38746" lon="-1.80131">
        <ele>44.36</ele>
        <time>2015-05-24T13:58:46Z</time>
      </trkpt>
      <trkpt lat="43.38755" lon="-1.80174">
        <ele>43.88</ele>
        <time>2015-05-24T13:58:57Z</time>
      </trkpt>
      <trkpt lat="43.38779" lon="-1.80188">
        <ele>43.88</ele>
        <time>2015-05-24T13:59:07Z</time>
      </trkpt>
      <trkpt lat="43.38817" lon="-1.80172">
        <ele>43.88</ele>
        <time>2015-05-24T13:59:23Z</time>
      </trkpt>
      <trkpt lat="43.3885" lon="-1.80133">
        <ele>44.84</ele>
        <time>2015-05-24T13:59:37Z</time>
      </trkpt>
      <trkpt lat="43.38876" lon="-1.80099">
        <ele>46.76</ele>
        <time>2015-05-24T13:59:50Z</time>
      </trkpt>
      <trkpt lat="43.38895" lon="-1.8005">
        <ele>47.72</ele>
        <time>2015-05-24T14:00:05Z</time>
      </trkpt>
      <trkpt lat="43.38928" lon="-1.80011">
        <ele>48.2</ele>
        <time>2015-05-24T14:00:22Z</time>
      </trkpt>
      <trkpt lat="43.38953" lon="-1.7998">
        <ele>49.65</ele>
        <time>2015-05-24T14:00:36Z</time>
      </trkpt>
      <trkpt lat="43.38978" lon="-1.79936">
        <ele>47.72</ele>
        <time>2015-05-24T14:00:48Z</time>
      </trkpt>
      <trkpt lat="43.3898" lon="-1.7993">
        <ele>47.72</ele>
        <time>2015-05-24T14:00:49Z</time>
      </trkpt>
      <trkpt lat="43.39001" lon="-1.79884">
        <ele>44.36</ele>
        <time>2015-05-24T14:00:56Z</time>
      </trkpt>
      <trkpt lat="43.39011" lon="-1.79867">
        <ele>43.4</ele>
        <time>2015-05-24T14:00:59Z</time>
      </trkpt>
      <trkpt lat="43.3902" lon="-1.79838">
        <ele>41.95</ele>
        <time>2015-05-24T14:01:04Z</time>
      </trkpt>
      <trkpt lat="43.39018" lon="-1.79797">
        <ele>41.47</ele>
        <time>2015-05-24T14:01:14Z</time>
      </trkpt>
      <trkpt lat="43.39016" lon="-1.79774">
        <ele>39.07</ele>
        <time>2015-05-24T14:01:18Z</time>
      </trkpt>
      <trkpt lat="43.39008" lon="-1.7975">
        <ele>37.63</ele>
        <time>2015-05-24T14:01:21Z</time>
      </trkpt>
      <trkpt lat="43.38982" lon="-1.79693">
        <ele>36.19</ele>
        <time>2015-05-24T14:01:30Z</time>
      </trkpt>
      <trkpt lat="43.38975" lon="-1.79678">
        <ele>36.19</ele>
        <time>2015-05-24T14:01:35Z</time>
      </trkpt>
      <trkpt lat="43.38964" lon="-1.79639">
        <ele>39.07</ele>
        <time>2015-05-24T14:01:48Z</time>
      </trkpt>
      <trkpt lat="43.38963" lon="-1.79637">
        <ele>39.55</ele>
        <time>2015-05-24T14:01:49Z</time>
      </trkpt>
      <trkpt lat="43.38971" lon="-1.79615">
        <ele>40.99</ele>
        <time>2015-05-24T14:02:01Z</time>
      </trkpt>
      <trkpt lat="43.38974" lon="-1.79614">
        <ele>41.47</ele>
        <time>2015-05-24T14:02:03Z</time>
      </trkpt>
      <trkpt lat="43.38978" lon="-1.79614">
        <ele>41.95</ele>
        <time>2015-05-24T14:02:06Z</time>
      </trkpt>
      <trkpt lat="43.38983" lon="-1.79614">
        <ele>42.44</ele>
        <time>2015-05-24T14:02:10Z</time>
      </trkpt>
      <trkpt lat="43.38985" lon="-1.79613">
        <ele>42.92</ele>
        <time>2015-05-24T14:02:12Z</time>
      </trkpt>
      <trkpt lat="43.38993" lon="-1.79607">
        <ele>43.4</ele>
        <time>2015-05-24T14:02:18Z</time>
      </trkpt>
      <trkpt lat="43.39002" lon="-1.79597">
        <ele>43.88</ele>
        <time>2015-05-24T14:02:25Z</time>
      </trkpt>
      <trkpt lat="43.39008" lon="-1.79586">
        <ele>43.88</ele>
        <time>2015-05-24T14:02:30Z</time>
      </trkpt>
      <trkpt lat="43.39015" lon="-1.79584">
        <ele>43.88</ele>
        <time>2015-05-24T14:02:34Z</time>
      </trkpt>
      <trkpt lat="43.39044" lon="-1.79594">
        <ele>46.76</ele>
        <time>2015-05-24T14:02:48Z</time>
      </trkpt>
      <trkpt lat="43.39068" lon="-1.79566">
        <ele>46.76</ele>
        <time>2015-05-24T14:03:02Z</time>
      </trkpt>
      <trkpt lat="43.39087" lon="-1.79529">
        <ele>47.24</ele>
        <time>2015-05-24T14:03:15Z</time>
      </trkpt>
      <trkpt lat="43.39107" lon="-1.79482">
        <ele>47.24</ele>
        <time>2015-05-24T14:03:29Z</time>
      </trkpt>
      <trkpt lat="43.39115" lon="-1.79451">
        <ele>47.24</ele>
        <time>2015-05-24T14:03:39Z</time>
      </trkpt>
      <trkpt lat="43.39124" lon="-1.79407">
        <ele>47.24</ele>
        <time>2015-05-24T14:03:52Z</time>
      </trkpt>
      <trkpt lat="43.39135" lon="-1.79351">
        <ele>47.24</ele>
        <time>2015-05-24T14:04:08Z</time>
      </trkpt>
      <trkpt lat="43.39141" lon="-1.7929">
        <ele>47.24</ele>
        <time>2015-05-24T14:04:25Z</time>
      </trkpt>
    </trkseg>
  </trk>
</gpx>